[[{"header":{"parameterUnit":"m.s-1","parameterCategory":1,"la1":30.6,"la2":28.766,"lo1":-90.7593,"lo2":-88.6598,"dx":0.0162,"dy":0.0183,"nx":116,"ny":114,"refTime":"2023-02-14T06:00:00:Z","depth":0,"parameterNumber":2,"parameterNumberName":"U-component_of_WINDS"},"data":[0.0,0.0,0.0,0.0,0.0,0.0,0.0,0.0,0.0,0.0,0.0,0.0,0.0,0.0,0.0,0.0,0.0,0.0,0.0,0.0,0.0,0.0,0.0,0.0,0.0,0.0,0.0,0.0,0.0,0.0,0.0,0.0,0.0,0.0,0.0,0.0,0.0,0.0,0.0,0.0,0.0,0.0,0.0,0.0,0.0,0.0,0.0,0.0,0.0,0.0,0.0,0.0,0.0,0.0,0.0,0.0,0.0,0.0,0.0,0.0,0.0,0.0,0.0,0.0,0.0,0.0,0.0,0.0,0.0,0.0,0.0,0.0,0.0,0.0,0.0,0.0,0.0,0.0,0.0,0.0,0.0,0.0,0.0,0.0,0.0,0.0,0.0,0.0,0.0,0.0,0.0,0.0,0.0,0.0,0.0,0.0,0.0,0.0,0.0,0.0,0.0,0.0,0.0,0.0,0.0,0.0,0.0,0.0,0.0,0.0,0.0,0.0,0.0,0.0,0.0,0.0,0.0,0.0,0.0,0.0,0.0,0.0,0.0,0.0,0.0,0.0,0.0,0.0,0.0,0.0,0.0,0.0,0.0,0.0,0.0,0.0,0.0,0.0,0.0,0.0,0.0,0.0,0.0,0.0,0.0,0.0,0.0,0.0,0.0,0.0,0.0,0.0,0.0,0.0,0.0,0.0,0.0,0.0,0.0,0.0,0.0,0.0,0.0,0.0,0.0,0.0,0.0,0.0,0.0,0.0,0.0,0.0,0.0,0.0,0.0,0.0,0.0,0.0,0.0,0.0,0.0,0.0,0.0,0.0,0.0,0.0,0.0,0.0,0.0,0.0,0.0,0.0,0.0,0.0,0.0,0.0,0.0,0.0,0.0,0.0,0.0,0.0,0.0,0.0,0.0,0.0,0.0,0.0,0.0,0.0,0.0,0.0,0.0,0.0,0.0,0.0,0.0,0.0,0.0,0.0,0.0,0.0,0.0,0.0,0.0,0.0,0.0,0.0,0.0,0.0,0.0,0.0,0.0,0.0,0.0,0.0,0.0,0.0,0.0,0.0,0.0,0.0,0.0,0.0,0.0,0.0,0.0,0.0,0.0,0.0,0.0,0.0,0.0,0.0,0.0,0.0,0.0,0.0,0.0,0.0,0.0,0.0,0.0,0.0,0.0,0.0,0.0,0.0,0.0,0.0,0.0,0.0,0.0,0.0,0.0,0.0,0.0,0.0,0.0,0.0,0.0,0.0,0.0,0.0,0.0,0.0,0.0,0.0,0.0,0.0,0.0,0.0,0.0,0.0,0.0,0.0,0.0,0.0,0.0,0.0,0.0,0.0,0.0,0.0,0.0,0.0,0.0,0.0,0.0,0.0,0.0,0.0,0.0,0.0,0.0,0.0,0.0,0.0,0.0,0.0,0.0,0.0,0.0,0.0,0.0,0.0,0.0,0.0,0.0,0.0,0.0,0.0,0.0,0.0,0.0,0.0,0.0,0.0,0.0,0.0,0.0,0.0,0.0,0.0,0.0,0.0,0.0,0.0,0.0,0.0,0.0,0.0,0.0,0.0,0.0,0.0,0.0,0.0,0.0,0.0,0.0,0.0,0.0,0.0,0.0,0.0,0.0,0.0,0.0,0.0,0.0,0.0,0.0,0.0,0.0,0.0,0.0,0.0,0.0,0.0,0.0,0.0,0.0,0.0,0.0,0.0,0.0,0.0,0.0,0.0,0.0,0.0,0.0,0.0,0.0,0.0,0.0,0.0,0.0,0.0,0.0,0.0,0.0,0.0,0.0,0.0,0.0,0.0,0.0,0.0,0.0,0.0,0.0,0.0,0.0,0.0,0.0,0.0,0.0,0.0,0.0,0.0,0.0,0.0,0.0,0.0,0.0,0.0,0.0,0.0,0.0,0.0,0.0,0.0,0.0,0.0,0.0,0.0,0.0,0.0,0.0,0.0,0.0,0.0,0.0,0.0,0.0,0.0,0.0,0.0,0.0,0.0,0.0,0.0,0.0,0.0,0.0,0.0,0.0,0.0,0.0,0.0,0.0,0.0,0.0,0.0,0.0,0.0,0.0,0.0,0.0,0.0,0.0,0.0,0.0,0.0,0.0,0.0,0.0,0.0,0.0,0.0,0.0,0.0,0.0,0.0,0.0,0.0,0.0,0.0,0.0,0.0,0.0,0.0,0.0,0.0,0.0,0.0,0.0,0.0,0.0,0.0,0.0,0.0,0.0,0.0,0.0,0.0,0.0,0.0,0.0,0.0,0.0,0.0,0.0,0.0,0.0,0.0,0.0,0.0,0.0,0.0,0.0,0.0,0.0,0.0,0.0,0.0,0.0,0.0,0.0,0.0,0.0,0.0,0.0,0.0,0.0,0.0,0.0,0.0,0.0,0.0,0.0,0.0,0.0,0.0,0.0,0.0,0.0,0.0,0.0,0.0,0.0,0.0,0.0,0.0,0.0,0.0,0.0,0.0,0.0,0.0,0.0,0.0,0.0,0.0,0.0,0.0,0.0,0.0,0.0,0.0,0.0,0.0,0.0,0.0,0.0,0.0,0.0,0.0,0.0,0.0,0.0,0.0,0.0,0.0,0.0,0.0,0.0,0.0,0.0,0.0,0.0,0.0,0.0,0.0,0.0,0.0,0.0,0.0,0.0,0.0,0.0,0.0,0.0,0.0,0.0,0.0,0.0,0.0,0.0,0.0,0.0,0.0,0.0,0.0,0.0,0.0,0.0,0.0,0.0,0.0,0.0,0.0,0.0,0.0,0.0,0.0,0.0,0.0,0.0,0.0,0.0,0.0,0.0,0.0,0.0,0.0,0.0,0.0,0.0,0.0,0.0,0.0,0.0,0.0,0.0,0.0,0.0,0.0,0.0,0.0,0.0,0.0,0.0,0.0,0.0,0.0,0.0,0.0,0.0,0.0,0.0,0.0,0.0,0.0,0.0,0.0,0.0,0.0,0.0,0.0,0.0,0.0,0.0,0.0,0.0,0.0,0.0,0.0,0.0,0.0,0.0,0.0,0.0,0.0,0.0,0.0,0.0,0.0,0.0,0.0,0.0,0.0,0.0,0.0,0.0,0.0,0.0,0.0,0.0,0.0,0.0,0.0,0.0,0.0,0.0,0.0,0.0,0.0,0.0,0.0,0.0,0.0,0.0,0.0,0.0,0.0,0.0,0.0,0.0,0.0,0.0,0.0,0.0,0.0,0.0,0.0,0.0,0.0,0.0,0.0,0.0,0.0,0.0,0.0,0.0,0.0,0.0,0.0,0.0,0.0,0.0,0.0,0.0,0.0,0.0,0.0,0.0,0.0,0.0,0.0,0.0,0.0,0.0,0.0,0.0,0.0,0.0,0.0,0.0,0.0,0.0,0.0,0.0,0.0,0.0,0.0,0.0,0.0,0.0,0.0,0.0,0.0,0.0,0.0,0.0,0.0,0.0,0.0,0.0,0.0,0.0,0.0,0.0,0.0,0.0,0.0,0.0,0.0,0.0,0.0,0.0,0.0,0.0,0.0,0.0,0.0,0.0,0.0,0.0,0.0,0.0,0.0,0.0,0.0,0.0,0.0,0.0,0.0,0.0,0.0,0.0,0.0,0.0,0.0,0.0,0.0,0.0,0.0,0.0,0.0,0.0,0.0,0.0,0.0,0.0,0.0,0.0,0.0,0.0,0.0,0.0,0.0,0.0,0.0,0.0,0.0,0.0,0.0,0.0,0.0,0.0,0.0,0.0,0.0,0.0,0.0,0.0,0.0,0.0,0.0,0.0,0.0,0.0,0.0,0.0,0.0,0.0,0.0,0.0,0.0,0.0,0.0,0.0,0.0,0.0,0.0,0.0,0.0,0.0,0.0,0.0,0.0,0.0,0.0,0.0,0.0,0.0,0.0,0.0,0.0,0.0,0.0,0.0,0.0,0.0,0.0,0.0,0.0,0.0,0.0,0.0,0.0,0.0,0.0,0.0,0.0,0.0,0.0,0.0,0.0,0.0,0.0,0.0,0.0,0.0,0.0,0.0,0.0,0.0,0.0,0.0,0.0,0.0,0.0,0.0,0.0,0.0,0.0,0.0,0.0,0.0,0.0,0.0,0.0,0.0,0.0,0.0,0.0,0.0,0.0,0.0,0.0,0.0,0.0,0.0,0.0,0.0,0.0,0.0,0.0,0.0,0.0,0.0,0.0,0.0,0.0,0.0,0.0,0.0,0.0,0.0,0.0,0.0,0.0,0.0,0.0,0.0,0.0,0.0,0.0,0.0,0.0,0.0,0.0,0.0,0.0,0.0,0.0,0.0,0.0,0.0,0.0,0.0,0.0,0.0,0.0,0.0,0.0,0.0,0.0,0.0,0.0,0.0,0.0,0.0,0.0,0.0,0.0,0.0,0.0,0.0,0.0,0.0,0.0,0.0,0.0,0.0,0.0,0.0,0.0,0.0,0.0,0.0,0.0,0.0,0.0,0.0,0.0,0.0,0.0,0.0,0.0,0.0,0.0,0.0,0.0,0.0,0.0,0.0,0.0,0.0,0.0,0.0,0.0,0.0,0.0,0.0,0.0,0.0,0.0,0.0,0.0,0.0,0.0,0.0,0.0,0.0,0.0,0.0,0.0,0.0,0.0,0.0,0.0,0.0,0.0,0.0,0.0,0.0,0.0,0.0,0.0,0.0,0.0,0.0,0.0,0.0,0.0,0.0,0.0,0.0,0.0,0.0,0.0,0.0,0.0,0.0,0.0,0.0,0.0,0.0,0.0,0.0,0.0,0.0,0.0,0.0,0.0,0.0,0.0,0.0,0.0,0.0,0.0,0.0,0.0,0.0,0.0,0.0,0.0,0.0,0.0,0.0,0.0,0.0,0.0,0.0,0.0,0.0,0.0,0.0,0.0,0.0,0.0,0.0,0.0,0.0,0.0,0.0,0.0,0.0,0.0,0.0,0.0,0.0,0.0,0.0,0.0,0.0,0.0,0.0,0.0,0.0,0.0,0.0,0.0,0.0,0.0,0.0,0.0,0.0,0.0,0.0,0.0,0.0,0.0,0.0,0.0,0.0,0.0,0.0,0.0,0.0,0.0,0.0,0.0,0.0,0.0,0.0,0.0,0.0,0.0,0.0,0.0,0.0,0.0,0.0,0.0,0.0,0.0,0.0,0.0,0.0,0.0,0.0,0.0,0.0,0.0,0.0,0.0,0.0,0.0,0.0,0.0,0.0,0.0,0.0,0.0,0.0,0.0,0.0,0.0,0.0,0.0,0.0,0.0,0.0,0.0,0.0,0.0,0.0,0.0,0.0,0.0,0.0,0.0,0.0,0.0,0.0,0.0,0.0,0.0,0.0,0.0,0.0,0.0,0.0,0.0,0.0,0.0,0.0,0.0,0.0,0.0,0.0,0.0,0.0,0.0,0.0,0.0,0.0,0.0,0.0,0.0,0.0,0.0,0.0,0.0,0.0,0.0,0.0,0.0,0.0,0.0,0.0,0.0,0.0,0.0,0.0,0.0,0.0,0.0,0.0,0.0,0.0,0.0,0.0,0.0,0.0,0.0,0.0,0.0,0.0,0.0,0.0,0.0,0.0,0.0,0.0,0.0,0.0,0.0,0.0,0.0,0.0,0.0,0.0,0.0,0.0,0.0,0.0,0.0,0.0,0.0,0.0,0.0,0.0,0.0,0.0,0.0,0.0,0.0,0.0,0.0,0.0,0.0,0.0,0.0,0.0,0.0,0.0,0.0,0.0,0.0,0.0,0.0,0.0,0.0,0.0,0.0,0.0,0.0,0.0,0.0,0.0,0.0,0.0,0.0,0.0,0.0,0.0,0.0,0.0,0.0,0.0,0.0,0.0,0.0,0.0,0.0,0.0,0.0,0.0,0.0,0.0,0.0,0.0,0.0,0.0,0.0,0.0,0.0,0.0,0.0,0.0,0.0,0.0,0.0,0.0,0.0,0.0,0.0,0.0,0.0,0.0,0.0,0.0,0.0,0.0,0.0,0.0,0.0,0.0,0.0,0.0,0.0,0.0,0.0,0.0,0.0,0.0,0.0,0.0,0.0,0.0,0.0,0.0,0.0,0.0,0.0,0.0,0.0,0.0,0.0,0.0,0.0,0.0,0.0,7.7724,0.0,0.0,0.0,0.0,0.0,0.0,0.0,0.0,0.0,0.0,0.0,0.0,0.0,0.0,0.0,0.0,0.0,0.0,0.0,0.0,0.0,0.0,0.0,0.0,0.0,0.0,0.0,0.0,0.0,0.0,0.0,0.0,0.0,0.0,0.0,0.0,0.0,0.0,0.0,0.0,0.0,0.0,0.0,0.0,0.0,0.0,0.0,0.0,0.0,0.0,0.0,0.0,0.0,0.0,0.0,0.0,0.0,0.0,0.0,0.0,0.0,0.0,0.0,0.0,0.0,0.0,0.0,0.0,0.0,0.0,0.0,0.0,0.0,0.0,0.0,0.0,0.0,0.0,0.0,0.0,0.0,0.0,0.0,0.0,0.0,0.0,0.0,0.0,0.0,0.0,0.0,0.0,0.0,0.0,0.0,0.0,0.0,0.0,0.0,0.0,0.0,0.0,0.0,0.0,0.0,0.0,0.0,0.0,0.0,0.0,0.0,0.0,0.0,0.0,0.0,0.0,7.9462,0.0,0.0,0.0,0.0,0.0,0.0,0.0,0.0,0.0,0.0,0.0,0.0,0.0,0.0,0.0,0.0,0.0,0.0,0.0,0.0,0.0,0.0,0.0,0.0,0.0,0.0,0.0,0.0,0.0,0.0,0.0,0.0,0.0,0.0,0.0,0.0,0.0,0.0,0.0,0.0,0.0,0.0,0.0,0.0,0.0,0.0,0.0,0.0,0.0,0.0,0.0,0.0,0.0,0.0,0.0,0.0,0.0,0.0,0.0,0.0,0.0,0.0,0.0,0.0,0.0,0.0,0.0,0.0,0.0,0.0,0.0,0.0,0.0,0.0,0.0,0.0,0.0,0.0,0.0,0.0,0.0,0.0,0.0,0.0,0.0,0.0,0.0,0.0,0.0,0.0,0.0,0.0,0.0,0.0,0.0,0.0,0.0,0.0,0.0,0.0,0.0,0.0,0.0,0.0,0.0,0.0,0.0,0.0,0.0,0.0,8.7358,8.7358,8.8155,8.9241,8.533,8.3012,8.1998,0.0,0.0,0.0,0.0,0.0,0.0,0.0,0.0,0.0,0.0,0.0,0.0,0.0,0.0,0.0,0.0,0.0,0.0,0.0,0.0,0.0,0.0,0.0,0.0,0.0,0.0,0.0,0.0,0.0,0.0,0.0,0.0,0.0,0.0,0.0,0.0,0.0,0.0,0.0,9.1041,9.1875,9.286,9.3567,8.5545,0.0,0.0,0.0,0.0,0.0,0.0,0.0,0.0,0.0,0.0,0.0,0.0,0.0,0.0,0.0,0.0,0.0,0.0,0.0,0.0,0.0,0.0,0.0,0.0,0.0,0.0,0.0,0.0,0.0,0.0,0.0,0.0,0.0,0.0,0.0,0.0,0.0,0.0,0.0,0.0,0.0,0.0,0.0,7.569,7.5189,0.0,0.0,0.0,0.0,0.0,0.0,0.0,0.0,0.0,0.0,0.0,0.0,0.0,0.0,8.4243,8.6851,8.83,8.8662,9.0762,9.2211,9.3153,9.3153,9.3587,9.4384,9.3805,0.0,8.6054,8.3809,0.0,0.0,0.0,0.0,0.0,0.0,0.0,0.0,0.0,0.0,0.0,0.0,0.0,0.0,0.0,0.0,0.0,0.0,0.0,0.0,0.0,0.0,0.0,0.0,0.0,0.0,0.0,0.0,0.0,0.0,0.0,0.0,0.0,0.0,0.0,0.0,8.9377,9.3411,9.7001,9.8372,9.9412,9.9896,9.5437,9.1621,8.8142,8.4335,0.0,0.0,0.0,0.0,0.0,0.0,0.0,0.0,0.0,0.0,0.0,0.0,0.0,0.0,0.0,0.0,0.0,0.0,0.0,0.0,0.0,0.0,0.0,0.0,0.0,0.0,0.0,0.0,0.0,0.0,0.0,0.0,0.0,0.0,0.0,0.0,0.0,0.0,0.0,7.627,7.7937,7.6772,7.8372,7.8883,0.0,0.0,0.0,0.0,0.0,0.0,0.0,0.0,0.0,8.504,8.6199,8.7865,9.0038,9.1849,9.3443,9.4819,9.5905,9.7064,9.8223,9.7789,9.8006,9.873,9.8296,9.6412,9.337,8.8227,8.5257,8.3519,0.0,0.0,0.0,0.0,0.0,0.0,0.0,0.0,0.0,0.0,0.0,0.0,0.0,0.0,0.0,0.0,0.0,0.0,0.0,0.0,0.0,8.1912,0.0,0.0,0.0,0.0,0.0,0.0,0.0,0.0,0.0,0.0,0.0,0.0,9.5311,9.921,10.2935,10.4769,10.5991,10.6373,10.5303,10.0451,9.2955,8.8747,8.6177,0.0,0.0,0.0,0.0,0.0,0.0,0.0,0.0,0.0,0.0,0.0,0.0,0.0,0.0,0.0,0.0,0.0,0.0,0.0,0.0,0.0,0.0,0.0,0.0,0.0,0.0,0.0,0.0,0.0,0.0,0.0,0.0,0.0,0.0,0.0,0.0,0.0,0.0,7.801,8.004,7.8,8.0402,8.1201,0.0,0.0,0.0,0.0,0.0,0.0,8.3157,8.533,8.7648,8.9966,9.1414,9.3298,9.5688,9.6919,9.8513,10.0541,10.0686,10.1628,10.2932,10.228,10.2352,10.2932,10.2135,10.1121,9.9672,9.308,8.9169,8.7068,8.3881,0.0,0.0,0.0,8.2432,8.3012,0.0,0.0,0.0,0.0,0.0,0.0,0.0,0.0,0.0,0.0,0.0,0.0,0.0,0.0,8.6808,8.8504,8.8938,8.8938,0.0,0.0,0.0,0.0,0.0,0.0,0.0,0.0,0.0,9.5819,10.1165,10.556,10.9048,11.1493,11.348,11.5008,11.3404,10.8895,10.2123,9.498,9.1898,9.1166,0.0,0.0,0.0,0.0,0.0,0.0,0.0,0.0,0.0,0.0,0.0,0.0,0.0,0.0,0.0,0.0,0.0,0.0,0.0,0.0,0.0,0.0,0.0,0.0,0.0,0.0,0.0,0.0,0.0,0.0,0.0,0.0,0.0,0.0,0.0,0.0,0.0,0.0,0.0,7.7941,8.2287,0.0,0.0,0.0,0.0,8.3084,8.533,8.7285,8.8879,9.2646,9.4891,9.5036,9.8006,9.9744,9.9889,10.2135,10.3728,10.4598,10.5394,10.6191,10.6988,10.6988,10.6988,10.6988,10.6191,10.4887,10.3077,9.8151,9.4312,9.1414,9.0473,8.9169,8.7793,8.7793,8.7865,8.7865,0.0,0.0,0.0,0.0,0.0,0.0,0.0,0.0,0.0,0.0,0.0,0.0,0.0,8.8683,9.2439,9.5314,9.8117,9.8092,9.4198,0.0,0.0,0.0,0.0,0.0,0.0,0.0,9.7059,10.3884,10.8004,11.2105,11.5926,11.7377,11.8371,11.8982,11.8371,11.6231,11.241,10.3705,9.8192,9.4715,8.907,8.487,0.0,0.0,0.0,0.0,0.0,0.0,0.0,0.0,0.0,0.0,0.0,0.0,0.0,0.0,0.0,0.0,0.0,0.0,0.0,0.0,0.0,0.0,0.0,0.0,0.0,0.0,0.0,0.0,0.0,0.0,0.0,0.0,0.0,0.0,0.0,0.0,0.0,8.4605,8.8879,0.0,0.0,8.7435,8.7801,8.8734,9.0347,9.2097,9.3877,9.6509,9.9049,10.141,10.3077,10.4525,10.5467,10.7423,10.8219,10.8002,10.8799,10.9306,10.9596,10.8509,10.8075,10.8002,10.7205,10.6336,10.5105,10.3439,9.9962,9.5471,9.366,9.2573,9.2066,9.2066,9.2066,9.2139,0.0,0.0,0.0,0.0,0.0,0.0,0.0,0.0,0.0,0.0,0.0,8.3345,8.8257,9.4254,9.9198,10.2429,10.4892,10.4418,10.0113,0.0,0.0,0.0,0.0,0.0,0.0,9.7665,10.3325,10.9889,11.348,11.6919,11.9976,12.0816,12.1428,12.158,12.158,12.1198,11.9899,11.2869,10.6373,10.0213,9.4439,9.0599,8.763,0.0,0.0,0.0,0.0,0.0,0.0,0.0,0.0,0.0,0.0,0.0,0.0,0.0,0.0,0.0,0.0,0.0,0.0,0.0,0.0,0.0,0.0,0.0,0.0,0.0,0.0,0.0,0.0,0.0,0.0,0.0,0.0,0.0,0.0,0.0,9.011,8.9893,9.4312,9.634,9.366,9.3389,9.376,9.4529,9.6167,9.7912,9.9672,10.2024,10.4418,10.6771,10.7712,10.8582,10.9668,11.0972,11.1334,11.0465,11.1334,11.1624,11.1262,11.0175,10.9596,10.9306,10.8509,10.7712,10.6916,10.6626,10.4308,10.0686,9.8078,9.6702,9.6268,9.6268,9.6268,9.6268,0.0,0.0,0.0,0.0,0.0,0.0,0.0,0.0,0.0,0.0,8.12,8.7264,9.0372,9.9852,10.6979,10.9855,10.8442,10.709,10.6321,9.5306,0.0,0.0,0.0,0.0,9.6299,10.4341,11.0118,11.348,11.7607,12.0128,12.1122,12.181,12.2574,12.3491,12.3491,12.3873,12.4484,12.2039,11.6308,10.8131,10.0413,9.7277,9.6299,0.0,0.0,0.0,0.0,0.0,0.0,0.0,0.0,0.0,0.0,0.0,0.0,0.0,0.0,0.0,0.0,0.0,0.0,0.0,0.0,0.0,0.0,0.0,0.0,0.0,0.0,0.0,0.0,0.0,0.0,0.0,0.0,0.0,8.265,8.9386,9.4167,9.3443,9.8296,10.0396,9.7282,9.7973,9.9135,10.0469,10.2822,10.4945,10.6264,10.9306,11.0972,11.1117,11.1914,11.2276,11.2276,11.3073,11.3073,11.2276,11.3073,11.3073,11.2276,11.2276,11.1841,11.0972,11.0175,10.9378,10.8509,10.7712,10.735,10.6988,10.3873,10.1773,10.0396,10.0396,10.0324,10.0179,0.0,0.0,0.0,0.0,0.0,0.0,0.0,0.0,0.0,0.0,8.2751,9.0557,9.689,10.4317,11.079,11.5579,11.3327,11.0267,10.7292,0.0,0.0,0.0,0.0,0.0,10.495,10.9475,11.4703,12.0511,12.2268,12.4179,12.6242,12.6471,12.67,12.693,12.693,12.7006,12.7235,12.5936,12.372,11.9976,10.943,10.2581,9.8163,0.0,0.0,0.0,0.0,0.0,0.0,0.0,0.0,0.0,0.0,0.0,0.0,0.0,0.0,0.0,0.0,0.0,0.0,0.0,0.0,0.0,0.0,0.0,0.0,0.0,0.0,0.0,0.0,0.0,0.0,0.0,0.0,8.8589,8.8372,9.4239,9.9093,10.0614,10.467,10.7061,10.6191,10.6937,10.7807,10.8799,10.957,11.0537,11.1262,11.2908,11.4214,11.5173,11.597,11.6187,11.5608,11.6912,11.6912,11.5608,11.6912,11.7491,11.7202,11.6695,11.568,11.4304,11.3507,11.1696,10.9378,10.9089,10.8364,10.7205,10.5684,10.4887,10.438,10.3801,10.3221,10.2497,0.0,0.0,0.0,0.0,0.0,0.0,0.0,0.0,0.0,0.0,8.4933,9.3435,10.0394,10.7589,11.3775,11.8492,11.4606,11.0199,10.6165,0.0,0.0,0.0,0.0,10.4702,11.091,11.5151,11.967,12.4331,12.5478,12.6777,12.8305,12.8305,12.8534,12.8764,12.8764,12.8993,12.9299,12.8458,12.7617,12.6165,11.8218,11.2105,10.7011,9.9442,9.6274,9.5262,9.0427,8.9498,8.9739,8.5238,0.0,0.0,0.0,0.0,0.0,0.0,0.0,0.0,0.0,0.0,0.0,0.0,0.0,0.0,0.0,0.0,0.0,0.0,0.0,0.0,0.0,0.0,0.0,0.0,9.1342,9.5181,9.6847,10.0614,10.4236,10.6916,11.0175,11.2203,11.2203,11.3027,11.368,11.4087,11.4577,11.504,11.5318,11.6145,11.716,11.8288,11.8505,11.8505,11.8433,11.9302,11.9085,11.7926,11.9085,11.952,11.923,11.8795,11.7491,0.0,11.5173,11.3362,11.0682,11.0682,11.003,0.0,0.0,0.0,0.0,0.0,0.0,10.4018,0.0,0.0,0.0,0.0,0.0,0.0,0.0,0.0,0.0,0.0,0.0,9.5774,10.1446,10.935,11.5494,11.8948,11.3331,10.7887,0.0,0.0,0.0,9.7431,10.5158,11.1499,11.5696,12.0969,12.4561,12.6471,12.7923,12.8687,12.8916,12.8916,12.9299,12.9986,12.9986,13.0368,13.098,13.0216,12.9528,12.8611,12.6013,12.2803,11.8468,10.7789,10.4964,10.5897,9.8932,9.4833,9.2356,9.0204,0.0,0.0,0.0,0.0,0.0,0.0,0.0,0.0,0.0,0.0,0.0,0.0,0.0,0.0,0.0,0.0,0.0,0.0,0.0,0.0,0.0,0.0,0.0,0.0,9.6992,10.2425,10.6626,10.8002,10.9596,11.2203,11.4594,11.6115,11.6115,11.6972,11.7552,11.7564,11.8278,11.8641,0.0,0.0,0.0,0.0,0.0,12.0027,12.0678,12.0823,12.0389,11.9592,12.0389,12.0389,11.9737,11.9737,11.8505,11.6405,11.6187,11.4666,11.2493,11.2276,11.1696,11.0682,10.8292,10.735,10.7133,10.6409,10.5612,0.0,0.0,0.0,0.0,0.0,0.0,0.0,0.0,0.0,0.0,7.9187,8.7941,9.5433,9.984,10.6546,11.2348,11.6243,11.0635,10.5652,0.0,0.0,10.1466,10.791,11.285,11.7955,12.3491,12.5401,12.777,13.0903,13.0521,13.098,13.2279,13.2279,13.2432,13.2585,13.2585,13.2661,13.2814,13.1973,13.1897,13.2126,12.8916,12.4714,11.9899,11.429,11.1618,11.0244,10.5409,10.4681,10.5166,9.9492,9.7657,9.6755,9.1395,0.0,0.0,0.0,0.0,0.0,0.0,0.0,0.0,0.0,0.0,0.0,0.0,0.0,0.0,0.0,0.0,0.0,0.0,0.0,0.0,9.8223,10.3004,10.7785,11.3073,11.5608,11.6405,11.5173,11.7129,11.8505,11.8505,11.9302,12.0244,12.162,12.1186,12.122,12.191,12.1982,0.0,12.2272,12.2779,12.2779,12.2272,12.2996,12.2924,12.2127,0.0,0.0,12.3069,12.3069,12.2127,12.0389,11.9085,11.7202,11.4884,11.358,11.2203,11.0682,10.9016,10.7495,10.6336,10.6191,10.5612,10.4887,0.0,0.0,0.0,0.0,0.0,0.0,0.0,0.0,0.0,0.0,8.6343,9.2865,9.7342,10.1722,10.5484,10.8699,10.3505,0.0,0.0,10.2412,10.7092,11.4983,11.9634,12.4026,12.8229,12.9222,13.0598,13.2661,13.2279,13.2508,13.3272,13.3272,13.3502,13.396,13.396,13.4189,13.4495,13.3731,13.3578,13.3807,13.1668,12.9069,12.5936,12.1275,11.8677,11.7225,11.3786,11.1938,11.0327,10.5859,10.2963,10.0681,9.6764,9.2793,8.9057,0.0,0.0,0.0,0.0,0.0,0.0,0.0,0.0,0.0,0.0,0.0,0.0,0.0,0.0,8.6489,0.0,0.0,9.8441,10.4018,10.8582,11.2928,11.6912,11.952,12.0389,11.8795,12.0389,12.1837,12.22,12.2924,12.3721,12.4518,12.4228,12.4011,12.4011,12.4373,12.4373,12.4011,12.4373,12.4373,12.4011,12.4011,12.3793,12.3431,12.3793,12.4011,12.4011,12.4011,12.3069,12.1475,12.0316,11.8723,11.6695,11.4304,11.2638,11.1334,10.9668,10.8075,10.6698,10.6698,10.5902,10.4887,0.0,0.0,0.0,0.0,0.0,0.0,0.0,0.0,0.0,0.0,0.0,8.9493,9.3675,9.5809,9.75,0.0,0.0,0.0,0.0,10.5765,11.2794,12.0893,12.5631,12.9222,13.1668,13.2508,13.3196,13.396,13.3884,13.3807,13.3807,13.3807,13.4189,13.4877,13.503,13.5488,13.61,13.5412,13.5183,13.5183,13.396,13.3196,13.2126,12.7694,12.519,12.3698,12.1027,11.689,11.2581,11.048,10.6697,10.2705,10.1604,9.8809,9.5061,9.0664,8.898,0.0,0.0,0.0,0.0,0.0,0.0,0.0,0.0,0.0,8.4171,8.7503,8.9603,9.2356,9.7499,10.1555,10.5467,10.9306,11.3797,11.7564,11.9592,12.1982,12.3286,12.2779,12.3793,12.4735,12.5387,12.6039,12.6473,12.6618,12.6546,12.6184,12.5677,12.6039,12.5894,12.5387,12.5097,12.5097,12.5387,12.4518,12.4083,12.4228,12.3938,12.3793,12.3793,12.3576,12.2779,12.1475,12.0606,11.923,11.7419,11.4666,11.3,11.1986,11.0465,10.8871,10.7495,10.7423,10.6409,10.5105,0.0,0.0,0.0,0.0,0.0,0.0,0.0,0.0,0.0,0.0,0.0,0.0,0.0,0.0,0.0,0.0,0.0,0.0,10.399,11.1653,11.9309,12.7006,12.9986,13.2737,13.5336,13.5412,13.587,13.6711,13.6023,13.5565,13.5565,13.5565,13.5718,13.5794,13.6482,13.6864,13.7017,13.6864,13.7322,13.7781,13.5412,13.4419,13.4113,13.1973,12.9309,12.6206,12.3011,11.8718,11.451,11.4213,11.1412,10.8064,10.8578,10.6009,10.1817,9.6655,0.0,8.7741,8.236,8.0621,8.0549,8.1635,8.2505,8.4171,0.0,0.0,9.1704,9.5688,9.8296,10.0976,10.438,10.7712,11.1117,11.4377,11.8288,12.1258,12.2272,12.4518,12.6184,12.6908,12.6473,12.6184,12.6329,12.6329,12.6691,12.7415,12.6836,12.6691,12.7343,12.6111,12.5604,12.6184,12.488,12.4807,12.6329,12.4807,12.4373,12.5025,12.3576,12.2924,12.2924,12.22,12.1765,12.1475,12.0027,11.8071,11.5898,11.4811,11.3507,11.1986,11.1117,10.9813,10.8292,10.764,10.6698,10.5902,0.0,0.0,0.0,0.0,0.0,0.0,0.0,0.0,0.0,0.0,0.0,0.0,0.0,0.0,0.0,0.0,0.0,0.0,10.3163,11.3839,12.3109,13.0216,13.2967,13.503,13.6558,13.7093,13.7475,13.7857,13.7017,13.6635,13.6635,13.6635,13.6635,13.6635,13.7475,13.7857,13.7857,13.7857,13.8087,13.8316,13.6711,13.5488,13.4419,13.2737,12.9125,12.4514,12.1751,11.7873,0.0,11.2505,11.0302,10.8358,11.012,10.7171,10.2385,9.9139,9.4744,0.0,8.6275,8.4678,8.446,0.0,8.772,9.0038,9.3877,9.5398,9.7427,10.228,10.4887,10.7495,11.1624,11.4594,11.6984,0.0,12.1693,12.4011,12.4807,12.5821,12.6184,12.5604,12.5604,12.6329,12.7705,12.7777,12.7922,12.8284,12.7995,12.7705,12.7632,12.7415,12.7198,12.7125,12.6401,12.6401,12.7125,12.6039,12.5314,12.517,12.5025,12.4228,12.2779,12.2924,12.22,12.0896,12.0244,11.8578,11.626,11.5463,11.4304,11.2711,11.1407,11.0465,10.9668,10.8509,10.7205,10.6119,0.0,0.0,0.0,0.0,0.0,0.0,0.0,0.0,0.0,0.0,0.0,0.0,0.0,0.0,0.0,0.0,0.0,0.0,0.0,11.3738,12.3927,13.1438,13.4419,13.6405,13.7399,13.8469,13.9004,13.8698,13.8087,13.7705,13.7475,13.7475,13.7475,13.7475,13.8392,13.8698,13.8698,13.9004,13.908,13.9004,13.7857,13.6482,13.4724,13.1787,12.7101,12.1653,11.9203,11.5027,11.0199,10.736,10.5539,10.474,10.7012,10.5095,10.156,9.9557,9.4948,9.0129,8.8589,0.0,0.0,9.1052,9.3732,9.6557,9.9962,10.17,10.4018,10.8944,11.1189,11.3507,11.7491,11.9882,12.1693,12.2489,12.4373,12.6111,12.6618,12.6329,12.5532,12.3866,12.3576,12.43,12.6329,12.7487,12.8284,12.8791,12.8791,12.8502,12.7995,12.8284,12.8284,12.7922,12.7487,12.7487,12.7922,12.6908,12.6184,12.5894,12.5821,12.4735,12.2779,12.2707,12.1693,12.0099,12.0099,11.8868,11.6767,11.597,11.4811,11.3145,11.1479,11.09,11.0682,10.9306,10.8002,10.6698,0.0,0.0,0.0,0.0,0.0,0.0,0.0,0.0,0.0,0.0,0.0,0.0,0.0,0.0,0.0,0.0,0.0,0.0,0.0,11.1198,12.1153,13.0445,13.4113,13.6711,13.8316,13.9997,14.0379,13.9615,13.9539,13.908,13.8392,13.8392,13.8392,13.8392,13.9233,13.9615,13.9615,14.0456,14.0761,14.0685,13.9004,13.7399,13.5196,12.9505,12.3618,11.8114,11.556,10.96,10.2321,9.8855,9.7086,9.6721,9.8481,9.9859,0.0,9.7861,9.1872,0.0,0.0,0.0,9.0618,9.6195,9.9962,10.3294,10.7278,11.003,11.2638,11.5898,11.7781,11.9447,12.1113,12.2779,12.4228,12.5025,12.6473,12.7487,12.7632,12.6184,12.459,12.2996,12.0823,11.9737,0.0,12.4228,12.7125,12.8719,12.8791,12.8791,12.8791,12.7995,12.7995,12.8719,12.727,12.7198,12.8719,12.7198,12.6836,12.7487,12.517,12.3576,12.2707,12.0389,11.9302,11.923,11.923,11.8288,11.6767,11.597,11.4811,11.3145,11.1479,11.09,11.0827,10.9958,10.9089,10.8219,0.0,0.0,0.0,0.0,0.0,0.0,0.0,0.0,0.0,0.0,0.0,0.0,0.0,0.0,0.0,0.0,0.0,0.0,0.0,10.7698,11.7534,12.3877,13.0642,13.503,13.6711,13.8392,13.9615,14.0456,13.9921,13.9539,13.9233,13.9233,13.9233,13.9233,14.0073,14.0456,14.0532,14.0761,14.122,14.1525,13.8087,13.6405,13.5043,12.6788,11.9052,11.1788,0.0,10.0165,9.6179,9.2789,0.0,0.0,9.3655,0.0,0.0,8.8023,0.0,0.0,0.0,0.0,9.931,10.438,10.7712,11.061,11.4087,11.5463,11.6767,11.952,11.8795,11.7998,11.9085,12.0606,12.1693,12.1982,12.5604,12.8212,12.7705,12.7125,12.4807,11.952,11.9085,0.0,0.0,0.0,0.0,12.698,12.7705,12.8212,12.8791,12.8502,12.8502,12.8791,12.8284,12.8284,12.8791,12.8284,12.7922,12.7632,12.459,12.3069,12.2707,12.0316,11.923,11.923,11.923,11.8578,11.7564,11.6767,11.5898,11.4666,11.2493,11.1696,11.1479,11.0175,10.9523,10.9089,0.0,0.0,0.0,0.0,0.0,0.0,0.0,0.0,0.0,0.0,0.0,0.0,0.0,0.0,0.0,0.0,0.0,0.0,0.0,10.1425,11.0036,11.6499,12.2176,12.6539,12.9134,12.9657,13.1178,13.3763,13.4043,13.5014,13.6462,13.7346,13.801,13.8316,13.8927,13.908,13.908,13.908,13.8186,13.6605,13.3184,13.0082,12.6615,11.8092,11.0395,0.0,9.514,9.0585,8.8083,8.5917,0.0,0.0,0.0,0.0,0.0,0.0,0.0,0.0,0.0,10.1483,10.6409,11.1769,11.4521,11.6695,11.9882,12.0389,12.0461,12.1403,11.9085,11.6912,11.6767,11.6695,11.6984,11.8505,12.1475,12.4228,12.5677,12.4735,12.22,11.7781,11.7202,11.6405,0.0,0.0,0.0,12.5604,12.6691,12.7632,12.8719,12.8791,12.8791,12.8791,12.8791,12.8791,12.8791,12.8502,12.7777,12.6691,12.4373,12.2924,12.2272,12.0171,11.923,11.923,11.923,11.8795,11.7998,11.7202,11.6405,11.5463,11.3362,11.2421,11.1914,11.061,10.9886,10.9596,0.0,0.0,0.0,0.0,0.0,0.0,0.0,0.0,0.0,0.0,0.0,0.0,0.0,0.0,0.0,0.0,0.0,0.0,0.0,9.2769,9.9415,10.8311,10.9875,11.2502,11.6406,11.5201,11.655,12.0607,12.2991,12.6358,13.0302,13.265,13.4203,13.498,13.5043,13.5043,13.498,13.498,13.1823,12.6569,12.4614,11.906,11.1359,10.4464,9.8386,9.2479,8.5988,8.1559,7.8666,0.0,0.0,0.0,0.0,0.0,0.0,0.0,0.0,9.7209,10.3584,10.7785,11.1769,11.7998,12.0099,12.162,12.459,12.459,12.3431,12.1693,11.8723,11.5898,0.0,0.0,11.09,11.4811,11.5173,11.6912,12.2272,11.9809,11.7564,0.0,0.0,0.0,0.0,0.0,0.0,12.4735,0.0,12.698,12.8719,12.8791,12.8791,12.8791,12.8791,12.8791,12.8719,12.7922,12.6836,12.517,12.43,12.3069,12.162,12.0027,11.923,11.9302,11.923,11.8795,11.8071,11.7202,11.6477,11.5608,11.3942,11.2783,11.2131,11.1189,11.0393,10.9668,0.0,0.0,0.0,0.0,0.0,0.0,0.0,0.0,0.0,0.0,0.0,0.0,0.0,0.0,0.0,0.0,0.0,0.0,0.0,8.7415,9.2677,9.7409,10.3687,10.8517,11.1376,11.2802,11.475,11.7078,11.7672,11.8873,12.0604,12.1415,12.2014,12.2627,12.2845,12.2845,12.2627,12.2627,12.0745,11.7583,11.4575,11.1118,10.6932,9.9411,9.4244,9.0113,8.4678,8.062,7.7869,0.0,0.0,0.0,0.0,8.5547,8.8444,0.0,0.0,10.3004,10.9378,11.4811,11.9375,12.2779,12.4735,12.5821,12.6039,12.4518,12.22,11.8795,11.358,10.8727,0.0,0.0,0.0,11.1769,11.7926,0.0,12.6039,12.5532,0.0,12.0244,0.0,11.8868,11.7274,11.8433,0.0,0.0,12.4807,12.5821,12.8646,12.8791,12.8791,12.8791,12.8791,12.8502,12.7922,12.7125,12.6184,12.517,12.3793,12.2924,12.2417,12.0244,11.952,12.0099,11.952,11.9085,11.8795,11.7491,11.6767,11.6405,11.4232,11.3218,11.2783,11.1407,11.1117,11.1262,0.0,0.0,0.0,0.0,0.0,0.0,0.0,0.0,0.0,0.0,0.0,0.0,0.0,0.0,0.0,0.0,0.0,0.0,0.0,8.2262,8.5747,8.8979,9.2853,9.631,9.9127,10.0165,10.2092,10.4913,10.5952,10.7661,10.9975,11.055,11.1065,11.1671,11.1891,11.1891,11.1671,11.1671,10.9505,0.0,0.0,9.9836,9.5261,9.0508,8.7146,8.4651,8.1775,8.1128,0.0,0.0,0.0,8.6126,8.9531,9.1704,9.4384,10.1483,0.0,10.9813,11.5825,12.0823,12.459,12.6401,12.7198,12.6908,12.4373,12.191,11.8361,11.1914,10.6916,0.0,9.8006,0.0,0.0,0.0,0.0,0.0,12.488,12.517,12.4228,0.0,12.2417,0.0,12.0316,12.0896,12.2634,0.0,12.5025,12.5894,12.9154,12.9009,12.9009,12.9298,12.9009,12.8212,12.7125,12.6618,12.6039,12.517,12.43,12.3721,12.3286,12.1186,12.0316,12.0389,0.0,11.923,11.9085,11.7491,11.7057,11.7202,11.4811,11.4014,11.4159,11.2493,11.2203,11.2421,0.0,0.0,0.0,0.0,0.0,0.0,0.0,0.0,0.0,0.0,0.0,0.0,0.0,0.0,0.0,0.0,0.0,0.0,0.0,0.0,0.0,8.2577,8.1563,8.2287,8.5185,8.475,8.6275,8.9989,9.228,9.529,9.8836,9.9755,10.0601,10.1275,10.1275,10.1275,10.1275,10.1275,9.8113,9.3134,9.2257,8.7802,8.1702,0.0,7.9752,7.8738,7.881,8.207,0.0,0.0,9.0835,9.1052,9.663,9.9527,10.2425,11.0175,11.4014,11.6767,12.2127,12.5821,12.8212,12.8864,12.8429,12.6473,12.1548,11.8071,11.329,10.3873,0.0,9.6702,9.2139,9.4312,9.8441,10.3511,0.0,11.4594,12.2634,12.3069,12.3069,12.459,12.4807,12.4518,12.3793,12.3793,12.459,12.6691,12.6184,12.698,12.9661,12.9154,12.9081,12.9805,12.9154,12.7995,12.6401,12.6329,12.5894,12.517,12.5097,12.4735,12.4083,12.2417,12.1186,12.0534,0.0,0.0,11.9085,11.7709,11.7491,11.7926,11.5608,11.5101,11.5463,11.387,11.3435,11.329,0.0,0.0,0.0,0.0,0.0,0.0,0.0,0.0,0.0,0.0,0.0,0.0,0.0,0.0,0.0,0.0,0.0,0.0,0.0,0.0,0.0,0.0,7.9535,8.0694,8.1925,0.0,0.0,0.0,0.0,8.6792,8.7521,8.8545,8.8984,8.8984,8.913,8.913,8.8984,8.8984,8.6867,8.3516,8.33,8.0833,7.7357,7.7144,0.0,0.0,7.9462,0.0,0.0,0.0,9.7571,10.0976,10.5902,10.9016,11.2131,11.8795,12.0968,12.2272,12.6618,12.9081,13.0602,13.0675,12.9661,12.7198,12.1693,11.5536,0.0,0.0,9.5616,9.2211,8.9386,9.366,9.9817,10.6553,11.2783,11.9592,12.756,12.8067,12.7922,0.0,12.9009,12.8864,12.8791,0.0,0.0,0.0,0.0,0.0,12.9009,12.8864,12.8864,12.9009,12.8864,12.7995,12.6401,12.5749,12.5314,12.517,12.4518,12.4518,12.488,12.2634,12.1475,12.133,0.0,0.0,11.9085,11.8288,11.7998,11.7926,11.6187,11.5608,11.5463,11.387,11.3725,11.4087,0.0,0.0,0.0,0.0,0.0,0.0,0.0,0.0,0.0,0.0,0.0,0.0,0.0,0.0,0.0,0.0,0.0,0.0,0.0,0.0,0.0,0.0,0.0,0.0,0.0,0.0,0.0,0.0,0.0,0.0,0.0,0.0,0.0,0.0,0.0,0.0,8.1491,8.1056,8.0476,7.9825,7.939,7.8521,0.0,0.0,0.0,0.0,0.0,0.0,0.0,0.0,9.8513,10.6698,11.2711,11.597,11.8578,12.3793,12.5604,12.6618,12.9805,13.1761,13.2775,13.1979,12.9371,12.4807,11.6695,0.0,0.0,9.2863,8.9459,8.7503,8.5475,9.069,0.0,10.2062,10.8002,11.4884,12.3793,12.5025,12.6256,12.9588,13.0675,13.1109,0.0,0.0,0.0,0.0,0.0,0.0,0.0,12.9371,12.9371,12.9371,12.8574,12.7777,12.698,12.6184,12.5821,12.5821,12.5387,12.5242,12.5097,12.3069,12.1982,12.1475,0.0,0.0,0.0,11.8433,11.8288,11.8505,11.6912,11.6767,11.7274,11.5825,11.568,11.6115,0.0,0.0,0.0,0.0,0.0,0.0,0.0,0.0,0.0,0.0,0.0,0.0,0.0,0.0,0.0,0.0,0.0,0.0,0.0,0.0,0.0,0.0,0.0,0.0,0.0,0.0,0.0,0.0,0.0,0.0,0.0,0.0,0.0,0.0,0.0,0.0,0.0,0.0,7.7362,0.0,0.0,0.0,0.0,0.0,0.0,0.0,0.0,0.0,0.0,0.0,9.6847,10.6481,11.4232,11.9157,12.2815,12.5894,12.8252,13.0251,13.2268,13.4079,13.4922,13.3065,12.8791,12.2272,11.1986,10.4236,0.0,8.6706,8.4388,8.3809,8.2722,8.7575,9.3153,0.0,10.2207,10.8944,11.923,12.1475,12.4228,12.9805,13.1761,0.0,13.1761,13.1689,0.0,0.0,0.0,0.0,0.0,13.0095,13.0023,13.0023,12.8791,12.7922,12.7632,12.698,12.6618,12.6401,12.6401,12.6039,12.517,12.3721,12.2489,12.1475,0.0,0.0,0.0,11.8578,11.8723,11.9085,11.7709,11.7926,11.8795,11.7419,11.7274,11.7709,0.0,0.0,0.0,0.0,0.0,0.0,0.0,0.0,0.0,0.0,0.0,0.0,0.0,0.0,0.0,0.0,0.0,0.0,0.0,0.0,0.0,0.0,0.0,0.0,0.0,0.0,0.0,0.0,0.0,0.0,0.0,0.0,0.0,0.0,0.0,0.0,0.0,0.0,0.0,0.0,0.0,0.0,0.0,0.0,0.0,0.0,0.0,0.0,0.0,0.0,0.0,9.605,10.5394,11.5666,12.4191,12.4337,0.0,0.0,13.4125,13.5911,13.6682,13.4125,12.8791,12.162,11.1914,10.2497,0.0,8.6199,8.3519,8.265,8.3301,8.5692,0.0,0.0,0.0,10.7278,11.9664,12.2779,12.5894,13.1471,0.0,0.0,13.3427,13.3427,0.0,0.0,0.0,0.0,0.0,13.0385,13.0023,13.0023,12.9878,12.9081,12.7632,12.7487,12.7125,12.6401,12.6401,12.6039,12.517,12.43,12.3069,12.1548,0.0,0.0,0.0,11.9085,11.9085,11.9085,11.8288,11.8071,11.8071,11.7202,11.6912,11.6984,0.0,0.0,0.0,0.0,0.0,0.0,0.0,0.0,0.0,0.0,0.0,0.0,0.0,0.0,0.0,0.0,0.0,0.0,0.0,0.0,0.0,0.0,0.0,0.0,0.0,0.0,0.0,0.0,0.0,0.0,0.0,0.0,0.0,0.0,0.0,0.0,0.0,0.0,0.0,0.0,0.0,0.0,0.0,0.0,0.0,0.0,0.0,0.0,0.0,0.0,0.0,9.1921,9.3805,10.2604,11.3394,11.9407,12.5135,13.0481,13.4576,13.7263,13.8399,13.5956,12.847,11.9592,11.09,10.0759,9.1487,8.5257,8.2722,8.1853,8.265,8.3953,8.6561,9.1704,9.3298,9.7571,10.8002,11.1189,11.5825,12.4807,12.7922,0.0,0.0,0.0,0.0,0.0,0.0,0.0,0.0,0.0,13.0385,13.1399,13.0023,12.9226,12.9009,12.8139,12.7198,12.6401,12.5894,12.5314,12.4518,12.3576,12.2924,0.0,0.0,0.0,0.0,11.9447,11.923,11.923,11.8868,11.8795,11.8723,11.8433,11.7998,11.7564,0.0,0.0,0.0,0.0,0.0,0.0,0.0,0.0,0.0,0.0,0.0,0.0,0.0,0.0,0.0,0.0,0.0,0.0,0.0,0.0,0.0,0.0,0.0,0.0,0.0,0.0,0.0,0.0,0.0,0.0,0.0,0.0,0.0,0.0,0.0,0.0,0.0,0.0,0.0,0.0,0.0,0.0,0.0,0.0,0.0,0.0,0.0,0.0,0.0,0.0,0.0,8.7213,8.5909,9.1647,10.0878,11.1867,12.0341,12.7749,13.3207,13.7136,13.9291,13.6772,12.8403,11.8682,11.0393,10.0034,9.0545,8.4968,8.236,8.1273,8.1853,8.2794,8.446,8.743,8.8444,9.1994,10.0831,10.3946,10.8871,11.8723,0.0,0.0,0.0,0.0,0.0,0.0,0.0,0.0,0.0,0.0,13.0964,13.1689,13.0023,12.9226,12.9298,12.8212,12.7125,12.6039,12.5532,12.4807,12.4011,12.3431,12.2924,0.0,0.0,0.0,0.0,11.9447,11.923,11.923,11.923,11.923,11.923,11.923,11.8868,11.8288,0.0,0.0,0.0,0.0,0.0,0.0,0.0,0.0,0.0,0.0,0.0,0.0,0.0,0.0,0.0,0.0,0.0,0.0,0.0,0.0,0.0,0.0,0.0,0.0,0.0,0.0,0.0,0.0,0.0,0.0,0.0,0.0,0.0,0.0,0.0,0.0,0.0,0.0,0.0,0.0,0.0,0.0,0.0,0.0,0.0,0.0,0.0,0.0,0.0,0.0,0.0,0.0,0.0,8.533,8.8589,10.1338,11.4705,12.6231,12.9607,13.5004,13.8996,13.6087,12.8586,11.9718,11.0635,10.0469,9.1414,8.5837,8.2794,8.1128,8.1128,8.2432,8.4316,8.6706,8.9024,9.366,10.2425,10.5105,10.8509,0.0,0.0,0.0,0.0,0.0,0.0,0.0,0.0,0.0,0.0,0.0,13.1689,13.0095,13.0023,12.9226,12.7632,12.7632,12.6836,12.5242,12.517,12.4807,12.4011,12.4011,0.0,0.0,0.0,0.0,0.0,11.923,11.923,11.923,11.923,11.923,11.923,11.923,11.923,11.923,0.0,0.0,0.0,0.0,0.0,0.0,0.0,0.0,0.0,0.0,0.0,0.0,0.0,0.0,0.0,0.0,0.0,0.0,0.0,0.0,0.0,0.0,0.0,0.0,0.0,0.0,7.7362,7.8666,7.8376,7.91,0.0,0.0,0.0,0.0,0.0,0.0,0.0,0.0,0.0,0.0,0.0,0.0,0.0,0.0,0.0,0.0,0.0,0.0,0.0,0.0,0.0,0.0,0.0,0.0,0.0,9.1052,10.2055,11.3707,11.9166,12.3709,12.6219,12.3604,11.7799,11.107,10.438,9.6847,8.9966,8.4895,8.2794,8.178,8.1201,8.1998,8.3809,8.7285,8.8517,9.1125,9.7137,0.0,0.0,11.4087,0.0,0.0,0.0,0.0,0.0,0.0,0.0,0.0,0.0,0.0,0.0,13.1689,13.0602,12.9516,12.8429,12.7343,12.6184,12.517,12.459,12.4228,12.4011,0.0,0.0,0.0,0.0,0.0,0.0,12.0244,11.9737,11.923,11.923,11.923,11.923,11.923,11.8868,11.8433,0.0,0.0,0.0,0.0,0.0,0.0,0.0,0.0,0.0,0.0,0.0,0.0,0.0,0.0,0.0,0.0,0.0,0.0,0.0,0.0,0.0,0.0,0.0,0.0,0.0,7.6275,7.7362,7.9607,7.939,8.0404,8.2432,8.207,8.1128,0.0,0.0,0.0,0.0,0.0,0.0,0.0,0.0,0.0,0.0,0.0,0.0,0.0,0.0,0.0,0.0,0.0,0.0,0.0,0.0,0.0,0.0,0.0,9.2373,10.1183,11.0145,11.6137,11.9268,11.742,11.2813,10.7248,10.1483,9.5253,8.9314,0.0,0.0,8.207,8.1273,8.2215,8.3881,8.6054,8.743,8.9821,9.4312,0.0,0.0,0.0,0.0,0.0,0.0,0.0,0.0,0.0,0.0,0.0,0.0,0.0,0.0,13.1979,13.0964,12.9588,12.7922,12.6908,12.5821,12.4735,12.4228,12.4011,12.4011,0.0,0.0,0.0,0.0,0.0,0.0,12.0751,12.0099,11.9592,11.9302,11.923,11.923,11.923,11.894,11.8505,0.0,0.0,0.0,0.0,0.0,0.0,0.0,0.0,0.0,0.0,0.0,0.0,0.0,0.0,0.0,0.0,0.0,0.0,0.0,0.0,0.0,0.0,0.0,0.0,0.0,7.6348,7.7941,8.1128,8.1925,8.3157,8.4823,8.6271,8.446,8.0114,0.0,0.0,0.0,0.0,0.0,0.0,0.0,0.0,0.0,0.0,0.0,0.0,0.0,0.0,0.0,0.0,0.0,0.0,0.0,0.0,0.0,0.0,0.0,0.0,0.0,11.0332,11.5603,11.4583,11.1018,10.6198,10.063,9.4746,0.0,0.0,0.0,0.0,8.1418,8.3157,8.4533,8.4026,8.6416,8.9821,9.3877,9.9817,0.0,0.0,0.0,0.0,0.0,0.0,0.0,0.0,0.0,0.0,0.0,0.0,0.0,0.0,13.1109,12.9516,12.6401,12.6329,12.5532,12.4011,12.4011,12.4011,12.4011,0.0,0.0,0.0,0.0,0.0,0.0,12.0751,12.0389,12.0244,11.952,11.923,11.923,11.923,11.923,11.923,0.0,0.0,0.0,0.0,0.0,0.0,0.0,0.0,0.0,0.0,0.0,0.0,0.0,0.0,0.0,0.0,0.0,0.0,0.0,0.0,0.0,0.0,0.0,0.0,0.0,7.6927,7.8521,8.1128,8.1925,8.3446,8.5619,8.5402,8.3664,8.0911,8.207,8.1346,0.0,0.0,0.0,0.0,0.0,0.0,0.0,0.0,0.0,0.0,7.8014,0.0,0.0,0.0,0.0,0.0,0.0,0.0,0.0,0.0,8.3519,0.0,0.0,0.0,9.6727,9.5928,9.5265,9.425,0.0,8.9893,8.7865,0.0,0.0,0.0,0.0,8.3881,8.5402,8.7648,8.9169,9.1632,9.6268,0.0,0.0,0.0,0.0,0.0,0.0,0.0,0.0,0.0,0.0,0.0,0.0,0.0,0.0,0.0,13.0023,12.8429,12.6401,12.5821,12.5025,12.4011,12.4011,12.4011,0.0,0.0,0.0,0.0,0.0,0.0,0.0,12.0751,12.0027,11.952,11.9302,11.923,11.923,11.923,11.923,11.923,0.0,0.0,0.0,0.0,0.0,0.0,0.0,0.0,0.0,0.0,0.0,0.0,0.0,0.0,0.0,0.0,0.0,0.0,0.0,0.0,0.0,0.0,0.0,7.6275,7.6275,7.671,7.8303,8.1128,8.2287,8.4243,8.6996,8.7285,8.5764,8.265,8.0911,7.9607,0.0,0.0,0.0,0.0,0.0,0.0,0.0,0.0,0.0,0.0,7.8376,7.8666,0.0,8.1708,8.2722,8.2867,0.0,0.0,0.0,0.0,8.207,0.0,0.0,8.6996,9.1052,9.0618,9.0835,9.0762,8.9096,8.7648,8.5982,8.3953,0.0,0.0,0.0,0.0,8.6199,8.7575,8.9676,9.4022,0.0,0.0,0.0,0.0,0.0,0.0,0.0,0.0,0.0,0.0,0.0,0.0,0.0,0.0,0.0,0.0,0.0,12.7705,12.6401,12.5604,12.4807,12.4011,12.4011,12.4011,0.0,0.0,0.0,0.0,0.0,0.0,12.2127,12.133,12.0534,11.9737,11.9302,11.923,11.923,11.923,11.923,11.923,0.0,0.0,0.0,0.0,0.0,0.0,0.0,0.0,0.0,0.0,0.0,0.0,0.0,0.0,0.0,0.0,0.0,0.0,0.0,0.0,0.0,0.0,0.0,7.6348,7.6492,7.6565,7.8159,8.1273,8.3157,8.5547,8.8444,9.0183,8.8807,8.4678,8.0187,7.7941,0.0,0.0,0.0,0.0,0.0,0.0,0.0,0.0,0.0,0.0,0.0,0.0,0.0,8.3953,8.4968,8.4895,8.5837,0.0,0.0,0.0,0.0,0.0,8.1853,8.6778,9.1559,9.0618,0.0,0.0,8.9241,8.6996,8.504,8.4171,0.0,0.0,0.0,8.5982,0.0,8.6996,0.0,0.0,0.0,0.0,0.0,0.0,0.0,0.0,0.0,0.0,0.0,0.0,0.0,0.0,0.0,0.0,0.0,0.0,0.0,0.0,12.6401,12.5604,12.4807,12.4011,12.4011,12.4011,12.4011,0.0,0.0,0.0,0.0,0.0,12.2707,12.1765,12.1041,12.0316,11.952,11.923,11.923,11.923,11.923,11.923,0.0,0.0,0.0,0.0,0.0,0.0,0.0,0.0,0.0,0.0,0.0,0.0,0.0,0.0,0.0,0.0,0.0,0.0,0.0,0.0,0.0,7.6275,7.6275,7.6637,7.7289,7.8014,7.9535,8.2143,8.5112,8.743,8.9241,9.1559,9.0183,8.5619,8.2794,8.0042,7.7507,7.7507,7.7869,7.8521,0.0,0.0,0.0,0.0,0.0,0.0,0.0,0.0,0.0,8.1418,8.3084,8.4388,8.2577,0.0,0.0,0.0,0.0,0.0,8.5185,8.8879,9.0545,0.0,0.0,0.0,0.0,8.7068,8.743,8.6634,0.0,0.0,0.0,8.83,0.0,0.0,0.0,0.0,0.0,0.0,0.0,0.0,0.0,0.0,0.0,0.0,0.0,0.0,0.0,0.0,0.0,0.0,0.0,0.0,0.0,0.0,0.0,12.5604,12.4807,12.4011,12.4011,12.4011,12.4011,12.4011,0.0,0.0,0.0,0.0,12.2707,12.1186,12.0534,12.0316,11.952,11.923,11.923,11.923,11.923,11.923,0.0,0.0,0.0,0.0,0.0,0.0,0.0,0.0,0.0,0.0,0.0,0.0,0.0,0.0,0.0,0.0,0.0,0.0,0.0,0.0,0.0,7.8159,7.7434,7.7144,7.7507,7.8738,8.0549,8.2939,8.6126,8.8951,9.1342,9.1125,8.9241,8.5764,8.2432,7.968,7.7507,7.7507,7.7724,7.8014,0.0,0.0,0.0,0.0,0.0,0.0,0.0,0.0,0.0,0.0,8.3809,8.4533,8.3374,0.0,0.0,0.0,0.0,0.0,8.3301,8.6565,8.8672,0.0,0.0,0.0,0.0,0.0,0.0,0.0,0.0,0.0,0.0,0.0,0.0,0.0,0.0,0.0,0.0,0.0,0.0,0.0,0.0,0.0,0.0,0.0,0.0,0.0,0.0,0.0,0.0,0.0,0.0,0.0,0.0,0.0,0.0,12.6329,12.5242,12.4011,12.4011,12.4011,12.4011,12.4011,12.4011,0.0,0.0,12.2996,12.2127,12.1403,12.0534,11.9737,11.9302,11.923,11.923,11.923,11.923,11.923,0.0,0.0,0.0,0.0,0.0,0.0,0.0,0.0,0.0,0.0,0.0,0.0,0.0,0.0,0.0,0.0,0.0,0.0,0.0,0.0,7.7144,7.8955,7.8448,7.8376,7.9173,8.0187,8.1998,8.4605,8.8155,9.1559,9.4602,9.1632,8.8879,8.6271,8.2432,7.9607,7.7796,7.7796,7.7869,7.8086,0.0,0.0,0.0,0.0,0.0,0.0,0.0,0.0,0.0,0.0,0.0,0.0,0.0,0.0,0.0,0.0,8.1998,8.1853,8.2794,8.5552,8.8241,0.0,0.0,0.0,0.0,0.0,0.0,0.0,0.0,0.0,0.0,0.0,0.0,0.0,0.0,0.0,0.0,0.0,0.0,0.0,0.0,0.0,0.0,0.0,0.0,0.0,0.0,0.0,0.0,0.0,0.0,0.0,0.0,0.0,0.0,12.6546,12.5532,12.43,12.4083,12.4011,12.4011,12.4011,12.4011,12.4011,12.4011,12.3214,12.191,12.1693,12.0823,11.952,11.9302,11.923,11.923,11.923,11.923,11.923,0.0,0.0,0.0,0.0,0.0,0.0,0.0,0.0,0.0,0.0,0.0,0.0,0.0,0.0,0.0,0.0,0.0,0.0,0.0,0.0,7.6348,7.6565,7.8593,8.1128,8.4098,8.3519,8.475,8.7865,9.2573,9.6557,9.96,9.4891,9.1052,8.7937,8.4678,8.1491,7.8593,7.8593,7.9028,7.9752,7.9752,0.0,0.0,0.0,0.0,0.0,0.0,0.0,0.0,0.0,0.0,0.0,0.0,0.0,0.0,0.0,8.446,8.4098,8.7793,8.9531,9.077,9.238,9.2764,0.0,9.6977,9.6967,0.0,10.111,0.0,0.0,0.0,0.0,0.0,0.0,0.0,0.0,0.0,0.0,0.0,0.0,0.0,0.0,0.0,0.0,0.0,0.0,0.0,0.0,0.0,0.0,0.0,0.0,0.0,0.0,0.0,0.0,12.5242,12.5097,12.4373,12.4011,12.4011,12.4011,12.4011,12.4011,12.4011,12.3504,12.2707,12.191,12.1113,12.0244,11.952,11.923,11.923,11.923,11.923,11.923,0.0,0.0,0.0,0.0,0.0,0.0,0.0,0.0,0.0,0.0,0.0,0.0,0.0,0.0,0.0,0.0,0.0,0.0,0.0,7.6342,7.7217,7.9173,8.0187,8.2143,8.5402,8.6561,8.8951,9.2646,9.7499,9.9744,9.9382,9.4529,9.0545,8.7285,8.3664,8.1635,8.0839,7.9897,8.0187,8.1273,8.0332,8.0187,0.0,0.0,0.0,0.0,0.0,0.0,0.0,0.0,8.2213,0.0,0.0,0.0,0.0,0.0,8.4246,8.4028,8.5701,8.8176,9.0878,9.2405,9.4317,0.0,0.0,10.1255,10.2855,10.5399,10.6344,0.0,0.0,0.0,0.0,0.0,0.0,0.0,0.0,0.0,0.0,0.0,0.0,0.0,0.0,0.0,0.0,0.0,0.0,0.0,0.0,0.0,0.0,0.0,0.0,0.0,0.0,0.0,12.5677,12.517,12.4373,12.4011,12.4011,12.4011,12.4011,12.4011,12.4011,12.3286,12.1982,12.1693,12.0823,11.9592,11.9302,11.923,11.9085,11.8723,11.8505,11.8505,0.0,0.0,0.0,0.0,0.0,0.0,0.0,0.0,0.0,0.0,0.0,0.0,0.0,0.0,0.0,0.0,0.0,0.0,7.6548,7.6342,7.7289,7.9605,8.0549,8.2505,8.5477,8.9024,9.2356,9.5398,10.0469,10.17,9.931,9.4674,9.1125,8.8372,8.4605,8.3374,8.41,8.2215,8.1997,8.2649,8.0911,8.0621,0.0,0.0,0.0,0.0,0.0,0.0,0.0,0.0,0.0,0.0,0.0,0.0,0.0,0.0,0.0,8.4828,8.4462,8.6938,8.9861,0.0,0.0,0.0,10.3394,10.5797,10.8146,11.1622,0.0,0.0,0.0,0.0,0.0,0.0,0.0,0.0,0.0,0.0,0.0,0.0,0.0,0.0,0.0,0.0,0.0,0.0,0.0,0.0,0.0,0.0,0.0,0.0,0.0,0.0,0.0,0.0,12.5604,12.4807,12.43,12.4011,12.4011,12.4011,12.4011,12.4011,12.4011,12.3069,12.162,12.162,12.0678,11.923,11.923,11.923,11.9085,11.8578,11.8288,11.8071,0.0,0.0,0.0,0.0,0.0,0.0,0.0,0.0,0.0,0.0,0.0,0.0,0.0,0.0,0.0,0.0,0.0,0.0,7.6275,7.6275,7.6415,7.6614,7.946,8.2287,8.4828,9.0987,9.4602,9.5471,10.0976,10.2497,10.0107,9.605,9.3298,9.1632,8.8444,8.758,8.8389,8.5767,8.4391,8.3665,8.1852,8.1128,8.1128,0.0,0.0,0.0,0.0,0.0,0.0,0.0,0.0,0.0,0.0,0.0,0.0,0.0,8.8104,8.701,8.5555,8.6356,0.0,0.0,0.0,0.0,10.8456,11.0682,11.304,12.0782,0.0,0.0,0.0,0.0,0.0,0.0,0.0,0.0,0.0,0.0,0.0,0.0,0.0,0.0,0.0,0.0,0.0,0.0,0.0,0.0,0.0,0.0,0.0,0.0,0.0,0.0,0.0,0.0,12.4807,12.4011,12.4011,12.4011,12.4011,12.4011,12.4011,12.4011,12.4011,12.3069,12.162,12.162,12.0606,11.923,11.923,11.923,11.923,11.923,11.8723,11.8071,0.0,0.0,0.0,0.0,0.0,0.0,0.0,0.0,0.0,0.0,0.0,0.0,0.0,0.0,0.0,0.0,0.0,0.0,7.7473,7.7546,7.748,7.7413,8.047,8.2141,8.2215,8.8372,9.4312,9.96,10.0686,9.9744,9.6775,9.3298,9.1125,9.0038,8.9096,8.8807,8.8957,8.5909,8.5334,8.6063,8.3883,8.272,8.2424,0.0,0.0,0.0,0.0,0.0,0.0,0.0,0.0,0.0,0.0,0.0,0.0,8.7813,8.7666,8.7376,8.598,0.0,0.0,0.0,0.0,0.0,0.0,11.381,0.0,0.0,0.0,0.0,0.0,0.0,0.0,0.0,0.0,0.0,0.0,0.0,0.0,0.0,0.0,0.0,0.0,0.0,0.0,0.0,0.0,0.0,0.0,0.0,0.0,0.0,0.0,0.0,0.0,0.0,0.0,12.4011,12.4011,12.4011,12.4011,12.4011,12.3721,12.3214,12.3214,12.22,12.0678,12.0099,11.9592,11.923,11.923,11.923,11.9085,11.8578,11.8288,11.8071,0.0,0.0,0.0,0.0,0.0,0.0,0.0,0.0,0.0,0.0,0.0,0.0,0.0,0.0,0.0,0.0,0.0,0.0,0.0,7.8122,7.8201,7.8856,8.0612,8.2287,8.3955,8.9241,9.3515,9.6715,9.7427,9.634,9.3443,9.2501,9.1921,9.1849,9.308,9.2872,9.1436,8.9398,8.8389,8.7887,8.6429,8.5555,8.5189,0.0,0.0,0.0,0.0,0.0,0.0,0.0,0.0,0.0,0.0,0.0,0.0,8.7586,8.7662,8.7886,8.8099,0.0,0.0,0.0,0.0,0.0,0.0,0.0,0.0,0.0,0.0,0.0,0.0,0.0,0.0,0.0,0.0,0.0,0.0,0.0,0.0,0.0,0.0,0.0,0.0,0.0,0.0,0.0,0.0,0.0,0.0,0.0,0.0,0.0,0.0,0.0,0.0,0.0,0.0,0.0,12.3721,12.3504,12.3504,12.3504,12.3286,12.2779,12.2127,12.133,12.0316,11.952,11.923,11.923,11.923,11.923,11.9085,11.8723,11.8361,11.8071,0.0,0.0,0.0,0.0,0.0,0.0,0.0,0.0,0.0,0.0,7.9874,0.0,0.0,0.0,0.0,0.0,0.0,0.0,0.0,0.0,7.8856,8.0448,8.047,8.294,8.8171,9.1792,9.2075,8.9189,9.2147,9.2573,9.0545,9.2935,9.4674,9.576,9.873,9.819,9.4883,9.4285,9.2113,8.9203,8.8984,8.891,8.8691,8.7231,0.0,0.0,0.0,0.0,0.0,0.0,0.0,0.0,0.0,8.4584,8.4955,8.7292,8.8029,8.8617,9.1253,0.0,0.0,0.0,0.0,0.0,0.0,0.0,0.0,0.0,0.0,0.0,0.0,0.0,0.0,0.0,0.0,0.0,0.0,0.0,0.0,0.0,0.0,0.0,0.0,0.0,0.0,0.0,0.0,0.0,0.0,0.0,0.0,0.0,0.0,0.0,0.0,0.0,0.0,0.0,0.0,12.2707,12.2707,12.2779,12.2779,12.2562,12.1041,12.0316,12.0244,11.952,11.923,11.923,11.9085,11.9085,11.923,11.9085,11.8723,11.8216,0.0,0.0,0.0,0.0,0.0,0.0,0.0,0.0,0.0,0.0,0.0,0.0,0.0,0.0,0.0,0.0,0.0,0.0,0.0,8.1593,8.1167,8.1323,8.3591,8.5555,8.6866,8.8247,8.7663,8.5046,8.8015,8.9531,8.9676,9.2139,9.4674,9.7354,9.8831,9.7973,9.5222,9.1599,8.9713,8.913,8.913,8.8836,8.8248,8.7955,8.6485,0.0,0.0,0.0,0.0,0.0,0.0,0.0,8.5013,8.5527,8.5605,8.6187,8.7655,8.9493,0.0,9.4556,0.0,0.0,0.0,0.0,0.0,0.0,0.0,0.0,0.0,0.0,0.0,0.0,0.0,0.0,0.0,0.0,0.0,0.0,0.0,0.0,0.0,0.0,0.0,0.0,0.0,0.0,0.0,0.0,0.0,0.0,0.0,0.0,0.0,0.0,0.0,0.0,0.0,0.0,12.191,12.191,12.191,12.3214,12.3069,12.1765,12.0171,11.952,11.9447,11.9302,11.923,11.9085,11.8578,11.8723,11.9085,11.8578,11.8578,11.8868,0.0,0.0,0.0,0.0,0.0,0.0,0.0,0.0,0.0,0.0,0.0,0.0,0.0,0.0,0.0,0.0,0.0,0.0,0.0,0.0,8.1745,8.2709,8.5773,8.7012,8.6061,8.6939,8.5919,8.2855,8.4246,8.6132,8.8454,9.1205,9.4395,9.8202,10.0165,9.8505,9.4154,9.2925,9.1397,8.9934,9.1547,9.206,9.1546,9.0372,8.8169,8.5527,8.3911,0.0,0.0,0.0,0.0,0.0,0.0,0.0,8.5453,8.6628,8.8096,9.0298,0.0,0.0,0.0,0.0,0.0,0.0,0.0,0.0,0.0,0.0,0.0,0.0,0.0,0.0,0.0,0.0,0.0,0.0,0.0,0.0,0.0,0.0,0.0,0.0,0.0,0.0,0.0,0.0,0.0,0.0,0.0,0.0,0.0,0.0,0.0,0.0,12.162,12.0823,12.0823,12.162,12.1186,12.1186,12.162,12.2127,12.162,12.0389,11.9592,11.923,11.923,11.923,11.923,11.923,11.8795,11.8868,11.923,11.8795,11.8868,11.9085,0.0,0.0,0.0,0.0,0.0,0.0,0.0,0.0,0.0,0.0,0.0,0.0,0.0,0.0,0.0,0.0,0.0,0.0,0.0,0.0,0.0,8.4457,8.7231,8.7888,8.6203,8.6939,8.57,8.2477,8.1765,8.3736,8.8176,9.0855,9.4487,9.9037,10.121,9.8745,9.3152,9.4545,9.3084,9.0225,9.3235,9.4483,9.4189,9.184,8.9271,8.6554,8.4792,8.3911,8.3765,0.0,0.0,0.0,0.0,0.0,8.5233,8.7215,8.8536,9.0739,9.6685,0.0,11.0487,12.1499,0.0,0.0,0.0,0.0,0.0,0.0,0.0,0.0,0.0,0.0,0.0,0.0,0.0,0.0,0.0,0.0,0.0,0.0,0.0,0.0,0.0,0.0,0.0,0.0,0.0,0.0,0.0,0.0,0.0,0.0,0.0,0.0,12.1186,11.9882,11.9882,12.1186,12.0389,12.0389,12.0968,12.0171,11.9592,11.923,11.923,11.9085,11.9012,11.9085,11.923,11.923,11.9085,11.9012,11.9012,11.9012,11.9012,11.9012,0.0,0.0,0.0,0.0,0.0,0.0,0.0,0.0,0.0,0.0,0.0,0.0,0.0,0.0,0.0,0.0,0.0,0.0,0.0,0.0,0.0,8.6349,8.7375,8.8252,8.8618,8.7375,8.6135,8.4822,8.2636,8.4822,9.1106,9.2628,9.6186,10.1269,9.9859,9.7612,9.4618,9.162,8.9199,8.7655,8.9491,9.0225,9.0078,8.8316,8.6921,8.5673,8.3324,8.3324,8.4572,0.0,0.0,0.0,0.0,0.0,0.0,8.604,8.7655,9.0225,0.0,0.0,11.5332,0.0,12.583,12.8326,0.0,0.0,0.0,0.0,0.0,0.0,0.0,0.0,0.0,0.0,0.0,0.0,0.0,0.0,0.0,0.0,0.0,0.0,0.0,0.0,0.0,0.0,0.0,0.0,0.0,0.0,12.2486,12.0606,12.0534,0.0,11.952,11.9302,11.9302,11.952,11.8795,11.8505,11.8505,11.7709,11.7998,11.923,11.923,11.8795,11.8288,11.894,11.923,11.9085,11.8505,11.8216,11.8216,11.8216,11.8216,11.8216,0.0,0.0,0.0,0.0,0.0,0.0,0.0,0.0,0.0,0.0,0.0,0.0,0.0,0.0,0.0,0.0,0.0,0.0,0.0,0.0,0.0,8.6123,8.6929,8.7589,8.7882,8.6712,8.5398,8.4154,8.255,8.5547,0.0,9.3594,9.674,10.1487,9.9513,9.718,9.4479,9.184,8.9564,8.7802,8.8977,8.9711,8.9858,8.7802,8.6775,8.6187,8.4278,8.3985,0.0,0.0,0.0,0.0,0.0,0.0,0.0,0.0,0.0,0.0,9.9475,10.7771,11.5773,0.0,12.5684,12.7078,12.8326,0.0,0.0,0.0,0.0,0.0,0.0,0.0,0.0,0.0,0.0,0.0,0.0,0.0,0.0,0.0,0.0,0.0,0.0,0.0,0.0,0.0,0.0,0.0,0.0,12.244,12.1421,11.9947,11.9947,0.0,11.923,11.923,11.9012,11.8578,11.8288,11.7564,11.6767,11.6912,11.7274,11.7926,11.7926,11.7709,11.7491,11.7781,11.7926,11.7926,11.8071,11.7781,11.7491,11.7926,11.8071,11.8071,0.0,0.0,0.0,0.0,0.0,0.0,0.0,0.0,0.0,0.0,0.0,0.0,0.0,0.0,0.0,0.0,0.0,0.0,0.0,0.0,0.0,0.0,8.6261,8.6701,8.7219,8.5976,8.473,8.3625,8.3118,0.0,9.4622,9.5215,9.8447,0.0,10.1149,9.8437,9.5658,9.3382,9.1253,8.9417,8.9197,8.9491,8.9858,8.8243,8.7509,8.7068,8.5453,8.5013,0.0,0.0,0.0,0.0,0.0,0.0,0.0,0.0,0.0,0.0,0.0,0.0,11.2689,12.0618,12.3701,12.5317,0.0,0.0,0.0,0.0,0.0,0.0,0.0,0.0,0.0,0.0,0.0,0.0,0.0,0.0,0.0,0.0,0.0,0.0,0.0,0.0,0.0,0.0,0.0,0.0,12.1931,12.1482,12.0753,11.9573,11.9573,11.9543,11.923,11.9012,11.8578,11.8071,11.7709,11.6912,11.568,11.6115,11.626,11.6332,11.6695,11.6767,11.6622,11.6767,11.6912,11.6984,11.7564,11.7274,11.6695,11.7491,11.7781,11.7781,0.0,0.0,0.0,0.0,0.0,0.0,0.0,0.0,0.0,0.0,0.0,0.0,0.0,0.0,0.0,0.0,0.0,0.0,0.0,0.0,0.0,0.0,0.0,0.0,8.7813,8.5683,8.4578,8.4227,0.0,0.0,9.6612,9.8154,10.2705,10.9386,10.5422,10.2338,9.9695,9.5804,0.0,9.2574,8.9491,8.8316,8.839,8.905,8.883,8.7949,8.6334,0.0,0.0,0.0,0.0,0.0,0.0,0.0,0.0,0.0,0.0,0.0,0.0,9.9622,0.0,11.2396,11.8269,0.0,0.0,0.0,0.0,0.0,0.0,0.0,0.0,0.0,0.0,0.0,0.0,0.0,0.0,0.0,0.0,0.0,0.0,0.0,0.0,0.0,0.0,0.0,0.0,0.0,12.1365,12.1494,12.0956,11.9573,11.9573,11.9543,11.923,11.8505,11.8071,11.8071,11.655,11.5753,11.568,11.5028,11.4594,11.4739,11.6187,11.6477,11.5753,11.6622,11.6912,11.6912,11.6912,11.6477,11.5898,11.6695,11.6984,11.7057,0.0,0.0,0.0,0.0,0.0,0.0,0.0,0.0,0.0,0.0,0.0,0.0,0.0,0.0,0.0,0.0,0.0,0.0,0.0,0.0,0.0,0.0,0.0,0.0,0.0,8.6334,8.5086,8.4505,8.4285,8.8023,9.5217,9.7346,10.1971,10.8285,10.4173,10.1898,10.0723,9.5144,0.0,0.0,8.9124,8.883,8.9638,8.8316,8.8683,0.0,0.0,0.0,0.0,0.0,0.0,0.0,0.0,0.0,0.0,0.0,0.0,0.0,0.0,0.0,0.0,11.0193,11.5112,11.8783,0.0,0.0,0.0,0.0,0.0,0.0,0.0,0.0,0.0,0.0,0.0,0.0,0.0,0.0,0.0,0.0,0.0,0.0,0.0,0.0,0.0,0.0,0.0,0.0,12.1521,12.128,12.0816,11.9951,11.9951,11.953,11.8505,11.8216,11.7564,11.655,11.597,11.5173,11.4232,11.4377,11.4232,11.3797,11.4884,11.5173,11.5028,11.5173,11.5391,11.5391,11.5898,11.5608,11.5028,11.5825,11.6115,11.6187,0.0,0.0,0.0,0.0,0.0,0.0,0.0,0.0,0.0,0.0,0.0,0.0,0.0,0.0,0.0,0.0,0.0,0.0,0.0,0.0,0.0,0.0,0.0,0.0,0.0,8.7288,8.5967,8.4572,8.4866,8.8096,9.3969,9.6612,10.1164,10.6963,10.2412,10.1824,10.4027,0.0,0.0,9.3969,0.0,0.0,9.14,0.0,0.0,0.0,0.0,0.0,0.0,0.0,0.0,0.0,0.0,0.0,0.0,0.0,0.0,0.0,9.2941,0.0,0.0,0.0,0.0,11.3424,11.8783,0.0,0.0,0.0,0.0,0.0,0.0,0.0,0.0,0.0,0.0,0.0,0.0,0.0,0.0,0.0,0.0,0.0,0.0,0.0,0.0,0.0,0.0,0.0,12.1353,12.1109,12.0572,11.9688,11.9777,11.9137,11.7709,11.7709,11.6984,11.568,11.5391,11.4594,11.329,11.4087,11.4087,11.329,11.4232,11.4521,11.4521,11.4521,11.4521,11.4594,11.5101,11.5028,11.4594,11.5101,11.5463,11.568,0.0,0.0,0.0,0.0,0.0,0.0,0.0,0.0,0.0,0.0,0.0,0.0,0.0,0.0,0.0,0.0,8.3104,8.3544,8.3544,0.0,0.0,0.0,0.0,0.0,0.0,0.0,0.0,8.4572,8.6921,8.9711,9.3015,9.6245,10.0723,10.5862,10.0503,10.2412,10.9459,0.0,10.4173,10.087,0.0,9.3235,9.3749,0.0,0.0,0.0,9.6021,9.5551,0.0,0.0,0.0,0.0,0.0,0.0,0.0,0.0,0.0,8.8243,0.0,0.0,0.0,0.0,0.0,0.0,0.0,0.0,0.0,0.0,0.0,0.0,0.0,0.0,0.0,0.0,0.0,0.0,0.0,0.0,0.0,0.0,0.0,0.0,0.0,0.0,0.0,0.0,0.0,12.0912,12.0912,12.0912,12.0182,11.8885,11.9034,11.8433,11.6912,11.6912,11.6477,11.568,11.4811,11.4087,11.329,11.4087,11.4014,11.329,11.4087,11.4521,11.4521,11.4521,11.4521,11.4521,11.4521,11.4521,11.4521,11.4521,11.5028,11.568,0.0,0.0,0.0,0.0,0.0,0.0,0.0,0.0,0.0,0.0,0.0,0.0,0.0,0.0,0.0,8.7362,8.7068,8.6848,8.6848,8.5967,0.0,0.0,0.0,0.0,0.0,0.0,0.0,0.0,0.0,8.6407,8.9638,9.2281,9.5878,10.0283,10.1604,10.2191,10.1824,9.6979,0.0,0.0,9.4923,9.5878,0.0,0.0,0.0,0.0,0.0,9.9279,0.0,0.0,9.774,9.5073,0.0,0.0,0.0,0.0,0.0,8.8316,8.8904,0.0,0.0,0.0,0.0,0.0,0.0,0.0,0.0,0.0,0.0,0.0,0.0,0.0,0.0,0.0,0.0,0.0,0.0,0.0,0.0,0.0,0.0,0.0,0.0,0.0,0.0,0.0,0.0,12.0912,12.0912,12.0059,11.9035,11.801,11.7857,11.7189,11.597,11.597,11.5608,11.4811,11.4014,11.3507,11.329,11.3507,11.3218,11.2493,11.3942,11.4232,11.3725,11.4304,11.4521,11.4521,11.4521,11.4521,11.4521,11.4521,11.4594,11.4811,0.0,0.0,0.0,0.0,0.0,0.0,0.0,0.0,0.0,0.0,0.0,0.0,0.0,0.0,0.0,8.9417,8.8977,8.8536,8.8243,8.6995,0.0,0.0,0.0,0.0,0.0,0.0,0.0,0.0,0.0,0.0,0.0,0.0,9.162,9.4923,9.6979,9.7199,9.5804,0.0,0.0,0.0,9.7052,0.0,0.0,10.2456,10.3499,0.0,0.0,0.0,10.4912,10.502,10.1909,0.0,0.0,0.0,0.0,0.0,0.0,8.9197,8.8977,8.9711,9.14,0.0,0.0,0.0,0.0,10.432,0.0,0.0,0.0,0.0,0.0,0.0,0.0,0.0,0.0,0.0,0.0,0.0,0.0,0.0,0.0,0.0,0.0,0.0,0.0,0.0,12.0398,12.0178,11.9884,11.9083,11.8304,11.733,11.7328,11.6665,11.5375,11.5839,11.5303,11.4014,11.3607,11.31,11.2276,11.2638,11.2421,11.1696,11.2928,11.3435,11.329,11.3797,11.4232,11.4521,11.4521,11.4521,11.4521,11.4521,11.4521,11.4521,0.0,0.0,0.0,0.0,0.0,0.0,0.0,0.0,0.0,0.0,0.0,8.8243,8.9271,9.1253,9.1913,9.0519,9.0005,8.9417,8.8536,8.7582,0.0,0.0,0.0,0.0,0.0,0.0,0.0,0.0,0.0,0.0,0.0,0.0,0.0,0.0,8.9491,8.9931,9.0886,0.0,0.0,9.6685,9.9842,10.2079,0.0,0.0,10.9825,0.0,11.1727,11.1735,11.0549,10.917,10.531,0.0,0.0,0.0,0.0,0.0,8.9491,9.0445,8.8977,8.9711,9.1767,0.0,0.0,0.0,10.3293,10.2558,0.0,0.0,0.0,0.0,0.0,0.0,0.0,0.0,0.0,0.0,0.0,0.0,0.0,0.0,0.0,0.0,0.0,0.0,0.0,11.9517,11.9517,11.9076,11.8269,11.7985,11.7523,11.6718,11.7184,11.6526,11.4801,11.5725,11.5263,11.3245,11.3369,11.2643,11.1044,11.1696,11.1624,11.09,11.1841,11.2638,11.3218,11.3435,11.387,11.4521,11.4521,11.4521,11.4521,11.4521,11.4521,11.4521,0.0,0.0,0.0,0.0,0.0,0.0,0.0,0.0,0.0,0.0,0.0,9.3896,9.6685,9.6832,9.6539,9.6245,9.3896,9.1767,9.0225,8.8169,0.0,0.0,0.0,0.0,0.0,0.0,0.0,0.0,0.0,0.0,0.0,0.0,0.0,0.0,0.0,0.0,0.0,0.0,0.0,9.4997,9.7566,0.0,10.8624,10.966,11.1906,11.4524,11.43,11.5299,11.6271,0.0,10.9959,10.5799,0.0,0.0,0.0,0.0,0.0,0.0,0.0,0.0,0.0,0.0,0.0,0.0,9.3969,9.4703,9.7126,0.0,0.0,0.0,0.0,0.0,0.0,0.0,0.0,0.0,0.0,0.0,0.0,0.0,0.0,0.0,0.0,0.0,11.8783,11.8636,11.8636,11.8269,11.7535,11.7368,11.6907,11.5913,11.5891,11.543,11.4194,11.4436,11.3903,11.286,11.2109,11.1941,11.2207,11.1505,11.0972,11.0972,11.2421,11.2783,11.2421,11.3725,11.4377,11.4521,11.4521,11.4521,11.4521,11.4521,11.4521,11.4594,0.0,0.0,0.0,0.0,0.0,0.0,0.0,0.0,0.0,0.0,9.529,9.7566,9.8374,9.8888,9.8741,9.7933,9.5658,9.3602,9.1987,0.0,0.0,0.0,0.0,0.0,0.0,0.0,0.0,0.0,0.0,0.0,0.0,0.0,0.0,0.0,0.0,0.0,0.0,0.0,9.1395,9.4108,10.0294,0.0,11.2129,11.453,11.7155,11.9603,11.9175,11.9799,11.9969,11.4622,11.2014,0.0,0.0,9.9818,9.8693,0.0,9.3809,9.433,0.0,0.0,0.0,9.4042,0.0,0.0,0.0,9.3675,9.4556,0.0,0.0,0.0,0.0,0.0,0.0,0.0,0.0,0.0,0.0,0.0,0.0,0.0,0.0,0.0,0.0,0.0,11.7828,11.7828,11.7094,11.658,11.658,11.6213,11.5901,11.5808,11.5808,11.5348,11.4189,11.4648,11.4356,11.2832,11.2832,11.2737,11.2714,11.1989,11.1675,11.1675,11.2012,11.2131,11.2203,11.3,11.3507,11.3942,11.4304,11.4521,11.4521,11.4521,11.4521,11.4594,0.0,0.0,0.0,0.0,0.0,0.0,0.0,0.0,0.0,9.6546,9.9416,10.0966,10.0312,10.0828,0.0,10.0312,9.7359,9.5221,0.0,0.0,0.0,0.0,0.0,8.8757,0.0,0.0,0.0,0.0,0.0,0.0,0.0,0.0,0.0,0.0,8.6407,8.6549,0.0,0.0,0.0,9.5603,0.0,10.9223,11.2192,11.775,12.0699,12.2019,12.3051,12.3491,12.2497,11.5696,0.0,11.2691,10.5349,10.3806,0.0,0.0,0.0,0.0,0.0,0.0,0.0,0.0,0.0,9.4336,0.0,0.0,0.0,9.8007,0.0,0.0,0.0,0.0,0.0,0.0,0.0,0.0,0.0,0.0,0.0,0.0,0.0,0.0,0.0,0.0,11.6287,11.6507,11.5332,11.4892,11.5699,11.5332,11.5332,11.5993,11.5993,11.5534,11.4542,11.5314,11.4782,11.302,11.3771,11.3771,11.2905,11.2546,11.2522,11.2353,11.1505,11.1624,11.2276,11.2276,11.2711,11.3435,11.4232,11.4521,11.4521,11.4521,11.4521,11.4521,8.8663,8.9899,0.0,0.0,0.0,0.0,0.0,0.0,0.0,10.1349,10.3428,10.5506,0.0,0.0,0.0,0.0,0.0,0.0,9.8295,0.0,0.0,0.0,0.0,0.0,8.6114,0.0,0.0,0.0,0.0,0.0,0.0,0.0,0.0,0.0,8.56,0.0,0.0,0.0,9.4308,0.0,10.6175,10.6395,0.0,11.3401,11.6523,11.732,12.2494,12.4408,12.3797,0.0,11.7287,11.4602,0.0,10.7281,0.0,0.0,0.0,0.0,0.0,0.0,0.0,0.0,9.9108,0.0,0.0,0.0,9.485,9.4116,0.0,0.0,0.0,0.0,0.0,0.0,0.0,0.0,0.0,0.0,0.0,0.0,0.0,0.0,0.0,0.0,0.0,11.4011,11.3791,11.4084,11.4892,11.5479,11.592,11.5993,11.5993,11.5626,11.4818,11.4892,11.4525,11.348,11.3371,11.3259,11.2832,11.2546,11.2425,11.2059,11.1986,11.2421,11.3218,11.3218,11.3218,11.3435,11.4232,11.4521,11.4521,11.4521,11.4521,11.4739,8.9838,9.0483,0.0,0.0,0.0,0.0,0.0,0.0,10.2015,10.3799,10.5942,0.0,0.0,0.0,0.0,0.0,0.0,0.0,0.0,0.0,0.0,0.0,0.0,0.0,0.0,0.0,0.0,0.0,8.4352,0.0,0.0,0.0,0.0,0.0,8.6848,0.0,9.1529,0.0,0.0,0.0,0.0,0.0,0.0,11.6587,12.1242,12.1994,12.4902,12.5707,12.4714,0.0,11.8509,0.0,0.0,0.0,0.0,0.0,0.0,0.0,0.0,0.0,0.0,0.0,0.0,0.0,0.0,0.0,9.2574,0.0,0.0,0.0,0.0,0.0,0.0,0.0,0.0,0.0,0.0,0.0,0.0,0.0,0.0,0.0,0.0,0.0,0.0,0.0,0.0,11.1588,11.3277,11.3277,11.3864,11.5259,11.5332,11.5112,11.4818,11.4818,11.4378,11.357,11.3993,11.4122,11.403,11.3999,11.4025,11.3928,11.31,11.3,11.329,11.2783,11.2928,11.329,11.3725,11.3797,11.387,11.4304,11.4521,11.4594,9.0861,0.0,0.0,0.0,0.0,0.0,0.0,0.0,0.0,0.0,0.0,0.0,11.1684,11.1381,0.0,0.0,0.0,10.7961,0.0,0.0,9.9092,0.0,0.0,0.0,0.0,0.0,0.0,0.0,0.0,0.0,0.0,0.0,0.0,0.0,0.0,9.1498,9.5427,0.0,0.0,10.3368,10.5151,10.77,11.1518,11.9984,12.4675,12.6853,12.7312,12.7159,12.6165,12.1962,12.0169,0.0,11.7094,0.0,0.0,0.0,0.0,0.0,10.4086,0.0,0.0,0.0,0.0,0.0,0.0,0.0,0.0,0.0,0.0,0.0,0.0,0.0,0.0,0.0,0.0,0.0,0.0,0.0,0.0,0.0,0.0,0.0,0.0,0.0,0.0,0.0,10.9092,0.0,11.1588,11.1588,11.2543,11.4672,11.5039,11.4892,11.4525,11.4672,11.4305,11.3277,11.4084,11.4451,11.4434,11.4794,11.4874,11.4705,11.3805,11.3535,11.358,11.2783,11.2783,11.329,11.3507,11.3507,11.3435,11.4232,11.4521,11.4521,9.1625,9.2465,0.0,0.0,0.0,0.0,0.0,0.0,0.0,0.0,0.0,0.0,0.0,0.0,0.0,0.0,0.0,11.3647,11.1991,0.0,10.1201,0.0,0.0,0.0,0.0,0.0,0.0,0.0,0.0,0.0,0.0,0.0,0.0,0.0,0.0,9.4273,9.8938,10.127,10.728,11.5108,11.46,11.9191,12.586,0.0,12.372,12.9375,12.8611,0.0,0.0,12.4561,12.3213,0.0,0.0,0.0,0.0,0.0,0.0,0.0,0.0,0.0,0.0,10.0961,0.0,0.0,0.0,0.0,9.6318,0.0,0.0,0.0,0.0,0.0,0.0,9.6685,0.0,0.0,0.0,0.0,0.0,0.0,0.0,0.0,0.0,0.0,0.0,0.0,10.7404,0.0,10.99,11.1515,11.313,11.4745,11.5626,11.5185,11.3644,11.4378,11.4011,11.2396,11.3277,11.3553,11.3279,11.4083,11.4167,11.3685,11.3685,11.3997,11.4449,11.358,11.329,11.3435,11.4232,11.4014,11.3435,11.4232,11.4521,11.4594,0.0,0.0,0.0,0.0,0.0,0.0,0.0,10.315,0.0,0.0,0.0,0.0,0.0,0.0,12.5284,0.0,0.0,12.1218,11.7308,11.2699,0.0,0.0,0.0,10.0428,0.0,0.0,0.0,0.0,0.0,0.0,0.0,0.0,0.0,0.0,0.0,9.6543,0.0,0.0,0.0,0.0,0.0,12.0779,12.6165,0.0,0.0,12.8764,12.9069,12.8993,0.0,12.777,12.5971,12.4325,12.4808,12.2535,11.9614,11.9919,11.8539,0.0,0.0,0.0,11.4512,10.6697,0.0,0.0,0.0,0.0,0.0,0.0,0.0,0.0,0.0,0.0,9.83,9.83,9.83,0.0,0.0,0.0,0.0,0.0,0.0,0.0,0.0,0.0,0.0,10.5422,10.3072,10.3293,0.0,10.7624,10.9312,11.313,11.2983,11.313,11.357,11.2836,11.2102,11.1588,11.2396,11.3057,11.3553,11.4689,11.5087,11.4897,11.4608,11.463,11.4677,11.31,11.3145,11.4014,11.3218,11.3435,11.4087,11.4449,11.4521,11.4521,9.5064,0.0,0.0,0.0,0.0,0.0,0.0,0.0,0.0,0.0,11.9088,0.0,12.9809,0.0,13.0844,0.0,13.1056,12.7923,12.1275,11.8699,0.0,11.3786,10.9524,0.0,0.0,0.0,0.0,0.0,0.0,9.0039,0.0,0.0,0.0,0.0,0.0,9.8756,10.4287,0.0,11.3797,0.0,0.0,12.3491,0.0,0.0,12.8764,0.0,0.0,12.9681,12.9222,12.9528,12.8305,12.693,12.7999,12.5707,12.2803,12.3491,12.1884,11.9543,11.8003,11.8849,0.0,0.0,10.9294,0.0,0.0,0.0,0.0,0.0,0.0,0.0,0.0,0.0,10.1017,10.0503,9.9402,9.7273,0.0,0.0,0.0,0.0,0.0,0.0,0.0,0.0,10.1017,10.1677,9.9328,9.9475,0.0,0.0,10.6376,11.012,11.0928,11.1588,11.2322,11.1295,11.0781,11.0781,11.1588,11.2469,11.357,11.4782,11.5421,11.562,11.5335,11.5117,11.4775,11.3271,11.339,11.4377,11.3,11.329,11.4521,11.4521,11.4521,11.4521,0.0,0.0,0.0,0.0,9.8884,0.0,0.0,0.0,11.4474,0.0,12.3109,12.7923,13.2202,13.4113,13.5412,13.6176,13.6864,0.0,12.4484,12.4484,0.0,0.0,11.4321,11.2731,11.0321,0.0,0.0,0.0,0.0,0.0,0.0,0.0,0.0,0.0,9.6517,0.0,10.5441,11.357,11.9594,12.372,12.6165,12.7617,12.8534,12.9299,0.0,12.9757,13.0521,13.0827,13.0674,12.991,13.0216,13.0521,12.8916,12.8382,12.7923,12.5478,12.4714,12.3833,11.9937,11.9976,11.9922,11.441,0.0,0.0,0.0,0.0,10.7814,0.0,0.0,0.0,0.0,0.0,0.0,10.2779,9.9769,9.5731,0.0,0.0,0.0,0.0,0.0,0.0,0.0,10.0283,9.8521,9.7787,9.6171,9.6025,0.0,0.0,0.0,10.6302,10.9386,11.0707,10.99,10.99,10.9973,10.9973,11.0928,11.2102,11.3717,11.4525,11.5167,11.5547,11.562,11.5262,11.4848,11.3976,11.3997,11.4449,11.358,11.3797,11.4521,11.4521,11.4521,11.4521,9.7815,9.8426,9.8732,0.0,9.7815,9.9496,0.0,0.0,0.0,0.0,12.9222,13.4724,14.0838,14.1296,14.122,14.1525,13.9921,0.0,0.0,0.0,0.0,12.4866,12.3338,12.0836,11.7135,11.332,0.0,10.6016,0.0,0.0,9.7857,0.0,0.0,0.0,0.0,0.0,10.5994,11.442,12.1122,12.6165,12.7465,12.8534,0.0,0.0,12.9986,13.0521,13.0674,13.0827,13.0827,13.0598,13.0598,13.0674,13.0292,12.9681,12.9069,12.8458,12.777,12.71,12.5987,12.5545,12.4584,12.0746,11.7841,11.4862,0.0,0.0,0.0,0.0,0.0,0.0,0.0,0.0,0.0,10.0723,9.6832,9.3602,0.0,0.0,0.0,0.0,0.0,0.0,9.8741,9.6979,9.5437,9.5217,9.3161,0.0,0.0,0.0,0.0,10.5275,10.7404,10.8725,10.9092,10.9092,10.9386,10.9973,11.1368,11.291,11.4525,11.5332,11.5846,11.5901,11.5714,11.5357,11.4996,11.4146,11.3997,11.4449,11.358,11.3797,11.4521,11.4521,11.4521,11.4521,9.9114,0.0,0.0,10.1024,0.0,0.0,10.7902,0.0,0.0,12.5478,13.1897,0.0,14.1525,14.3818,14.4888,14.4506,14.2901,0.0,0.0,0.0,0.0,12.9528,12.8229,12.6013,12.288,11.8677,0.0,11.05,0.0,0.0,9.9661,0.0,0.0,0.0,0.0,10.2232,10.5303,11.562,12.2727,12.7159,12.8382,0.0,0.0,12.9986,13.0368,13.0827,13.0827,13.0827,13.0827,13.0827,13.0827,13.0827,13.0827,13.0521,13.0063,13.0063,12.9528,12.8916,12.8916,12.8305,12.71,12.4903,12.2673,12.0074,11.6665,11.5804,11.5429,0.0,0.0,0.0,0.0,0.0,0.0,9.8447,9.5364,0.0,0.0,0.0,0.0,0.0,0.0,0.0,9.5584,9.4263,9.2794,9.1693,0.0,0.0,0.0,0.0,0.0,0.0,10.5789,10.7771,10.8285,10.9019,10.9606,10.9973,11.1588,11.291,11.3791,11.5332,11.5626,11.4965,11.5441,11.5401,11.4846,11.4122,11.4194,11.465,11.3942,11.4087,11.4521,11.4521,11.4521,11.4449,0.0,0.0,0.0,0.0,0.0,0.0,0.0,11.7225,0.0,12.6318,0.0,13.8698,13.9462,14.42,14.7027,0.0,0.0,14.2442,13.6864,13.7093,13.5565,13.1515,13.0674,12.9528,12.7617,12.3414,0.0,0.0,0.0,0.0,0.0,9.679,9.4685,9.3567,0.0,0.0,0.0,11.6613,12.3491,12.693,12.8687,12.9604,12.9757,13.0521,13.0827,13.0827,13.0827,13.0827,13.0827,13.0827,13.0827,13.0827,13.0827,13.0827,13.0827,13.0827,13.0292,12.9757,12.9757,12.9069,12.8305,12.7617,12.6807,12.5496,12.3105,12.1514,12.0601,12.1018,11.7604,0.0,0.0,0.0,0.0,9.6612,0.0,0.0,0.0,0.0,0.0,0.0,0.0,0.0,0.0,0.0,0.0,0.0,0.0,0.0,0.0,0.0,0.0,0.0,10.4173,0.0,10.8064,0.0,11.012,11.056,11.1882,11.2616,11.2763,11.4965,11.5185,11.4011,11.5406,11.5534,11.4523,11.4313,11.4462,11.4749,11.4477,11.4449,11.4521,11.4304,11.4304,11.4449,0.0,0.0,0.0,0.0,0.0,0.0,0.0,12.5936,12.9681,13.2661,14.0303,0.0,14.5576,14.718,14.7944,14.7027,14.5576,0.0,0.0,0.0,0.0,13.4113,13.4495,13.3272,13.0216,12.6013,12.1275,0.0,0.0,0.0,0.0,9.6089,9.4026,9.325,9.6241,0.0,10.9812,11.6231,0.0,12.5172,12.7617,12.9375,13.0598,13.0674,13.0827,13.0827,13.0827,13.0827,13.0827,13.0827,13.0827,13.0827,13.0827,13.0827,13.0827,13.0827,13.0674,13.0598,13.0598,12.9986,12.9299,12.9222,12.8551,12.739,12.5638,12.4925,12.4422,12.3088,12.1134,11.8956,11.6556,0.0,0.0,0.0,0.0,0.0,0.0,0.0,0.0,0.0,0.0,0.0,0.0,0.0,0.0,0.0,0.0,0.0,0.0,0.0,0.0,0.0,0.0,0.0,0.0,0.0,0.0,11.4011,11.357,11.3717,11.4378,11.5479,11.5773,11.5626,11.592,11.5827,11.5401,11.5116,11.4801,11.455,11.3797,11.3942,11.4304,11.3,11.3435,11.4521,0.0,0.0,0.0,0.0,0.0,0.0,0.0,13.3502,0.0,13.6023,14.0608,14.4124,14.4582,14.7715,14.9244,14.7944,14.6722,14.4888,14.2366,14.0608,13.8698,13.6711,13.5718,0.0,13.2126,12.7465,12.2268,11.6308,0.0,0.0,0.0,9.4834,9.3,9.193,9.5369,10.1788,0.0,0.0,0.0,12.4102,12.7082,12.9299,13.0827,13.0827,13.0827,13.0827,13.0827,13.0827,13.0827,13.0827,13.0827,13.0827,13.0827,13.0827,13.0827,13.0827,13.0827,13.0827,13.0827,13.0216,12.9604,12.9604,12.8916,12.8093,12.7328,12.7048,12.668,12.5515,12.359,12.0519,11.5118,10.8478,0.0,0.0,0.0,0.0,0.0,0.0,0.0,0.0,0.0,0.0,0.0,0.0,0.0,0.0,0.0,0.0,0.0,0.0,0.0,0.0,0.0,0.0,0.0,0.0,0.0,11.2322,11.3203,11.357,11.357,11.4818,11.5112,11.4818,11.5185,11.524,11.5221,11.5211,11.4947,11.4449,11.358,11.3797,11.4304,11.2711,11.2928,11.3797,0.0,11.1799,0.0,0.0,12.3873,0.0,0.0,13.9004,14.2519,13.9156,14.0914,14.2825,14.3436,14.7792,15.0008,14.8327,14.741,14.5805,14.3283,14.1067,13.9386,13.8163,13.6176,13.4571,13.3272,12.9069,12.3414,0.0,0.0,0.0,0.0,0.0,0.0,0.0,0.0,0.0,0.0,0.0,11.7912,12.3567,12.6777,12.9222,13.0827,13.0827,13.0827,13.0827,13.0827,13.0827,13.0827,13.0827,13.0827,13.0827,13.0827,13.0827,13.0827,13.0827,13.0827,13.0827,13.0827,13.0292,12.991,12.991,12.9299,12.8687,12.8382,12.8305,12.7999,12.7006,12.5042,12.1201,11.4108,10.9665,0.0,0.0,0.0,0.0,0.0,0.0,0.0,0.0,0.0,0.0,0.0,0.0,0.0,0.0,0.0,0.0,8.9858,9.2648,0.0,0.0,0.0,0.0,10.8285,0.0,11.1588,0.0,11.2616,11.3057,11.2689,11.4084,11.4525,11.4084,11.4818,11.4947,11.4928,11.5138,11.4801,11.4232,11.3435,11.3507,11.4014,11.2203,11.2421,11.3435,0.0,0.0,0.0,0.0,0.0,0.0,0.0,14.0685,14.4429,14.3971,14.6187,14.7715,14.7792,14.9014,14.9091,14.7486,14.6493,14.4964,14.2519,14.1296,13.9691,13.7322,13.7017,13.5718,13.3425,13.1362,12.6318,0.0,0.0,0.0,0.0,0.0,0.0,0.0,0.0,0.0,0.0,11.2105,11.7912,12.3491,12.6165,12.8687,13.0827,13.0827,13.0827,13.0827,13.0827,13.0827,13.0827,13.0827,13.0827,13.0827,13.0827,13.0827,13.0827,13.0827,13.0827,13.0827,13.0827,13.0674,13.0674,13.0674,13.0598,13.0216,12.8611,12.8305,12.777,12.6318,12.4503,12.1503,11.5636,11.4184,11.1909,0.0,0.0,0.0,0.0,0.0,0.0,0.0,0.0,0.0,0.0,0.0,0.0,0.0,0.0,0.0,8.7435,9.1767,0.0,9.5658,0.0,10.5495,11.0781,11.0414,0.0,11.4305,11.313,11.291,11.3497,11.4378,11.5185,11.5773,11.592,11.5568,11.5189,11.5166,11.451,11.329,11.2493,11.2711,11.3145,11.0827,11.1769,11.4087,0.0,0.0,0.0,0.0,0.0,0.0,0.0,14.3971,14.6569,14.7562,14.8632,14.9167,14.9167,14.9473,14.8785,14.6569,14.611,14.4811,14.2366,14.0914,13.9386,13.7857,13.6864,13.5412,13.3272,13.1668,12.693,0.0,0.0,0.0,0.0,0.0,0.0,0.0,0.0,0.0,10.9812,11.4091,11.9135,12.4179,12.6777,12.8993,13.0827,13.0827,13.0827,13.0827,13.0827,13.0827,13.0827,13.0827,13.0827,13.0827,13.0827,13.0827,13.0827,13.0827,13.0827,13.0827,13.0827,13.0827,13.0827,13.0827,13.0827,13.0521,12.9299,12.9069,12.8458,12.6318,12.4102,12.1524,11.8166,11.5954,11.3722,0.0,0.0,0.0,0.0,0.0,0.0,0.0,0.0,0.0,0.0,0.0,0.0,0.0,0.0,0.0,8.9124,9.0592,9.2868,9.6098,0.0,10.432,10.9019,11.0193,11.1588,11.3424,11.3203,11.3497,11.4305,11.4672,11.4965,11.5332,11.5588,11.5453,11.5166,11.4462,11.4168,11.3797,11.2131,11.2203,11.3,11.061,11.1117,11.2783,12.9222,0.0,13.0598,0.0,13.7475,13.9691,14.4276,14.6493,14.8021,14.9167,14.932,14.932,14.932,14.932,14.8327,14.5805,14.5499,14.4582,14.229,14.0761,13.9462,13.8392,13.7017,0.0,13.3731,13.2279,12.8382,12.2115,11.6766,0.0,0.0,0.0,0.0,0.0,10.4081,10.8207,11.3327,11.7225,12.1275,12.5478,12.777,12.9528,13.0827,13.0827,13.0827,13.0827,13.0827,13.0827,13.0827,13.0827,13.0827,13.0827,13.0827,13.0827,13.0827,13.0827,13.0827,13.0827,13.0827,13.0827,13.0827,13.0827,13.0598,13.0216,12.9375,12.8764,12.777,12.5478,12.3414,12.158,12.0128,11.7609,11.5387,0.0,0.0,0.0,0.0,0.0,0.0,0.0,0.0,0.0,0.0,0.0,0.0,0.0,0.0,0.0,0.0,9.0886,0.0,0.0,0.0,0.0,0.0,0.0,11.1808,11.2396,11.3203,11.4011,11.4818,11.5039,11.5185,11.5185,11.5588,11.5453,11.5093,11.4389,11.4096,11.4014,11.1986,11.1914,11.2711,11.0827,11.09,11.1914,13.3731,13.3807,13.5106,14.1067,14.2825,14.3894,14.5576,14.7333,14.8403,14.8403,14.8403,14.8403,14.8403,14.8403,14.741,14.4888,14.4735,14.3971,14.229,14.1373,14.0073,0.0,0.0,13.6329,13.4571,13.3731,13.1591,12.8229,0.0,0.0,11.1799,0.0,0.0,10.6985,11.1188,11.4015,11.6002,12.1122,12.4714,12.7159,12.8916,13.0063,13.0827,13.0827,13.0827,13.0827,13.0827,13.0827,13.0827,13.0827,13.0827,13.0827,13.0827,13.0827,13.0827,13.0827,13.0827,13.0827,13.0827,13.0827,13.0827,13.0827,13.0216,12.9375,12.8534,12.7006,12.5401,12.372,12.2574,12.181,12.0893,11.9376,11.7724,11.6056,0.0,0.0,0.0,0.0,0.0,0.0,0.0,0.0,0.0,0.0,0.0,0.0,0.0,0.0,0.0,0.0,0.0,9.5511,10.0943,0.0,10.7551,11.0781,11.2396,11.2396,11.3203,11.4011,11.4818,11.5626,11.5993,11.5993,11.5993,11.5714,11.5166,11.5166,11.4437,11.3218,11.2421,11.2131,11.1986,11.1189,11.1407,11.1986,13.7934,13.8698,14.0073,14.2595,14.42,14.5499,14.6569,14.7715,14.8632,14.9167,14.932,14.932,14.932,0.0,14.6798,0.0,14.42,14.313,0.0,14.0532,13.9462,13.8392,13.7628,13.6329,13.4571,13.3731,13.1897,12.9222,0.0,0.0,0.0,11.0882,11.1111,11.3939,11.5773,11.8218,12.1122,12.3797,12.6089,12.7999,12.9069,13.0063,13.0827,13.0827,13.0827,13.0827,13.0827,13.0827,13.0827,13.0827,13.0827,13.0827,13.0827,13.0827,13.0827,13.0827,13.0827,13.0827,13.0827,13.0827,13.0827,13.0827,13.0598,12.9986,12.8611,12.6471,12.4637,12.3491,12.2574,12.181,12.0893,12.0417,11.9496,11.7927,0.0,0.0,0.0,0.0,0.0,0.0,0.0,0.0,0.0,0.0,0.0,0.0,0.0,0.0,0.0,0.0,0.0,0.0,10.1531,0.0,10.7551,11.0781,11.2689,11.3203,11.4011,11.4818,11.5626,11.592,11.5993,11.5993,11.5808,11.5453,11.5093,11.3879,11.3297,11.3073,11.1189,11.0827,11.1189,11.0393,11.0175,11.0393,14.0226,14.122,14.2519,14.3283,14.5117,14.6569,14.7104,14.7944,14.8632,14.9091,14.8709,14.8403,14.8709,14.7333,0.0,14.4811,14.3589,0.0,14.099,14.0073,13.9233,13.8392,13.7628,13.6482,13.5106,0.0,0.0,13.098,12.6471,12.2192,11.8218,11.6919,11.7377,11.9441,12.0893,12.2574,12.4408,12.6395,12.777,12.8916,12.9681,13.0368,13.0827,13.0827,13.0827,13.0827,13.0827,13.0827,13.0827,13.0827,13.0827,13.0827,13.0827,13.0827,13.0827,13.0827,13.0827,13.0827,13.0827,13.0827,13.0827,13.0827,13.0598,12.9834,12.777,12.6089,12.4714,12.3491,12.2574,12.181,12.1275,12.074,12.0092,11.9376,0.0,0.0,0.0,0.0,0.0,0.0,0.0,0.0,0.0,9.6832,0.0,0.0,0.0,0.0,0.0,0.0,0.0,9.7787,10.2118,0.0,10.7991,11.1221,11.3057,11.357,11.4672,11.5479,11.5993,11.5993,11.5993,11.5993,11.5808,11.5379,11.4728,11.3588,11.2934,11.2711,11.09,11.0465,11.0827,11.032,10.9958,10.9668,14.099,14.1678,0.0,0.0,14.5499,0.0,14.718,14.7792,14.8327,14.8403,14.7027,14.6263,14.7104,14.5728,14.4735,14.4582,0.0,0.0,0.0,14.0073,13.9309,13.8392,13.7628,0.0,13.587,13.4189,13.3196,13.3119,12.8305,12.5631,12.479,12.4026,12.3567,12.3797,12.6089,12.67,12.6089,12.8611,12.9604,12.9681,13.0521,13.0827,13.0827,13.0827,13.0827,13.0827,13.0827,13.0827,13.0827,13.0827,13.0827,13.0827,13.0827,13.0827,13.0827,13.0827,13.0827,13.0827,13.0827,13.0827,13.0827,13.0827,13.0216,12.8993,12.6624,12.6013,12.5401,12.3797,12.2803,12.2192,12.2115,12.0816,11.9899,12.074,11.8006,11.4351,11.029,0.0,0.0,0.0,0.0,0.0,0.0,9.8741,10.0136,0.0,0.0,0.0,0.0,0.0,0.0,9.808,10.2779,10.6376,10.8799,11.1955,11.3644,11.3791,11.5259,11.5993,11.5993,11.5993,11.5993,11.5993,11.592,11.5202,11.4072,11.3999,11.3201,11.1914,11.1117,11.0827,11.0827,11.09,11.0393,10.9813,0.0,0.0,14.3207,14.3436,14.5499,14.718,14.718,14.741,14.7715,14.8327,14.7486,14.7027,14.718,14.5728,14.4429,14.3818,14.2825,14.1831,14.099,14.0685,13.9921,13.8469,13.8163,13.7399,13.587,13.4189,13.2661,13.1362,12.8916,12.7923,12.8382,12.693,12.6471,12.7082,12.7694,12.7923,12.777,12.9069,12.9604,12.9681,13.0521,13.0827,13.0827,13.0827,13.0827,13.0827,13.0827,13.0827,13.0827,13.0827,13.0827,13.0827,13.0827,13.0827,13.0827,13.0827,13.0827,13.0827,13.0827,13.0827,13.0827,13.0827,13.0216,12.9375,12.8764,12.7694,12.6471,12.5401,12.4484,12.372,12.3109,12.2115,12.1275,12.0893,11.7878,11.3916,10.8775,0.0,0.0,0.0,9.6906,9.7199,9.786,9.9695,10.0356,0.0,0.0,0.0,0.0,0.0,10.1457,10.065,10.4761,10.7624,10.8799,11.1955,11.4158,11.5406,11.5773,11.5993,11.5993,11.5993,11.5993,11.5993,11.5148,11.4502,11.3999,11.2569,11.1699,11.1117,11.032,10.9958,11.0103,11.0682,11.0393,10.9813,14.229,14.2825,14.3436,14.3436,14.5499,14.7104,14.6722,14.7333,14.7639,14.7333,14.6569,14.5881,14.5499,14.4276,14.3207,14.229,14.1907,14.1373,14.0914,14.0914,14.0226,13.8469,13.8392,13.7628,13.587,13.4189,13.2279,13.0292,12.9681,12.9528,12.9604,12.8993,12.8764,12.8916,12.9299,12.9222,12.8916,12.9834,13.0063,13.0216,13.0598,13.0827,13.0827,13.0827,13.0827,13.0827,13.0827,13.0827,13.0827,13.0827,13.0827,13.0827,13.0827,13.0827,13.0827,13.0827,13.0827,13.0827,13.0827,13.0827,13.0827,13.0827,13.0216,12.9528,12.9069,12.7999,12.67,12.5478,12.4484,12.372,12.288,12.1962,12.0893,11.9288,11.6231,11.188,10.6051,10.3013,0.0,9.6619,9.7419,9.8668,9.9475,10.1677,10.2412,10.0796,0.0,0.0,10.0796,10.3366,10.432,10.2632,10.6156,10.8505,10.9312,11.2176,11.4378,11.5993,11.5993,11.5993,11.5993,11.5993,11.5993,11.592,11.4909,11.4042,11.3415,11.1891,11.0973,11.032,10.9886,10.9668,10.9813,11.0175,11.0103,10.9813,14.2672,14.313,14.3589,14.3589,14.5499,14.6798,14.6034,14.7027,14.7333,14.5881,14.5041,14.42,14.3283,14.2595,14.1831,14.0761,14.0685,14.0761,14.0914,14.0761,13.9997,13.8469,13.8316,13.7475,13.587,13.4189,13.2126,12.9604,13.0368,13.0368,12.9604,13.0368,13.0368,12.9757,13.0521,13.0368,12.9757,13.0521,13.0827,13.0827,13.0827,13.0827,13.0827,13.0827,13.0827,13.0827,13.0827,13.0827,13.0827,13.0827,13.0827,13.0827,13.0827,13.0827,13.0827,13.0827,13.0827,13.0827,13.0827,13.0674,13.0598,13.0598,12.9986,12.9222,12.8305,12.7465,12.6395,12.479,12.3873,12.3109,12.2268,12.1275,11.9899,11.7607,11.4015,10.9345,10.3338,0.0,0.0,9.6176,9.8741,10.1017,10.1971,10.388,10.4908,10.432,10.5495,0.0,0.0,10.5568,10.5862,10.4687,10.733,10.9312,11.0414,11.2396,11.4158,11.5773,11.5773,11.592,11.5993,11.5993,11.592,11.5773,11.4689,11.3531,11.2613,11.16,11.0609,10.9668,10.9668,10.9813,10.9886,10.9886,10.9886,10.9886,14.42,14.4429,14.4506,14.4506,14.5423,14.611,14.5881,14.5499,14.5193,14.4888,14.4124,14.3283,14.2519,14.229,14.1602,13.9921,13.9768,14.0073,14.0914,14.0226,13.9386,13.8392,13.7705,13.6864,13.587,13.4189,13.2126,12.9604,13.0368,13.0368,12.9604,13.0368,13.0674,13.0598,13.0674,13.0674,13.0598,13.0674,13.0827,13.0827,13.0827,13.0827,13.0827,13.0827,13.0827,13.0827,13.0827,13.0827,13.0827,13.0827,13.0827,13.0827,13.0827,13.0827,13.0827,13.0827,13.0827,13.0827,13.0827,13.0292,12.9757,12.9757,12.9069,12.8305,12.7465,12.6624,12.5707,12.4714,12.3873,12.3262,12.3109,12.1198,11.9288,11.8294,11.2869,10.731,0.0,0.0,9.9291,9.7723,10.0429,10.2925,10.4394,10.4908,10.5422,10.6009,10.5568,10.5495,10.6009,10.6302,10.689,10.7991,10.8505,10.9826,11.2029,11.2396,11.3424,11.4965,11.4965,11.5332,11.5993,11.5993,11.5626,11.4892,11.3883,11.282,11.1811,11.0654,11.0078,10.9668,10.9668,11.0103,11.0682,11.0682,11.0682,11.0682,14.3971,14.3971,14.3971,14.3971,14.4276,14.4735,14.5193,14.4888,14.4429,14.3512,14.2977,14.2366,14.1602,14.1525,14.122,14.0379,14.0303,14.0456,14.0914,13.9691,13.8622,13.7705,13.7322,13.6329,13.4495,13.3272,13.1668,12.9604,12.9986,12.9986,12.9604,13.0368,13.0827,13.0827,13.0827,13.0827,13.0827,13.0827,13.0827,13.0827,13.0827,13.0827,13.0827,13.0827,13.0827,13.0827,13.0827,13.0827,13.0827,13.0827,13.0827,13.0827,13.0827,13.0827,13.0827,13.0827,13.0827,13.0827,13.0827,13.0521,13.0063,12.9681,12.8611,12.7388,12.6624,12.5707,12.4714,12.3414,12.3185,12.3032,12.2115,12.0281,11.8371,11.7072,11.1188,0.0,0.0,10.1482,9.9955,10.0463,10.2433,10.4614,10.6302,10.6376,10.6596,10.6963,10.667,10.6376,10.6376,10.6376,10.733,10.9386,10.99,11.0781,11.2396,11.2763,11.357,11.4818,11.5185,11.5626,11.5993,11.5993,11.5626,11.4745,11.3644,11.2488,11.1592,11.0414,10.9765,10.9668,10.9668,10.9886,11.032,11.032,11.032,11.032,14.3818,14.3894,14.3894,14.3512,14.3589,14.3818,14.4124,14.4124,14.3589,14.206,14.1907,14.1602,14.099,14.0685,14.0456,14.0303,14.0303,14.0226,13.9768,13.8698,13.7857,13.7399,13.7017,13.5565,13.3119,13.2585,13.1362,12.9299,12.9681,12.9757,12.9604,13.0368,13.0827,13.0827,13.0827,13.0827,13.0827,13.0827,13.0827,13.0827,13.0827,13.0827,13.0827,13.0827,13.0827,13.0827,13.0827,13.0827,13.0827,13.0827,13.0827,13.0827,13.0827,13.0827,13.0827,13.0827,13.0674,13.0521,13.0521,13.0216,12.9834,12.9222,12.7923,12.6624,12.5707,12.5019,12.4102,12.2574,12.2727,12.2574,12.1275,11.9211,11.7225,11.5696,0.0,0.0,0.0,10.2538,10.1544,10.2967,10.4606,10.6194,10.7741,10.7941,10.7918,10.7918,10.7697,10.7257,10.667,10.667,10.7697,10.99,11.1001,11.1735,11.2102,11.291,11.3717,11.4525,11.5332,11.5773,11.5993,11.5993,11.5479,11.4525,11.3405,11.2415,11.13,11.0174,10.9837,10.9668,10.9668,10.9813,10.9958,10.9813,10.9813,10.9958,14.4582,14.5193,14.5193,14.3665,14.4124,14.4124,14.2595,14.2366,14.206,14.1067,14.099,14.099,14.0914,14.0226,13.9386,13.8622,13.8622,13.7934,13.6405,13.6864,13.7475,13.8316,13.6788,13.4801,13.2202,13.289,13.1591,12.8382,12.9986,13.0292,12.9604,13.0368,13.0827,13.0827,13.0827,13.0827,13.0827,13.0827,13.0827,13.0827,13.0827,13.0827,13.0827,13.0827,13.0827,13.0827,13.0827,13.0827,13.0827,13.0827,13.0827,13.0827,13.0827,13.0827,13.0827,13.0827,13.0292,12.9681,12.9681,12.8611,12.7388,12.7312,12.6624,12.5707,12.479,12.4484,12.4331,12.3414,12.2574,12.2115,12.1886,11.86,11.562,11.4703,0.0,0.0,10.493,10.4382,10.4395,10.4677,10.6246,10.7586,10.8399,10.8644,10.8725,10.8725,10.7991,10.7551,10.7477,10.7477,10.8285,10.99,11.1515,11.2029,11.1295,11.2102,11.291,11.3717,11.4525,11.5332,11.5993,11.5993,11.5185,11.3717,11.3297,11.2143,11.0498,11.0218,10.9861,10.9668,10.9668,11.0175,11.0682,10.9958,11.0175,11.0682,14.3971,14.4124,14.3971,14.2901,14.2519,14.229,14.2213,14.1678,14.1296,14.0914,14.0914,14.0685,14.0226,13.9768,13.9309,13.8469,13.8392,13.8087,13.7475,13.717,13.7017,13.6864,13.5718,13.4189,13.2126,13.1362,13.0368,12.9069,12.9222,12.9604,13.0368,13.0674,13.0827,13.0827,13.0827,13.0827,13.0827,13.0827,13.0827,13.0827,13.0292,13.0368,13.0674,12.9604,12.9604,13.0063,13.0063,13.0063,13.0063,13.0598,13.0827,13.0827,13.0827,13.0827,13.0827,13.0827,13.0216,12.9604,12.9604,12.9069,12.8687,12.8687,12.7617,12.6395,12.5478,12.4866,12.4331,12.3491,12.3032,12.2574,12.2115,11.9364,11.6995,11.6231,0.0,10.8615,10.917,10.7548,10.6767,10.8401,10.9186,10.9746,11.012,11.0573,11.0497,10.9378,10.966,10.9267,10.8305,10.9129,10.99,10.9973,11.1588,11.2029,11.1221,11.2029,11.2763,11.357,11.4378,11.5185,11.5993,11.5479,11.4672,11.357,11.2766,11.1612,11.0425,10.9956,10.9837,10.9668,10.9668,10.9886,11.0103,10.9813,10.9886,11.0103,14.3512,14.3436,14.313,14.229,14.1678,14.1373,14.1678,14.1296,14.0914,14.0914,14.0914,14.0685,14.0073,13.9539,13.9004,13.8392,13.8087,13.7857,13.7628,13.7093,13.6405,13.5488,13.4877,13.3731,13.1668,13.0598,12.991,12.9604,12.8993,12.9375,13.0827,13.0827,13.0827,13.0827,13.0827,13.0827,13.0827,13.0827,13.0674,13.0368,13.0063,13.0216,13.0292,12.9069,12.9069,12.9604,12.9604,12.9604,12.9681,13.0521,13.0827,13.0827,13.0827,13.0827,13.0827,13.0827,13.0216,12.9681,12.991,12.9757,12.9528,12.9299,12.8076,12.693,12.6318,12.5325,12.4331,12.3797,12.3262,12.2727,12.2115,11.9976,11.7989,11.7072,11.3633,11.1417,11.2563,11.064,10.9828,11.1805,11.1639,11.1261,11.1336,11.166,11.1521,11.062,11.0648,11.018,10.9125,11.0245,11.0707,11.0414,11.1368,11.1808,11.1221,11.2029,11.2763,11.357,11.4158,11.4818,11.5626,11.4818,11.3937,11.304,11.207,11.1227,11.0239,10.9933,10.9668,10.9668,10.9668,10.9668,10.9668,10.9668,10.9668,10.9668,14.3436,14.3436,14.313,14.229,14.2213,14.1907,14.099,14.0914,14.0914,14.0914,14.0914,14.0914,14.0914,13.9386,13.8392,13.8392,13.7628,13.6788,13.6023,13.587,13.5488,13.4571,13.4571,13.3425,13.0903,13.0827,13.0368,12.9604,12.9604,12.9986,13.0827,13.0827,13.0827,13.0827,13.0827,13.0827,13.0827,13.0827,13.0292,12.9681,13.0521,13.0292,12.9604,12.9604,12.9604,12.9604,12.9604,12.9604,12.9681,13.0521,13.0827,13.0827,13.0827,13.0827,13.0827,13.0827,13.0216,12.9757,13.0598,13.0216,12.9375,12.8534,12.7694,12.7082,12.7082,12.5783,12.4484,12.4484,12.3185,12.1962,12.1962,11.9976,11.7989,11.7225,11.562,11.4474,11.4474,11.3786,11.348,11.4397,11.3137,11.2114,11.2114,11.1403,11.1296,11.2122,11.0797,10.9865,10.9987,10.9973,11.0414,11.1221,11.1221,11.1221,11.1221,11.2029,11.2763,11.357,11.357,11.4011,11.4818,11.4011,11.304,11.2035,11.1758,11.1134,11.0123,10.9765,10.9668,10.9668,10.9668,10.9668,10.9668,10.9668,10.9668,10.9668,14.3632,14.2967,14.229,14.1373,14.1296,14.122,14.0914,14.0914,14.0914,14.0914,14.0914,14.0685,14.0073,13.9539,13.9004,13.8392,13.7628,13.6788,13.6023,13.587,13.5488,13.4571,13.3502,13.2202,13.0827,12.9069,12.8687,12.9604,12.8993,12.9375,13.0827,13.0827,13.0827,13.0827,13.0827,13.0827,13.0827,13.0216,13.0063,13.0292,12.8764,12.8764,12.9375,12.7617,12.7694,12.8687,12.8687,12.8687,12.8764,12.9681,12.9604,12.9222,12.9757,12.9986,13.0063,13.0598,13.0598,13.0521,13.0674,13.0216,12.9528,12.9299,12.8611,12.777,12.7235,12.6165,12.5172,12.4637,12.372,12.2727,12.2115,12.0893,11.9594,11.8065,11.753,11.6995,11.6308,11.5467,11.5467,11.6995,11.5151,11.3744,11.3744,11.2966,11.209,11.1178,11.0809,11.0872,11.165,11.1128,11.1001,11.1221,11.1221,11.1221,11.1221,11.1441,11.2029,11.2763,11.2763,11.3203,11.3864,11.313,11.2526,11.2035,11.1101,11.0457,11.0123,10.9765,10.9668,10.9668,10.9668,10.9668,10.9668,10.9668,10.9668,10.9668,14.3084,14.2408,14.1667,14.1449,14.1067,14.0914,14.0914,14.0914,14.0914,14.0914,14.0914,14.0685,14.0226,13.9768,13.9309,13.8469,13.7322,13.6405,13.587,13.587,13.5412,13.4113,13.2814,13.1668,13.0827,12.8993,12.8611,12.9604,12.9069,12.9528,13.0827,13.0827,13.0827,13.0827,13.0827,13.0827,13.0827,13.0292,13.0216,13.0216,12.8687,12.8687,12.9375,12.7159,12.7388,12.8764,12.8382,12.8305,12.8382,12.9299,12.9222,12.8916,12.9375,12.9757,13.0216,13.0674,13.0827,13.0827,13.0827,13.0216,12.9528,12.9222,12.8534,12.7694,12.7235,12.586,12.4714,12.4102,12.3109,12.2192,12.158,12.1122,12.0511,11.9517,11.8982,11.8677,11.8524,11.753,11.7225,11.86,11.6231,11.4474,11.4474,11.3098,11.1923,11.1326,11.1372,11.169,11.2348,11.1594,11.1221,11.1221,11.1221,11.1221,11.1221,11.1221,11.1588,11.2396,11.2102,11.2322,11.3057,11.2233,11.1613,11.1266,11.0644,11.0218,10.9861,10.9837,10.9668,10.9668,10.9668,10.9668,10.9668,10.9668,10.9668,10.9668,14.2305,14.1706,14.126,14.1973,14.1373,14.0761,14.0914,14.0761,14.0761,14.0914,14.0914,14.0914,14.0761,14.0073,13.9309,13.8469,13.6864,13.6023,13.587,13.587,13.5183,13.3502,13.2585,13.182,13.0827,12.991,12.9528,12.9604,12.9604,12.9986,13.0827,13.0827,13.0827,13.0827,13.0827,13.0827,13.0827,13.0598,13.0216,12.9604,12.9375,12.9375,12.9299,12.7694,12.8076,12.9528,12.8611,12.8305,12.8382,12.8993,12.9222,12.9222,12.9299,12.9757,13.0292,13.0521,13.0521,13.0521,13.0598,12.9986,12.9222,12.8382,12.7617,12.7006,12.693,12.5096,12.3414,12.3185,12.1962,12.0893,12.0816,12.0816,12.0816,12.0816,12.0128,11.9823,12.0587,11.9288,11.86,11.9288,11.646,11.4474,11.4474,11.2257,11.1206,11.2084,11.2156,11.2289,11.2427,11.1594,11.1221,11.1221,11.1221,11.1221,11.1221,11.1221,11.1588,11.2322,11.1588,11.1588,11.2322,11.1337,11.07,11.0425,11.0145,11.0028,10.9668,10.9668,10.9668,10.9668,10.9668,10.9668,10.9668,10.9668,10.9668,10.9668,14.2608,14.1892,14.117,14.126,14.0444,14.0073,14.0761,14.0303,14.0073,14.0761,14.0914,14.0608,13.9997,13.9691,13.9309,13.8469,13.7399,13.6558,13.587,13.587,13.5412,13.4419,13.3502,13.2279,13.0827,12.9299,12.8916,12.9604,12.9604,12.9986,13.0827,13.0827,13.0827,13.0827,13.0827,13.0827,13.0674,12.9375,12.9069,12.9375,12.7388,12.7388,12.8534,12.7465,12.8076,12.9528,12.8611,12.8305,12.8076,12.7006,12.6165,12.5783,12.7235,12.6777,12.6318,12.8305,12.8382,12.7999,12.8687,12.8305,12.7617,12.7388,12.67,12.586,12.5172,12.4637,12.3873,12.2574,12.1962,12.1504,12.0893,12.0816,12.0816,12.0816,12.0128,11.9594,11.9823,11.8906,11.8371,11.8524,11.6155,11.4474,11.4474,11.2792,11.2129,11.2938,11.2494,11.2502,11.3183,11.1856,11.1221,11.1221,11.1221,11.1221,11.1221,11.1221,11.1295,11.1515,11.1295,11.1295,11.1515,11.1206,11.0954,11.0425,11.0332,11.0051,10.9668,10.9668,10.9668,10.9668,10.9668,10.9668,10.9668,10.9668,10.9668,10.9668,14.2188,14.1841,14.1278,14.1094,14.0724,14.0291,14.0303,13.9921,13.9615,13.9691,13.9691,13.9462,13.908,13.9004,13.8698,13.7857,13.7017,13.6329,13.587,13.5488,13.4877,13.396,13.3196,13.1897,13.0292,12.9681,12.9528,12.9604,12.9986,13.0368,13.0827,13.0827,13.0827,13.0827,13.0368,13.0216,13.0063,12.884,12.8611,12.8764,12.7082,12.7235,12.8229,12.693,12.7465,12.8916,12.7999,12.7694,12.7465,12.5783,12.5172,12.5172,12.5707,12.5783,12.5936,12.6777,12.7388,12.7694,12.7694,12.7388,12.7082,12.7082,12.6089,12.5096,12.4637,12.4179,12.3567,12.2268,12.1733,12.1275,12.0893,12.0816,12.074,12.0205,11.9823,11.9364,11.8982,11.86,11.8065,11.7683,11.5773,11.4015,11.2792,11.1875,11.1723,11.2563,11.2327,11.2391,11.2873,11.2046,11.1582,11.1221,11.1221,11.1221,11.1221,11.1221,11.1001,11.0634,11.1001,11.1221,11.1221,11.1133,11.0791,11.0425,11.0332,11.0051,10.9668,10.9668,10.9523,10.9089,10.9089,10.8871,10.8582,10.8582,10.8582,10.8582,14.1707,14.1573,14.1515,14.1064,14.0773,14.0405,13.959,13.9297,13.9068,13.8456,13.8456,13.838,13.8227,13.815,13.7692,13.7004,13.6392,13.601,13.601,13.5245,13.4404,13.341,13.2646,13.1575,12.9893,13.0505,13.0368,12.9604,13.0368,13.0827,13.0827,13.0674,13.0598,13.0598,12.9681,12.9375,12.9299,12.8534,12.8076,12.7999,12.7235,12.7388,12.7923,12.6624,12.7006,12.8229,12.7388,12.7006,12.6624,12.5019,12.4866,12.5172,12.4484,12.5172,12.6089,12.5478,12.6471,12.7541,12.6777,12.6777,12.6777,12.67,12.5631,12.4408,12.4102,12.3567,12.2803,12.1962,12.1275,12.0816,12.0816,12.0816,12.0587,11.9823,11.9517,11.9059,11.8371,11.8218,11.7683,11.669,11.5085,11.3174,11.0882,11.0806,11.1188,11.1875,11.209,11.2093,11.2179,11.2066,11.1724,11.1189,11.1089,11.1001,11.1001,11.1001,11.0707,10.9973,11.0707,11.1001,11.1001,11.0881,11.07,11.0425,11.0218,10.9861,10.9668,10.9596,10.9089,10.8509,10.8292,10.793,10.735,10.735,10.735,10.7423,14.195,14.1686,14.1419,14.0594,13.9787,13.9055,13.8902,13.8289,13.8135,13.8672,13.8672,13.8382,13.7648,13.6898,13.6347,13.6449,13.6296,13.6219,13.6219,13.6142,13.5376,13.3766,13.3613,13.2712,13.0853,13.1006,13.0565,12.9604,13.0368,13.0827,13.0827,13.0063,12.9757,12.9681,12.8916,12.8534,12.8382,12.7617,12.7312,12.7159,12.6318,12.6471,12.7235,12.7006,12.7465,12.8229,12.7388,12.6624,12.5783,12.479,12.4102,12.3567,12.3491,12.3109,12.2803,12.3491,12.4331,12.5019,12.4943,12.5401,12.5783,12.5019,12.4714,12.4102,12.2727,12.2268,12.1886,12.1122,12.0893,12.0816,12.0816,12.0816,12.0816,12.0587,11.9364,11.8371,11.8294,11.7683,11.6613,11.5008,11.3404,11.1875,11.0806,11.1417,11.1875,11.2028,11.209,11.2053,11.2143,11.0941,11.0481,11.1144,11.0551,11.0193,11.0193,11.0193,11.012,10.9973,11.012,11.0193,11.0193,11.0588,11.07,11.0425,11.0218,10.9861,10.9596,10.8871,10.8582,10.8364,10.7712,10.7423,10.735,10.735,10.735,10.735,14.1874,14.1434,14.0917,14.0421,13.9596,13.8848,13.8194,13.7811,13.7581,13.7427,13.7427,13.7139,13.6773,13.639,13.6219,13.6277,13.6277,13.6277,13.6277,13.5434,13.459,13.3823,13.2903,13.2003,13.118,13.118,13.0969,13.0412,13.0734,13.0827,13.0827,13.0368,12.9986,12.9604,12.8687,12.8076,12.7617,12.67,12.6395,12.6318,12.6013,12.6013,12.6395,12.6395,12.6624,12.6777,12.5936,12.5401,12.4866,12.3491,12.288,12.2574,12.2574,12.2574,12.2803,12.3185,12.4179,12.5096,12.4637,12.5096,12.5631,12.4714,12.4179,12.3491,12.2268,12.1657,12.1198,12.0893,12.0816,12.074,12.0205,12.0511,12.0281,11.8906,11.8524,11.7989,11.6995,11.6537,11.5696,11.4015,11.2334,11.1111,11.0729,11.1035,11.1264,11.1264,11.1816,11.1786,11.1432,11.1242,11.0863,11.0411,11.0088,10.9676,10.9312,10.9312,10.9092,10.8652,10.9092,10.9606,10.9973,11.0692,11.0278,10.9112,10.953,10.9178,10.8292,10.8002,10.7568,10.7133,10.6771,10.6409,10.6046,10.6481,10.6336,10.6046]},{"header":{"parameterUnit":"m.s-1","parameterCategory":1,"la1":30.6,"la2":28.766,"lo1":-90.7593,"lo2":-88.6598,"dx":0.0162,"dy":0.0183,"nx":116,"ny":114,"refTime":"2023-02-14T06:00:00:Z","depth":0,"parameterNumber":3,"parameterNumberName":"V-component_of_WINDS"},"data":[0.0,0.0,0.0,0.0,0.0,0.0,0.0,0.0,0.0,0.0,0.0,0.0,0.0,0.0,0.0,0.0,0.0,0.0,0.0,0.0,0.0,0.0,0.0,0.0,0.0,0.0,0.0,0.0,0.0,0.0,0.0,0.0,0.0,0.0,0.0,0.0,0.0,0.0,0.0,0.0,0.0,0.0,0.0,0.0,0.0,0.0,0.0,0.0,0.0,0.0,0.0,0.0,0.0,0.0,0.0,0.0,0.0,0.0,0.0,0.0,0.0,0.0,0.0,0.0,0.0,0.0,0.0,0.0,0.0,0.0,0.0,0.0,0.0,0.0,0.0,0.0,0.0,0.0,0.0,0.0,0.0,0.0,0.0,0.0,0.0,0.0,0.0,0.0,0.0,0.0,0.0,0.0,0.0,0.0,0.0,0.0,0.0,0.0,0.0,0.0,0.0,0.0,0.0,0.0,0.0,0.0,0.0,0.0,0.0,0.0,0.0,0.0,0.0,0.0,0.0,0.0,0.0,0.0,0.0,0.0,0.0,0.0,0.0,0.0,0.0,0.0,0.0,0.0,0.0,0.0,0.0,0.0,0.0,0.0,0.0,0.0,0.0,0.0,0.0,0.0,0.0,0.0,0.0,0.0,0.0,0.0,0.0,0.0,0.0,0.0,0.0,0.0,0.0,0.0,0.0,0.0,0.0,0.0,0.0,0.0,0.0,0.0,0.0,0.0,0.0,0.0,0.0,0.0,0.0,0.0,0.0,0.0,0.0,0.0,0.0,0.0,0.0,0.0,0.0,0.0,0.0,0.0,0.0,0.0,0.0,0.0,0.0,0.0,0.0,0.0,0.0,0.0,0.0,0.0,0.0,0.0,0.0,0.0,0.0,0.0,0.0,0.0,0.0,0.0,0.0,0.0,0.0,0.0,0.0,0.0,0.0,0.0,0.0,0.0,0.0,0.0,0.0,0.0,0.0,0.0,0.0,0.0,0.0,0.0,0.0,0.0,0.0,0.0,0.0,0.0,0.0,0.0,0.0,0.0,0.0,0.0,0.0,0.0,0.0,0.0,0.0,0.0,0.0,0.0,0.0,0.0,0.0,0.0,0.0,0.0,0.0,0.0,0.0,0.0,0.0,0.0,0.0,0.0,0.0,0.0,0.0,0.0,0.0,0.0,0.0,0.0,0.0,0.0,0.0,0.0,0.0,0.0,0.0,0.0,0.0,0.0,0.0,0.0,0.0,0.0,0.0,0.0,0.0,0.0,0.0,0.0,0.0,0.0,0.0,0.0,0.0,0.0,0.0,0.0,0.0,0.0,0.0,0.0,0.0,0.0,0.0,0.0,0.0,0.0,0.0,0.0,0.0,0.0,0.0,0.0,0.0,0.0,0.0,0.0,0.0,0.0,0.0,0.0,0.0,0.0,0.0,0.0,0.0,0.0,0.0,0.0,0.0,0.0,0.0,0.0,0.0,0.0,0.0,0.0,0.0,0.0,0.0,0.0,0.0,0.0,0.0,0.0,0.0,0.0,0.0,0.0,0.0,0.0,0.0,0.0,0.0,0.0,0.0,0.0,0.0,0.0,0.0,0.0,0.0,0.0,0.0,0.0,0.0,0.0,0.0,0.0,0.0,0.0,0.0,0.0,0.0,0.0,0.0,0.0,0.0,0.0,0.0,0.0,0.0,0.0,0.0,0.0,0.0,0.0,0.0,0.0,0.0,0.0,0.0,0.0,0.0,0.0,0.0,0.0,0.0,0.0,0.0,0.0,0.0,0.0,0.0,0.0,0.0,0.0,0.0,0.0,0.0,0.0,0.0,0.0,0.0,0.0,0.0,0.0,0.0,0.0,0.0,0.0,0.0,0.0,0.0,0.0,0.0,0.0,0.0,0.0,0.0,0.0,0.0,0.0,0.0,0.0,0.0,0.0,0.0,0.0,0.0,0.0,0.0,0.0,0.0,0.0,0.0,0.0,0.0,0.0,0.0,0.0,0.0,0.0,0.0,0.0,0.0,0.0,0.0,0.0,0.0,0.0,0.0,0.0,0.0,0.0,0.0,0.0,0.0,0.0,0.0,0.0,0.0,0.0,0.0,0.0,0.0,0.0,0.0,0.0,0.0,0.0,0.0,0.0,0.0,0.0,0.0,0.0,0.0,0.0,0.0,0.0,0.0,0.0,0.0,0.0,0.0,0.0,0.0,0.0,0.0,0.0,0.0,0.0,0.0,0.0,0.0,0.0,0.0,0.0,0.0,0.0,0.0,0.0,0.0,0.0,0.0,0.0,0.0,0.0,0.0,0.0,0.0,0.0,0.0,0.0,0.0,0.0,0.0,0.0,0.0,0.0,0.0,0.0,0.0,0.0,0.0,0.0,0.0,0.0,0.0,0.0,0.0,0.0,0.0,0.0,0.0,0.0,0.0,0.0,0.0,0.0,0.0,0.0,0.0,0.0,0.0,0.0,0.0,0.0,0.0,0.0,0.0,0.0,0.0,0.0,0.0,0.0,0.0,0.0,0.0,0.0,0.0,0.0,0.0,0.0,0.0,0.0,0.0,0.0,0.0,0.0,0.0,0.0,0.0,0.0,0.0,0.0,0.0,0.0,0.0,0.0,0.0,0.0,0.0,0.0,0.0,0.0,0.0,0.0,0.0,0.0,0.0,0.0,0.0,0.0,0.0,0.0,0.0,0.0,0.0,0.0,0.0,0.0,0.0,0.0,0.0,0.0,0.0,0.0,0.0,0.0,0.0,0.0,0.0,0.0,0.0,0.0,0.0,0.0,0.0,0.0,0.0,0.0,0.0,0.0,0.0,0.0,0.0,0.0,0.0,0.0,0.0,0.0,0.0,0.0,0.0,0.0,0.0,0.0,0.0,0.0,0.0,0.0,0.0,0.0,0.0,0.0,0.0,0.0,0.0,0.0,0.0,0.0,0.0,0.0,0.0,0.0,0.0,0.0,0.0,0.0,0.0,0.0,0.0,0.0,0.0,0.0,0.0,0.0,0.0,0.0,0.0,0.0,0.0,0.0,0.0,0.0,0.0,0.0,0.0,0.0,0.0,0.0,0.0,0.0,0.0,0.0,0.0,0.0,0.0,0.0,0.0,0.0,0.0,0.0,0.0,0.0,0.0,0.0,0.0,0.0,0.0,0.0,0.0,0.0,0.0,0.0,0.0,0.0,0.0,0.0,0.0,0.0,0.0,0.0,0.0,0.0,0.0,0.0,0.0,0.0,0.0,0.0,0.0,0.0,0.0,0.0,0.0,0.0,0.0,0.0,0.0,0.0,0.0,0.0,0.0,0.0,0.0,0.0,0.0,0.0,0.0,0.0,0.0,0.0,0.0,0.0,0.0,0.0,0.0,0.0,0.0,0.0,0.0,0.0,0.0,0.0,0.0,0.0,0.0,0.0,0.0,0.0,0.0,0.0,0.0,0.0,0.0,0.0,0.0,0.0,0.0,0.0,0.0,0.0,0.0,0.0,0.0,0.0,0.0,0.0,0.0,0.0,0.0,0.0,0.0,0.0,0.0,0.0,0.0,0.0,0.0,0.0,0.0,0.0,0.0,0.0,0.0,0.0,0.0,0.0,0.0,0.0,0.0,0.0,0.0,0.0,0.0,0.0,0.0,0.0,0.0,0.0,0.0,0.0,0.0,0.0,0.0,0.0,0.0,0.0,0.0,0.0,0.0,0.0,0.0,0.0,0.0,0.0,0.0,0.0,0.0,0.0,0.0,0.0,0.0,0.0,0.0,0.0,0.0,0.0,0.0,0.0,0.0,0.0,0.0,0.0,0.0,0.0,0.0,0.0,0.0,0.0,0.0,0.0,0.0,0.0,0.0,0.0,0.0,0.0,0.0,0.0,0.0,0.0,0.0,0.0,0.0,0.0,0.0,0.0,0.0,0.0,0.0,0.0,0.0,0.0,0.0,0.0,0.0,0.0,0.0,0.0,0.0,0.0,0.0,0.0,0.0,0.0,0.0,0.0,0.0,0.0,0.0,0.0,0.0,0.0,0.0,0.0,0.0,0.0,0.0,0.0,0.0,0.0,0.0,0.0,0.0,0.0,0.0,0.0,0.0,0.0,0.0,0.0,0.0,0.0,0.0,0.0,0.0,0.0,0.0,0.0,0.0,0.0,0.0,0.0,0.0,0.0,0.0,0.0,0.0,0.0,0.0,0.0,0.0,0.0,0.0,0.0,0.0,0.0,0.0,0.0,0.0,0.0,0.0,0.0,0.0,0.0,0.0,0.0,0.0,0.0,0.0,0.0,0.0,0.0,0.0,0.0,0.0,0.0,0.0,0.0,0.0,0.0,0.0,0.0,0.0,0.0,0.0,0.0,0.0,0.0,0.0,0.0,0.0,0.0,0.0,0.0,0.0,0.0,0.0,0.0,0.0,0.0,0.0,0.0,0.0,0.0,0.0,0.0,0.0,0.0,0.0,0.0,0.0,0.0,0.0,0.0,0.0,0.0,0.0,0.0,0.0,0.0,0.0,0.0,0.0,0.0,0.0,0.0,0.0,0.0,0.0,0.0,0.0,0.0,0.0,0.0,0.0,0.0,0.0,0.0,0.0,0.0,0.0,0.0,0.0,0.0,0.0,0.0,0.0,0.0,0.0,0.0,0.0,0.0,0.0,0.0,0.0,0.0,0.0,0.0,0.0,0.0,0.0,0.0,0.0,0.0,0.0,0.0,0.0,0.0,0.0,0.0,0.0,0.0,0.0,0.0,0.0,0.0,0.0,0.0,0.0,0.0,0.0,0.0,0.0,0.0,0.0,0.0,0.0,0.0,0.0,0.0,0.0,0.0,0.0,0.0,0.0,0.0,0.0,0.0,0.0,0.0,0.0,0.0,0.0,0.0,0.0,0.0,0.0,0.0,0.0,0.0,0.0,0.0,0.0,0.0,0.0,0.0,0.0,0.0,0.0,0.0,0.0,0.0,0.0,0.0,0.0,0.0,0.0,0.0,0.0,0.0,0.0,0.0,0.0,0.0,0.0,0.0,0.0,0.0,0.0,0.0,0.0,0.0,0.0,0.0,0.0,0.0,0.0,0.0,0.0,0.0,0.0,0.0,0.0,0.0,0.0,0.0,0.0,0.0,0.0,0.0,0.0,0.0,0.0,0.0,0.0,0.0,0.0,0.0,0.0,0.0,0.0,0.0,0.0,0.0,0.0,0.0,0.0,0.0,0.0,0.0,0.0,0.0,0.0,0.0,0.0,0.0,0.0,0.0,0.0,0.0,0.0,0.0,0.0,0.0,0.0,0.0,0.0,0.0,0.0,0.0,0.0,0.0,0.0,0.0,0.0,0.0,0.0,0.0,0.0,0.0,0.0,0.0,0.0,0.0,0.0,0.0,0.0,0.0,0.0,0.0,0.0,0.0,0.0,0.0,0.0,0.0,0.0,0.0,0.0,0.0,0.0,0.0,0.0,0.0,0.0,0.0,0.0,0.0,0.0,0.0,0.0,0.0,0.0,0.0,0.0,0.0,0.0,0.0,0.0,0.0,0.0,0.0,0.0,0.0,0.0,0.0,0.0,0.0,0.0,0.0,0.0,0.0,0.0,0.0,0.0,0.0,0.0,0.0,0.0,0.0,0.0,0.0,0.0,0.0,0.0,0.0,0.0,0.0,0.0,0.0,0.0,0.0,0.0,0.0,0.0,0.0,0.0,0.0,0.0,0.0,0.0,0.0,0.0,0.0,0.0,0.0,0.0,0.0,0.0,0.0,0.0,0.0,0.0,0.0,0.0,0.0,0.0,0.0,0.0,0.0,0.0,0.0,0.0,0.0,0.0,0.0,0.0,0.0,0.0,0.0,0.0,0.0,0.0,0.0,0.0,0.0,0.0,0.0,0.0,0.0,0.0,0.0,0.0,0.0,0.0,0.0,0.0,0.0,0.0,0.0,0.0,0.0,0.0,0.0,0.0,0.0,0.0,0.0,0.0,0.0,0.0,0.0,0.0,0.0,0.0,0.0,0.0,0.0,0.0,0.0,0.0,0.0,0.0,0.0,0.0,0.0,0.0,0.0,0.0,0.0,0.0,0.0,0.0,0.0,0.0,0.0,0.0,0.0,0.0,0.0,0.0,0.0,0.0,0.0,0.0,0.0,0.0,0.0,-3.1402,0.0,0.0,0.0,0.0,0.0,0.0,0.0,0.0,0.0,0.0,0.0,0.0,0.0,0.0,0.0,0.0,0.0,0.0,0.0,0.0,0.0,0.0,0.0,0.0,0.0,0.0,0.0,0.0,0.0,0.0,0.0,0.0,0.0,0.0,0.0,0.0,0.0,0.0,0.0,0.0,0.0,0.0,0.0,0.0,0.0,0.0,0.0,0.0,0.0,0.0,0.0,0.0,0.0,0.0,0.0,0.0,0.0,0.0,0.0,0.0,0.0,0.0,0.0,0.0,0.0,0.0,0.0,0.0,0.0,0.0,0.0,0.0,0.0,0.0,0.0,0.0,0.0,0.0,0.0,0.0,0.0,0.0,0.0,0.0,0.0,0.0,0.0,0.0,0.0,0.0,0.0,0.0,0.0,0.0,0.0,0.0,0.0,0.0,0.0,0.0,0.0,0.0,0.0,0.0,0.0,0.0,0.0,0.0,0.0,0.0,0.0,0.0,0.0,0.0,0.0,0.0,-3.2105,0.0,0.0,0.0,0.0,0.0,0.0,0.0,0.0,0.0,0.0,0.0,0.0,0.0,0.0,0.0,0.0,0.0,0.0,0.0,0.0,0.0,0.0,0.0,0.0,0.0,0.0,0.0,0.0,0.0,0.0,0.0,0.0,0.0,0.0,0.0,0.0,0.0,0.0,0.0,0.0,0.0,0.0,0.0,0.0,0.0,0.0,0.0,0.0,0.0,0.0,0.0,0.0,0.0,0.0,0.0,0.0,0.0,0.0,0.0,0.0,0.0,0.0,0.0,0.0,0.0,0.0,0.0,0.0,0.0,0.0,0.0,0.0,0.0,0.0,0.0,0.0,0.0,0.0,0.0,0.0,0.0,0.0,0.0,0.0,0.0,0.0,0.0,0.0,0.0,0.0,0.0,0.0,0.0,0.0,0.0,0.0,0.0,0.0,0.0,0.0,0.0,0.0,0.0,0.0,0.0,0.0,0.0,0.0,0.0,0.0,-3.5295,-3.5295,-3.5617,-3.6056,-3.4475,-3.3539,-3.3129,0.0,0.0,0.0,0.0,0.0,0.0,0.0,0.0,0.0,0.0,0.0,0.0,0.0,0.0,0.0,0.0,0.0,0.0,0.0,0.0,0.0,0.0,0.0,0.0,0.0,0.0,0.0,0.0,0.0,0.0,0.0,0.0,0.0,0.0,0.0,0.0,0.0,0.0,0.0,-2.2699,-2.2907,-2.3153,-2.3546,-2.3925,0.0,0.0,0.0,0.0,0.0,0.0,0.0,0.0,0.0,0.0,0.0,0.0,0.0,0.0,0.0,0.0,0.0,0.0,0.0,0.0,0.0,0.0,0.0,0.0,0.0,0.0,0.0,0.0,0.0,0.0,0.0,0.0,0.0,0.0,0.0,0.0,0.0,0.0,0.0,0.0,0.0,0.0,0.0,-3.0389,-3.0378,0.0,0.0,0.0,0.0,0.0,0.0,0.0,0.0,0.0,0.0,0.0,0.0,0.0,0.0,-3.4036,-3.509,-3.5675,-3.5822,-3.667,-3.7256,-3.7636,-3.7636,-3.7812,-3.8134,-3.79,0.0,-3.4768,-3.3861,0.0,0.0,0.0,0.0,0.0,0.0,0.0,0.0,0.0,0.0,0.0,0.0,0.0,0.0,0.0,0.0,0.0,0.0,0.0,0.0,0.0,0.0,0.0,0.0,0.0,0.0,0.0,0.0,0.0,0.0,0.0,0.0,0.0,0.0,0.0,0.0,-2.2906,-2.2211,-2.1949,-2.2259,-2.2267,-2.2604,-2.2472,-2.2631,-2.3,-2.4183,0.0,0.0,0.0,0.0,0.0,0.0,0.0,0.0,0.0,0.0,0.0,0.0,0.0,0.0,0.0,0.0,0.0,0.0,0.0,0.0,0.0,0.0,0.0,0.0,0.0,0.0,0.0,0.0,0.0,0.0,0.0,0.0,0.0,0.0,0.0,0.0,0.0,0.0,0.0,-3.0622,-3.1291,-3.0629,-3.1466,-3.1871,0.0,0.0,0.0,0.0,0.0,0.0,0.0,0.0,0.0,-3.4358,-3.4827,-3.55,-3.6378,-3.7109,-3.7753,-3.8309,-3.8748,-3.9217,-3.9685,-3.9509,-3.9597,-3.989,-3.9714,-3.8953,-3.7724,-3.5646,-3.4446,-3.3744,0.0,0.0,0.0,0.0,0.0,0.0,0.0,0.0,0.0,0.0,0.0,0.0,0.0,0.0,0.0,0.0,0.0,0.0,0.0,0.0,0.0,-2.9409,0.0,0.0,0.0,0.0,0.0,0.0,0.0,0.0,0.0,0.0,0.0,0.0,-2.2662,-2.2449,-2.1879,-2.2269,-2.2529,-2.261,-2.2383,-2.227,-2.2102,-2.3158,-2.2487,0.0,0.0,0.0,0.0,0.0,0.0,0.0,0.0,0.0,0.0,0.0,0.0,0.0,0.0,0.0,0.0,0.0,0.0,0.0,0.0,0.0,0.0,0.0,0.0,0.0,0.0,0.0,0.0,0.0,0.0,0.0,0.0,0.0,0.0,0.0,0.0,0.0,0.0,-3.132,-3.2135,-3.0922,-3.2281,-3.2807,0.0,0.0,0.0,0.0,0.0,0.0,-3.3597,-3.4475,-3.5412,-3.6348,-3.6934,-3.7695,-3.866,-3.9158,-3.9802,-4.0621,-4.068,-4.106,-4.1587,-4.1324,-4.1353,-4.1587,-4.1265,-4.0855,-4.027,-3.7607,-3.6027,-3.5178,-3.389,0.0,0.0,0.0,-3.3305,-3.3539,0.0,0.0,0.0,0.0,0.0,0.0,0.0,0.0,0.0,0.0,0.0,0.0,0.0,0.0,-2.8625,-2.897,-2.8898,-2.8898,0.0,0.0,0.0,0.0,0.0,0.0,0.0,0.0,0.0,-2.3225,-2.2659,-2.2678,-2.3179,-2.3699,-2.4121,-2.4446,-2.4105,-2.3146,-2.194,-2.2365,-2.2487,-2.2519,0.0,0.0,0.0,0.0,0.0,0.0,0.0,0.0,0.0,0.0,0.0,0.0,0.0,0.0,0.0,0.0,0.0,0.0,0.0,0.0,0.0,0.0,0.0,0.0,0.0,0.0,0.0,0.0,0.0,0.0,0.0,0.0,0.0,0.0,0.0,0.0,0.0,0.0,0.0,-3.149,-3.3246,0.0,0.0,0.0,0.0,-3.3568,-3.4475,-3.5266,-3.5909,-3.7431,-3.8339,-3.8397,-3.9597,-4.0299,-4.0358,-4.1265,-4.1909,-4.226,-4.2582,-4.2904,-4.3226,-4.3226,-4.3226,-4.3226,-4.2904,-4.2377,-4.1646,-3.9656,-3.8104,-3.6934,-3.6553,-3.6027,-3.547,-3.547,-3.55,-3.55,0.0,0.0,0.0,0.0,0.0,0.0,0.0,0.0,0.0,0.0,0.0,0.0,0.0,-2.9673,-3.0258,-3.051,-2.8831,-2.8359,-3.0153,0.0,0.0,0.0,0.0,0.0,0.0,0.0,-2.3078,-2.303,-2.3203,-2.3829,-2.4641,-2.4949,-2.5161,-2.529,-2.5161,-2.4706,-2.3894,-2.2754,-2.1993,-2.1432,-2.2208,-2.2542,0.0,0.0,0.0,0.0,0.0,0.0,0.0,0.0,0.0,0.0,0.0,0.0,0.0,0.0,0.0,0.0,0.0,0.0,0.0,0.0,0.0,0.0,0.0,0.0,0.0,0.0,0.0,0.0,0.0,0.0,0.0,0.0,0.0,0.0,0.0,0.0,0.0,-3.4183,-3.5909,0.0,0.0,-3.5104,-3.5029,-3.5851,-3.5816,-3.6278,-3.7929,-3.8503,-3.9516,-4.0973,-4.1646,-4.2231,-4.2611,-4.3402,-4.3724,-4.3636,-4.3958,-4.4163,-4.428,-4.3841,-4.3665,-4.3636,-4.3314,-4.2963,-4.2465,-4.1792,-4.0387,-3.8573,-3.7841,-3.7402,-3.7197,-3.7197,-3.7197,-3.7226,0.0,0.0,0.0,0.0,0.0,0.0,0.0,0.0,0.0,0.0,0.0,-2.9105,-2.9959,-2.9718,-2.9855,-3.1316,-2.9583,-2.8958,-3.0608,0.0,0.0,0.0,0.0,0.0,0.0,-2.3899,-2.338,-2.3358,-2.4121,-2.4852,-2.5502,-2.568,-2.581,-2.5843,-2.5843,-2.5761,-2.5485,-2.3991,-2.261,-2.153,-2.1586,-2.1542,-2.1849,0.0,0.0,0.0,0.0,0.0,0.0,0.0,0.0,0.0,0.0,0.0,0.0,0.0,0.0,0.0,0.0,0.0,0.0,0.0,0.0,0.0,0.0,0.0,0.0,0.0,0.0,0.0,0.0,0.0,0.0,0.0,0.0,0.0,0.0,0.0,-3.6407,-3.6319,-3.8104,-3.8924,-3.7841,-3.7258,-3.717,-3.8192,-3.7881,-3.8568,-4.027,-4.0703,-4.1659,-4.3138,-4.3519,-4.387,-4.4309,-4.4836,-4.4982,-4.4631,-4.4982,-4.5099,-4.4953,-4.4514,-4.428,-4.4163,-4.3841,-4.3519,-4.3197,-4.308,-4.2143,-4.068,-3.9626,-3.907,-3.8895,-3.8895,-3.8895,-3.8895,0.0,0.0,0.0,0.0,0.0,0.0,0.0,0.0,0.0,0.0,-2.7169,-2.7724,-3.2893,-2.9577,-2.8165,-3.0982,-3.1095,-3.0708,-2.9986,-3.0279,0.0,0.0,0.0,0.0,-2.3564,-2.3132,-2.3406,-2.4121,-2.4998,-2.5534,-2.5745,-2.5891,-2.6054,-2.6249,-2.6249,-2.633,-2.646,-2.594,-2.4722,-2.2984,-2.1343,-2.1789,-2.3564,0.0,0.0,0.0,0.0,0.0,0.0,0.0,0.0,0.0,0.0,0.0,0.0,0.0,0.0,0.0,0.0,0.0,0.0,0.0,0.0,0.0,0.0,0.0,0.0,0.0,0.0,0.0,0.0,0.0,0.0,0.0,0.0,0.0,-3.3393,-3.6114,-3.8046,-3.7753,-3.9714,-4.0563,-3.9304,-3.884,-3.93,-4.0592,-4.1022,-4.1604,-4.2933,-4.4163,-4.4836,-4.4894,-4.5216,-4.5362,-4.5362,-4.5684,-4.5684,-4.5362,-4.5684,-4.5684,-4.5362,-4.5362,-4.5187,-4.4836,-4.4514,-4.4192,-4.3841,-4.3519,-4.3372,-4.3226,-4.1968,-4.1119,-4.0563,-4.0563,-4.0534,-4.0475,0.0,0.0,0.0,0.0,0.0,0.0,0.0,0.0,0.0,0.0,-3.0529,-3.096,-2.9391,-3.3392,-3.5464,-3.3415,-3.2764,-3.2925,-3.3572,0.0,0.0,0.0,0.0,0.0,-2.5681,-2.4521,-2.4381,-2.5615,-2.5989,-2.6395,-2.6834,-2.6882,-2.6931,-2.698,-2.698,-2.6996,-2.7045,-2.6769,-2.6298,-2.5502,-2.326,-2.2038,-2.1762,0.0,0.0,0.0,0.0,0.0,0.0,0.0,0.0,0.0,0.0,0.0,0.0,0.0,0.0,0.0,0.0,0.0,0.0,0.0,0.0,0.0,0.0,0.0,0.0,0.0,0.0,0.0,0.0,0.0,0.0,0.0,0.0,-3.5792,-3.5705,-3.8075,-4.0036,-4.0651,-4.2289,-4.3255,-4.2904,-4.2934,-4.3284,-4.3958,-4.3714,-4.382,-4.4953,-4.5046,-4.5567,-4.6533,-4.6855,-4.6943,-4.6709,-4.7235,-4.7235,-4.6709,-4.7235,-4.747,-4.7353,-4.7148,-4.6738,-4.6182,-4.586,-4.5128,-4.4192,-4.4075,-4.3782,-4.3314,-4.2699,-4.2377,-4.2172,-4.1938,-4.1704,-4.1411,0.0,0.0,0.0,0.0,0.0,0.0,0.0,0.0,0.0,0.0,-3.0703,-3.1717,-2.8551,-3.3407,-3.5873,-3.2583,-3.3405,-3.3691,-3.2458,0.0,0.0,0.0,0.0,-2.5379,-2.5606,-2.5265,-2.5437,-2.6427,-2.6671,-2.6947,-2.7272,-2.7272,-2.7321,-2.737,-2.737,-2.7418,-2.7483,-2.7305,-2.7126,-2.6817,-2.5128,-2.3829,-2.299,-2.3187,-2.3336,-2.3531,-2.4441,-2.5452,-2.6582,-2.6876,0.0,0.0,0.0,0.0,0.0,0.0,0.0,0.0,0.0,0.0,0.0,0.0,0.0,0.0,0.0,0.0,0.0,0.0,0.0,0.0,0.0,0.0,0.0,0.0,-3.6905,-3.8456,-3.9129,-4.0651,-4.2114,-4.3197,-4.4514,-4.5333,-4.5333,-4.5379,-4.5641,-4.6094,-4.5712,-4.5606,-4.6592,-4.6631,-4.7038,-4.7791,-4.7879,-4.7879,-4.785,-4.8201,-4.8113,-4.7645,-4.8113,-4.8289,-4.8172,-4.7996,-4.747,0.0,-4.6533,-4.5801,-4.4719,-4.4719,-4.4455,0.0,0.0,0.0,0.0,0.0,0.0,-4.2026,0.0,0.0,0.0,0.0,0.0,0.0,0.0,0.0,0.0,0.0,0.0,-3.1119,-2.885,-3.1614,-3.2573,-2.9933,-3.3033,-3.35,0.0,0.0,0.0,-2.4518,-2.5489,-2.5486,-2.4592,-2.5713,-2.6476,-2.6882,-2.7191,-2.7353,-2.7402,-2.7402,-2.7483,-2.7629,-2.7629,-2.7711,-2.7841,-2.7678,-2.7532,-2.7337,-2.6785,-2.6103,-2.5452,-2.4885,-2.4958,-2.5424,-2.5586,-2.6969,-2.8456,-2.8009,0.0,0.0,0.0,0.0,0.0,0.0,0.0,0.0,0.0,0.0,0.0,0.0,0.0,0.0,0.0,0.0,0.0,0.0,0.0,0.0,0.0,0.0,0.0,0.0,-3.9187,-4.1382,-4.308,-4.3636,-4.428,-4.5333,-4.6299,-4.6914,-4.6914,-4.6667,-4.6899,-4.7499,-4.7188,-4.7333,0.0,0.0,0.0,0.0,0.0,-4.8494,-4.8757,-4.8816,-4.864,-4.8318,-4.864,-4.864,-4.8377,-4.8377,-4.7879,-4.7031,-4.6943,-4.6328,-4.545,-4.5362,-4.5128,-4.4719,-4.3753,-4.3372,-4.3285,-4.2992,-4.267,0.0,0.0,0.0,0.0,0.0,0.0,0.0,0.0,0.0,0.0,-2.7266,-3.1574,-3.2395,-2.582,-3.3339,-3.6233,-2.9792,-3.2509,-3.3059,0.0,0.0,-2.5769,-2.6405,-2.5535,-2.561,-2.6249,-2.6655,-2.7158,-2.7824,-2.7743,-2.7841,-2.8117,-2.8117,-2.8149,-2.8182,-2.8182,-2.8198,-2.823,-2.8052,-2.8036,-2.8084,-2.7402,-2.6509,-2.5485,-2.4815,-2.4235,-2.3936,-2.3369,-2.5132,-2.7688,-2.8294,-3.009,-3.2139,-3.2589,0.0,0.0,0.0,0.0,0.0,0.0,0.0,0.0,0.0,0.0,0.0,0.0,0.0,0.0,0.0,0.0,0.0,0.0,0.0,0.0,-3.9685,-4.1616,-4.3548,-4.5684,-4.6709,-4.7031,-4.6533,-4.7323,-4.7879,-4.7879,-4.8201,-4.8582,-4.9138,-4.8962,-4.8669,-4.9255,-4.9284,0.0,-4.9401,-4.9606,-4.9606,-4.9401,-4.9694,-4.9665,-4.9343,0.0,0.0,-4.9723,-4.9723,-4.9343,-4.864,-4.8113,-4.7353,-4.6416,-4.5889,-4.5333,-4.4719,-4.4045,-4.3431,-4.2963,-4.2904,-4.267,-4.2377,0.0,0.0,0.0,0.0,0.0,0.0,0.0,0.0,0.0,0.0,-3.1854,-3.2885,-2.6995,-3.3789,-3.6321,-2.989,-3.0169,0.0,0.0,-2.6485,-2.5464,-2.6018,-2.5975,-2.6362,-2.7256,-2.7467,-2.7759,-2.8198,-2.8117,-2.8165,-2.8328,-2.8328,-2.8377,-2.8474,-2.8474,-2.8523,-2.8588,-2.8425,-2.8393,-2.8442,-2.7987,-2.7435,-2.6769,-2.5778,-2.5225,-2.4917,-2.4186,-2.6358,-2.9562,-2.9606,-3.1971,-3.4913,-3.4742,-3.4233,-3.3297,0.0,0.0,0.0,0.0,0.0,0.0,0.0,0.0,0.0,0.0,0.0,0.0,0.0,0.0,-3.4944,0.0,0.0,-3.9773,-4.2026,-4.387,-4.5626,-4.7235,-4.8289,-4.864,-4.7996,-4.864,-4.9226,-4.9372,-4.9665,-4.9986,-5.0308,-5.0191,-5.0104,-5.0104,-5.025,-5.025,-5.0104,-5.025,-5.025,-5.0104,-5.0104,-5.0016,-4.9869,-5.0016,-5.0104,-5.0104,-5.0104,-4.9723,-4.9079,-4.8611,-4.7967,-4.7148,-4.6182,-4.5509,-4.4982,-4.4309,-4.3665,-4.3109,-4.3109,-4.2787,-4.2377,0.0,0.0,0.0,0.0,0.0,0.0,0.0,0.0,0.0,0.0,0.0,-3.2794,-2.8416,-3.3224,-3.5006,0.0,0.0,0.0,0.0,-2.6615,-2.5781,-2.5697,-2.6704,-2.7467,-2.7987,-2.8165,-2.8312,-2.8474,-2.8458,-2.8442,-2.8442,-2.8442,-2.8523,-2.8669,-2.8701,-2.8799,-2.8929,-2.8783,-2.8734,-2.8734,-2.8474,-2.8312,-2.8084,-2.7142,-2.6896,-2.714,-2.6554,-2.9144,-3.2814,-3.2202,-3.4411,-3.7382,-3.6981,-3.6208,-3.5306,-3.435,-3.4379,0.0,0.0,0.0,0.0,0.0,0.0,0.0,0.0,0.0,-3.4007,-3.5353,-3.6202,-3.7314,-3.9392,-4.1031,-4.2611,-4.4163,-4.5977,-4.7499,-4.8318,-4.9284,-4.9811,-4.9606,-5.0016,-5.0396,-5.066,-5.0923,-5.1099,-5.1157,-5.1128,-5.0981,-5.0777,-5.0923,-5.0864,-5.066,-5.0543,-5.0543,-5.066,-5.0308,-5.0133,-5.0191,-5.0074,-5.0016,-5.0016,-4.9928,-4.9606,-4.9079,-4.8728,-4.8172,-4.744,-4.6328,-4.5655,-4.5245,-4.4631,-4.3987,-4.3431,-4.3402,-4.2992,-4.2465,0.0,0.0,0.0,0.0,0.0,0.0,0.0,0.0,0.0,0.0,0.0,0.0,0.0,0.0,0.0,0.0,0.0,0.0,-2.9328,-2.6548,-2.5632,-2.6996,-2.7629,-2.8214,-2.8766,-2.8783,-2.888,-2.9059,-2.8913,-2.8815,-2.8815,-2.8815,-2.8848,-2.8864,-2.901,-2.9091,-2.9124,-2.9091,-2.9189,-2.9286,-2.8783,-2.8572,-2.8507,-2.8052,-2.926,-3.1175,-3.0101,-3.2645,-3.6655,-3.656,-3.7819,-3.9332,-3.9519,-3.8584,-3.731,-3.6619,0.0,-3.39,-3.3067,-3.2573,-3.2544,-3.2983,-3.3334,-3.4007,0.0,0.0,-3.7051,-3.866,-3.9714,-4.0797,-4.2172,-4.3519,-4.4894,-4.6211,-4.7791,-4.8991,-4.9401,-5.0308,-5.0981,-5.1274,-5.1099,-5.0981,-5.104,-5.104,-5.1186,-5.1479,-5.1245,-5.1186,-5.145,-5.0952,-5.0747,-5.0981,-5.0455,-5.0425,-5.104,-5.0425,-5.025,-5.0513,-4.9928,-4.9665,-4.9665,-4.9372,-4.9196,-4.9079,-4.8494,-4.7704,-4.6826,-4.6387,-4.586,-4.5245,-4.4894,-4.4367,-4.3753,-4.3489,-4.3109,-4.2787,0.0,0.0,0.0,0.0,0.0,0.0,0.0,0.0,0.0,0.0,0.0,0.0,0.0,0.0,0.0,0.0,0.0,0.0,-2.9095,-2.6806,-2.6168,-2.7678,-2.8263,-2.8701,-2.9026,-2.914,-2.9221,-2.9302,-2.9124,-2.9043,-2.9043,-2.9043,-2.9043,-2.9043,-2.9221,-2.9302,-2.9302,-2.9302,-2.9351,-2.94,-2.9059,-2.8799,-2.8572,-2.8214,-3.0405,-3.3363,-3.0638,-3.1584,0.0,-3.5743,-3.7443,-3.9439,-4.008,-3.9272,-3.8026,-3.756,-3.6369,0.0,-3.4638,-3.4212,-3.4124,0.0,-3.5441,-3.6378,-3.7929,-3.8543,-3.9363,-4.1324,-4.2377,-4.3431,-4.5099,-4.6299,-4.7265,0.0,-4.9167,-5.0104,-5.0425,-5.0835,-5.0981,-5.0747,-5.0747,-5.104,-5.1596,-5.1625,-5.1684,-5.183,-5.1713,-5.1596,-5.1567,-5.1479,-5.1391,-5.1362,-5.1069,-5.1069,-5.1362,-5.0923,-5.063,-5.0572,-5.0513,-5.0191,-4.9606,-4.9665,-4.9372,-4.8845,-4.8582,-4.7909,-4.6972,-4.665,-4.6182,-4.5538,-4.5011,-4.4631,-4.4309,-4.3841,-4.3314,-4.2875,0.0,0.0,0.0,0.0,0.0,0.0,0.0,0.0,0.0,0.0,0.0,0.0,0.0,0.0,0.0,0.0,0.0,0.0,0.0,-2.7569,-2.719,-2.7938,-2.8572,-2.8994,-2.9205,-2.9432,-2.9546,-2.9481,-2.9351,-2.927,-2.9221,-2.9221,-2.9221,-2.9221,-2.9416,-2.9481,-2.9481,-2.9546,-2.9562,-2.9546,-2.9302,-2.901,-2.8637,-2.8915,-3.0808,-3.3167,-3.0828,-3.163,-3.3691,-3.5402,-3.7114,-3.8641,-3.9479,-3.9032,-3.8225,-3.8216,-3.6923,-3.573,-3.5792,0.0,0.0,-3.6787,-3.787,-3.9012,-4.0387,-4.109,-4.2026,-4.4016,-4.4923,-4.586,-4.747,-4.8435,-4.9167,-4.9489,-5.025,-5.0952,-5.1157,-5.104,-5.0718,-5.0045,-4.9928,-5.0221,-5.104,-5.1508,-5.183,-5.2035,-5.2035,-5.1918,-5.1713,-5.183,-5.183,-5.1684,-5.1508,-5.1508,-5.1684,-5.1274,-5.0981,-5.0864,-5.0835,-5.0396,-4.9606,-4.9577,-4.9167,-4.8523,-4.8523,-4.8026,-4.7177,-4.6855,-4.6387,-4.5714,-4.504,-4.4806,-4.4719,-4.4163,-4.3636,-4.3109,0.0,0.0,0.0,0.0,0.0,0.0,0.0,0.0,0.0,0.0,0.0,0.0,0.0,0.0,0.0,0.0,0.0,0.0,0.0,-2.9017,-2.8807,-2.7727,-2.8507,-2.9059,-2.94,-2.9757,-2.9839,-2.9676,-2.966,-2.9562,-2.9416,-2.9416,-2.9416,-2.9416,-2.9595,-2.9676,-2.9676,-2.9855,-2.992,-2.9903,-2.9546,-2.9205,-2.9045,-3.0494,-3.0249,-2.9723,-3.2048,-3.5083,-3.7748,-3.7206,-3.7025,-3.6886,-3.7311,-3.8083,0.0,-3.8056,-3.6421,0.0,0.0,0.0,-3.6612,-3.8865,-4.0387,-4.1733,-4.3343,-4.4455,-4.5509,-4.6826,-4.7587,-4.826,-4.8933,-4.9606,-5.0191,-5.0513,-5.1099,-5.1508,-5.1567,-5.0981,-5.0338,-4.9694,-4.8816,-4.8377,0.0,-5.0191,-5.1362,-5.2006,-5.2035,-5.2035,-5.2035,-5.1713,-5.1713,-5.2006,-5.142,-5.1391,-5.2006,-5.1391,-5.1245,-5.1508,-5.0572,-4.9928,-4.9577,-4.864,-4.8201,-4.8172,-4.8172,-4.7791,-4.7177,-4.6855,-4.6387,-4.5714,-4.504,-4.4806,-4.4777,-4.4426,-4.4075,-4.3724,0.0,0.0,0.0,0.0,0.0,0.0,0.0,0.0,0.0,0.0,0.0,0.0,0.0,0.0,0.0,0.0,0.0,0.0,0.0,-2.9109,-2.8489,-2.9169,-2.8664,-2.8701,-2.9059,-2.9416,-2.9676,-2.9855,-2.9741,-2.966,-2.9595,-2.9595,-2.9595,-2.9595,-2.9774,-2.9855,-2.9871,-2.992,-3.0017,-3.0082,-2.9351,-2.8994,-2.9012,-3.0439,-3.0789,-3.0739,0.0,-3.3272,-3.3587,-3.4692,0.0,0.0,-3.5716,0.0,0.0,-3.4895,0.0,0.0,0.0,0.0,-4.0124,-4.2172,-4.3519,-4.4689,-4.6094,-4.665,-4.7177,-4.8289,-4.7996,-4.7674,-4.8113,-4.8728,-4.9167,-4.9284,-5.0747,-5.1801,-5.1596,-5.1362,-5.0425,-4.8289,-4.8113,0.0,0.0,0.0,0.0,-5.1303,-5.1596,-5.1801,-5.2035,-5.1918,-5.1918,-5.2035,-5.183,-5.183,-5.2035,-5.183,-5.1684,-5.1567,-5.0338,-4.9723,-4.9577,-4.8611,-4.8172,-4.8172,-4.8172,-4.7909,-4.7499,-4.7177,-4.6826,-4.6328,-4.545,-4.5128,-4.504,-4.4514,-4.425,-4.4075,0.0,0.0,0.0,0.0,0.0,0.0,0.0,0.0,0.0,0.0,0.0,0.0,0.0,0.0,0.0,0.0,0.0,0.0,0.0,-3.0043,-2.9741,-3.0672,-2.9896,-2.9796,-3.0704,-3.053,-3.0888,-3.1497,-3.0638,-3.0241,-3.0565,-2.9821,-2.9335,-2.94,-2.953,-2.9562,-2.9562,-2.9562,-3.0003,-3.0285,-2.9831,-2.9733,-2.9814,-3.1367,-3.1655,0.0,-3.2527,-3.23,-3.1408,-3.2766,0.0,0.0,0.0,0.0,0.0,0.0,0.0,0.0,0.0,-4.1002,-4.2992,-4.5158,-4.627,-4.7148,-4.8435,-4.864,-4.8669,-4.905,-4.8113,-4.7235,-4.7177,-4.7148,-4.7265,-4.7879,-4.9079,-5.0191,-5.0777,-5.0396,-4.9372,-4.7587,-4.7353,-4.7031,0.0,0.0,0.0,-5.0747,-5.1186,-5.1567,-5.2006,-5.2035,-5.2035,-5.2035,-5.2035,-5.2035,-5.2035,-5.1918,-5.1625,-5.1186,-5.025,-4.9665,-4.9401,-4.8552,-4.8172,-4.8172,-4.8172,-4.7996,-4.7674,-4.7353,-4.7031,-4.665,-4.5801,-4.5421,-4.5216,-4.4689,-4.4397,-4.428,0.0,0.0,0.0,0.0,0.0,0.0,0.0,0.0,0.0,0.0,0.0,0.0,0.0,0.0,0.0,0.0,0.0,0.0,0.0,-3.1491,-3.2302,-3.1826,-3.1766,-3.2525,-3.3929,-3.3033,-3.3145,-3.4015,-3.2094,-3.1212,-3.2186,-2.9712,-2.8832,-2.9307,-2.9012,-2.9012,-2.9307,-2.9307,-2.9829,-3.0679,-3.0781,-3.1068,-3.1406,-3.3188,-3.2681,-3.1617,-3.2578,-3.2333,-3.1783,0.0,0.0,0.0,0.0,0.0,0.0,0.0,0.0,-3.9275,-4.185,-4.3548,-4.5158,-4.7674,-4.8523,-4.9138,-5.0338,-5.0338,-4.9869,-4.9167,-4.7967,-4.6826,0.0,0.0,-4.4806,-4.6387,-4.6533,-4.7235,-4.9401,-4.8406,-4.7499,0.0,0.0,0.0,0.0,0.0,0.0,-5.0396,0.0,-5.1303,-5.2006,-5.2035,-5.2035,-5.2035,-5.2035,-5.2035,-5.2006,-5.1684,-5.1245,-5.0572,-5.0221,-4.9723,-4.9138,-4.8494,-4.8172,-4.8201,-4.8172,-4.7996,-4.7704,-4.7353,-4.706,-4.6709,-4.6036,-4.5567,-4.5304,-4.4923,-4.4601,-4.4309,0.0,0.0,0.0,0.0,0.0,0.0,0.0,0.0,0.0,0.0,0.0,0.0,0.0,0.0,0.0,0.0,0.0,0.0,0.0,-3.0955,-3.0785,-3.165,-3.1206,-3.1117,-3.22,-3.2612,-3.2904,-3.3572,-3.291,-3.2966,-3.3446,-3.2249,-3.2124,-3.2858,-3.2342,-3.2342,-3.2858,-3.2858,-3.2636,-3.2057,-3.1505,-3.0816,-3.041,-3.2061,-3.1763,-3.0809,-3.2505,-3.2368,-3.1461,0.0,0.0,0.0,0.0,-3.4563,-3.5734,0.0,0.0,-4.1616,-4.4192,-4.6387,-4.823,-4.9606,-5.0396,-5.0835,-5.0923,-5.0308,-4.9372,-4.7996,-4.5889,-4.3928,0.0,0.0,0.0,-4.5158,-4.7645,0.0,-5.0923,-5.0718,0.0,-4.8582,0.0,-4.8026,-4.7382,-4.785,0.0,0.0,-5.0425,-5.0835,-5.1977,-5.2035,-5.2035,-5.2035,-5.2035,-5.1918,-5.1684,-5.1362,-5.0981,-5.0572,-5.0016,-4.9665,-4.946,-4.8582,-4.8289,-4.8523,-4.8289,-4.8113,-4.7996,-4.747,-4.7177,-4.7031,-4.6153,-4.5743,-4.5567,-4.5011,-4.4894,-4.4953,0.0,0.0,0.0,0.0,0.0,0.0,0.0,0.0,0.0,0.0,0.0,0.0,0.0,0.0,0.0,0.0,0.0,0.0,0.0,-3.1166,-3.1209,-3.2606,-3.1972,-3.1991,-3.2927,-3.3272,-3.3665,-3.4341,-3.3406,-3.3172,-3.3623,-3.1961,-3.1585,-3.2021,-3.182,-3.182,-3.2021,-3.2021,-3.1918,0.0,0.0,-3.1239,-3.1182,-3.2051,-3.1934,-3.102,-3.2212,-3.2778,0.0,0.0,0.0,-3.4797,-3.6173,-3.7051,-3.8134,-4.1002,0.0,-4.4367,-4.6796,-4.8816,-5.0338,-5.1069,-5.1391,-5.1274,-5.025,-4.9255,-4.7821,-4.5216,-4.3197,0.0,-3.9597,0.0,0.0,0.0,0.0,0.0,-5.0455,-5.0572,-5.0191,0.0,-4.946,0.0,-4.8611,-4.8845,-4.9547,0.0,-5.0513,-5.0864,-5.2181,-5.2123,-5.2123,-5.224,-5.2123,-5.1801,-5.1362,-5.1157,-5.0923,-5.0572,-5.0221,-4.9986,-4.9811,-4.8962,-4.8611,-4.864,0.0,-4.8172,-4.8113,-4.747,-4.7294,-4.7353,-4.6387,-4.6065,-4.6123,-4.545,-4.5333,-4.5421,0.0,0.0,0.0,0.0,0.0,0.0,0.0,0.0,0.0,0.0,0.0,0.0,0.0,0.0,0.0,0.0,0.0,0.0,0.0,0.0,0.0,-3.3363,-3.2954,-3.3246,-3.4417,-3.4241,-3.4638,-3.5447,-3.3359,-3.2811,-3.355,-3.0975,-2.9799,-2.9999,-2.9999,-2.9999,-2.9999,-2.9999,-3.0465,-3.1388,-3.1542,-3.1957,-3.2183,0.0,-3.2222,-3.1812,-3.1841,-3.3158,0.0,0.0,-3.67,-3.6787,-3.9041,-4.0212,-4.1382,-4.4514,-4.6065,-4.7177,-4.9343,-5.0835,-5.1801,-5.2064,-5.1889,-5.1099,-4.9108,-4.7704,-4.5772,-4.1968,0.0,-3.907,-3.7226,-3.8104,-3.9773,-4.1821,0.0,-4.6299,-4.9547,-4.9723,-4.9723,-5.0338,-5.0425,-5.0308,-5.0016,-5.0016,-5.0338,-5.1186,-5.0981,-5.1303,-5.2386,-5.2181,-5.2152,-5.2445,-5.2181,-5.1713,-5.1069,-5.104,-5.0864,-5.0572,-5.0543,-5.0396,-5.0133,-4.946,-4.8962,-4.8699,0.0,0.0,-4.8113,-4.7557,-4.747,-4.7645,-4.6709,-4.6504,-4.665,-4.6006,-4.5831,-4.5772,0.0,0.0,0.0,0.0,0.0,0.0,0.0,0.0,0.0,0.0,0.0,0.0,0.0,0.0,0.0,0.0,0.0,0.0,0.0,0.0,0.0,0.0,-3.2134,-3.2602,-3.31,0.0,0.0,0.0,0.0,-3.397,-3.4035,-3.3326,-3.327,-3.3713,-3.3324,-3.3324,-3.3713,-3.3713,-3.3345,-3.2478,-3.2603,-3.2045,-3.1058,-3.1168,0.0,0.0,-3.2105,0.0,0.0,0.0,-3.9421,-4.0797,-4.2787,-4.4045,-4.5304,-4.7996,-4.8874,-4.9401,-5.1157,-5.2152,-5.2767,-5.2796,-5.2386,-5.1391,-4.9167,-4.6679,0.0,0.0,-3.8631,-3.7256,-3.6114,-3.7841,-4.0329,-4.305,-4.5567,-4.8318,-5.1538,-5.1742,-5.1684,0.0,-5.2123,-5.2064,-5.2035,0.0,0.0,0.0,0.0,0.0,-5.2123,-5.2064,-5.2064,-5.2123,-5.2064,-5.1713,-5.1069,-5.0806,-5.063,-5.0572,-5.0308,-5.0308,-5.0455,-4.9547,-4.9079,-4.9021,0.0,0.0,-4.8113,-4.7791,-4.7674,-4.7645,-4.6943,-4.6709,-4.665,-4.6006,-4.5948,-4.6094,0.0,0.0,0.0,0.0,0.0,0.0,0.0,0.0,0.0,0.0,0.0,0.0,0.0,0.0,0.0,0.0,0.0,0.0,0.0,0.0,0.0,0.0,0.0,0.0,0.0,0.0,0.0,0.0,0.0,0.0,0.0,0.0,0.0,0.0,0.0,0.0,-3.2924,-3.2749,-3.2515,-3.2251,-3.2076,-3.1724,0.0,0.0,0.0,0.0,0.0,0.0,0.0,0.0,-3.9802,-4.3109,-4.5538,-4.6855,-4.7909,-5.0016,-5.0747,-5.1157,-5.2445,-5.3235,-5.3645,-5.3323,-5.2269,-5.0425,-4.7148,0.0,0.0,-3.7519,-3.6144,-3.5353,-3.4534,-3.6641,0.0,-4.1236,-4.3636,-4.6416,-5.0016,-5.0513,-5.1011,-5.2357,-5.2796,-5.2972,0.0,0.0,0.0,0.0,0.0,0.0,0.0,-5.2269,-5.2269,-5.2269,-5.1947,-5.1625,-5.1303,-5.0981,-5.0835,-5.0835,-5.066,-5.0601,-5.0543,-4.9723,-4.9284,-4.9079,0.0,0.0,0.0,-4.785,-4.7791,-4.7879,-4.7235,-4.7177,-4.7382,-4.6796,-4.6738,-4.6914,0.0,0.0,0.0,0.0,0.0,0.0,0.0,0.0,0.0,0.0,0.0,0.0,0.0,0.0,0.0,0.0,0.0,0.0,0.0,0.0,0.0,0.0,0.0,0.0,0.0,0.0,0.0,0.0,0.0,0.0,0.0,0.0,0.0,0.0,0.0,0.0,0.0,0.0,-3.1256,0.0,0.0,0.0,0.0,0.0,0.0,0.0,0.0,0.0,0.0,0.0,-3.9129,-4.3021,-4.6153,-4.8143,-4.9309,-5.0864,-5.1492,-5.1965,-5.344,-5.4171,-5.417,-5.3762,-5.2035,-4.9401,-4.5245,-4.2114,0.0,-3.5031,-3.4095,-3.3861,-3.3422,-3.5383,-3.7636,0.0,-4.1294,-4.4016,-4.8172,-4.9079,-5.0191,-5.2445,-5.3235,0.0,-5.3235,-5.3206,0.0,0.0,0.0,0.0,0.0,-5.2562,-5.2533,-5.2533,-5.2035,-5.1684,-5.1567,-5.1303,-5.1157,-5.1069,-5.1069,-5.0923,-5.0572,-4.9986,-4.9489,-4.9079,0.0,0.0,0.0,-4.7909,-4.7967,-4.8113,-4.7557,-4.7645,-4.7996,-4.744,-4.7382,-4.7557,0.0,0.0,0.0,0.0,0.0,0.0,0.0,0.0,0.0,0.0,0.0,0.0,0.0,0.0,0.0,0.0,0.0,0.0,0.0,0.0,0.0,0.0,0.0,0.0,0.0,0.0,0.0,0.0,0.0,0.0,0.0,0.0,0.0,0.0,0.0,0.0,0.0,0.0,0.0,0.0,0.0,0.0,0.0,0.0,0.0,0.0,0.0,0.0,0.0,0.0,0.0,-3.8807,-4.2582,-4.6146,-4.9233,-4.992,0.0,0.0,-5.385,-5.4223,-5.4185,-5.385,-5.2035,-4.9138,-4.5216,-4.1411,0.0,-3.4827,-3.3744,-3.3393,-3.3656,-3.4622,0.0,0.0,0.0,-4.3343,-4.8348,-4.9606,-5.0864,-5.3118,0.0,0.0,-5.3908,-5.3908,0.0,0.0,0.0,0.0,0.0,-5.2679,-5.2533,-5.2533,-5.2474,-5.2152,-5.1567,-5.1508,-5.1362,-5.1069,-5.1069,-5.0923,-5.0572,-5.0221,-4.9723,-4.9108,0.0,0.0,0.0,-4.8113,-4.8113,-4.8113,-4.7791,-4.7704,-4.7704,-4.7353,-4.7235,-4.7265,0.0,0.0,0.0,0.0,0.0,0.0,0.0,0.0,0.0,0.0,0.0,0.0,0.0,0.0,0.0,0.0,0.0,0.0,0.0,0.0,0.0,0.0,0.0,0.0,0.0,0.0,0.0,0.0,0.0,0.0,0.0,0.0,0.0,0.0,0.0,0.0,0.0,0.0,0.0,0.0,0.0,0.0,0.0,0.0,0.0,0.0,0.0,0.0,0.0,0.0,0.0,-3.7139,-3.79,-4.0935,-4.4667,-4.7941,-4.9608,-5.0741,-5.335,-5.4416,-5.4517,-5.3897,-5.1579,-4.8318,-4.4806,-4.0709,-3.6963,-3.4446,-3.3422,-3.3071,-3.3393,-3.3919,-3.4973,-3.7051,-3.7695,-3.9421,-4.3636,-4.4923,-4.6796,-5.0425,-5.1684,0.0,0.0,0.0,0.0,0.0,0.0,0.0,0.0,0.0,-5.2679,-5.3089,-5.2533,-5.2211,-5.2123,-5.1772,-5.1391,-5.1069,-5.0864,-5.063,-5.0308,-4.9928,-4.9665,0.0,0.0,0.0,0.0,-4.826,-4.8172,-4.8172,-4.8026,-4.7996,-4.7967,-4.785,-4.7674,-4.7499,0.0,0.0,0.0,0.0,0.0,0.0,0.0,0.0,0.0,0.0,0.0,0.0,0.0,0.0,0.0,0.0,0.0,0.0,0.0,0.0,0.0,0.0,0.0,0.0,0.0,0.0,0.0,0.0,0.0,0.0,0.0,0.0,0.0,0.0,0.0,0.0,0.0,0.0,0.0,0.0,0.0,0.0,0.0,0.0,0.0,0.0,0.0,0.0,0.0,0.0,0.0,-3.5236,-3.471,-3.6564,-3.9991,-4.4914,-4.7707,-4.9358,-5.2136,-5.3674,-5.4167,-5.3531,-5.0903,-4.765,-4.4601,-4.0416,-3.6583,-3.4329,-3.3276,-3.2837,-3.3071,-3.3451,-3.4124,-3.5324,-3.5734,-3.7168,-4.0738,-4.1997,-4.3987,-4.7967,0.0,0.0,0.0,0.0,0.0,0.0,0.0,0.0,0.0,0.0,-5.2913,-5.3206,-5.2533,-5.2211,-5.224,-5.1801,-5.1362,-5.0923,-5.0718,-5.0425,-5.0104,-4.9869,-4.9665,0.0,0.0,0.0,0.0,-4.826,-4.8172,-4.8172,-4.8172,-4.8172,-4.8172,-4.8172,-4.8026,-4.7791,0.0,0.0,0.0,0.0,0.0,0.0,0.0,0.0,0.0,0.0,0.0,0.0,0.0,0.0,0.0,0.0,0.0,0.0,0.0,0.0,0.0,0.0,0.0,0.0,0.0,0.0,0.0,0.0,0.0,0.0,0.0,0.0,0.0,0.0,0.0,0.0,0.0,0.0,0.0,0.0,0.0,0.0,0.0,0.0,0.0,0.0,0.0,0.0,0.0,0.0,0.0,0.0,0.0,-3.4475,-3.5792,-4.0943,-4.4318,-4.7196,-5.0401,-5.1823,-5.2315,-5.2921,-5.0651,-4.7158,-4.4419,-4.0592,-3.6934,-3.468,-3.3451,-3.2778,-3.2778,-3.3305,-3.4066,-3.5031,-3.5968,-3.7841,-4.1382,-4.2465,-4.3841,0.0,0.0,0.0,0.0,0.0,0.0,0.0,0.0,0.0,0.0,0.0,-5.3206,-5.2562,-5.2533,-5.2211,-5.1567,-5.1567,-5.1245,-5.0601,-5.0572,-5.0425,-5.0104,-5.0104,0.0,0.0,0.0,0.0,0.0,-4.8172,-4.8172,-4.8172,-4.8172,-4.8172,-4.8172,-4.8172,-4.8172,-4.8172,0.0,0.0,0.0,0.0,0.0,0.0,0.0,0.0,0.0,0.0,0.0,0.0,0.0,0.0,0.0,0.0,0.0,0.0,0.0,0.0,0.0,0.0,0.0,0.0,0.0,0.0,-3.1256,-3.1783,-3.1666,-3.1959,0.0,0.0,0.0,0.0,0.0,0.0,0.0,0.0,0.0,0.0,0.0,0.0,0.0,0.0,0.0,0.0,0.0,0.0,0.0,0.0,0.0,0.0,0.0,0.0,0.0,-3.6787,-4.0201,-4.3648,-4.6641,-4.8108,-4.8767,-4.8378,-4.67,-4.4593,-4.2172,-3.9129,-3.6348,-3.43,-3.3451,-3.3041,-3.2807,-3.3129,-3.3861,-3.5266,-3.5763,-3.6817,-3.9246,0.0,0.0,-4.6094,0.0,0.0,0.0,0.0,0.0,0.0,0.0,0.0,0.0,0.0,0.0,-5.3206,-5.2767,-5.2328,-5.1889,-5.145,-5.0981,-5.0572,-5.0338,-5.0191,-5.0104,0.0,0.0,0.0,0.0,0.0,0.0,-4.8582,-4.8377,-4.8172,-4.8172,-4.8172,-4.8172,-4.8172,-4.8026,-4.785,0.0,0.0,0.0,0.0,0.0,0.0,0.0,0.0,0.0,0.0,0.0,0.0,0.0,0.0,0.0,0.0,0.0,0.0,0.0,0.0,0.0,0.0,0.0,0.0,0.0,-3.0817,-3.1256,-3.2163,-3.2076,-3.2485,-3.3305,-3.3158,-3.2778,0.0,0.0,0.0,0.0,0.0,0.0,0.0,0.0,0.0,0.0,0.0,0.0,0.0,0.0,0.0,0.0,0.0,0.0,0.0,0.0,0.0,0.0,0.0,-3.6853,-3.9857,-4.311,-4.5163,-4.6381,-4.5957,-4.4438,-4.2788,-4.1002,-3.8485,-3.6085,0.0,0.0,-3.3158,-3.2837,-3.3217,-3.389,-3.4768,-3.5324,-3.629,-3.8104,0.0,0.0,0.0,0.0,0.0,0.0,0.0,0.0,0.0,0.0,0.0,0.0,0.0,0.0,-5.3323,-5.2913,-5.2357,-5.1684,-5.1274,-5.0835,-5.0396,-5.0191,-5.0104,-5.0104,0.0,0.0,0.0,0.0,0.0,0.0,-4.8787,-4.8523,-4.8318,-4.8201,-4.8172,-4.8172,-4.8172,-4.8055,-4.7879,0.0,0.0,0.0,0.0,0.0,0.0,0.0,0.0,0.0,0.0,0.0,0.0,0.0,0.0,0.0,0.0,0.0,0.0,0.0,0.0,0.0,0.0,0.0,0.0,0.0,-3.0846,-3.149,-3.2778,-3.31,-3.3597,-3.4271,-3.4856,-3.4124,-3.2368,0.0,0.0,0.0,0.0,0.0,0.0,0.0,0.0,0.0,0.0,0.0,0.0,0.0,0.0,0.0,0.0,0.0,0.0,0.0,0.0,0.0,0.0,0.0,0.0,0.0,-4.2629,-4.4376,-4.4847,-4.3452,-4.1833,-4.0402,-3.828,0.0,0.0,0.0,0.0,-3.2895,-3.3597,-3.4154,-3.3949,-3.4914,-3.629,-3.7929,-4.0329,0.0,0.0,0.0,0.0,0.0,0.0,0.0,0.0,0.0,0.0,0.0,0.0,0.0,0.0,-5.2972,-5.2328,-5.1069,-5.104,-5.0718,-5.0104,-5.0104,-5.0104,-5.0104,0.0,0.0,0.0,0.0,0.0,0.0,-4.8787,-4.864,-4.8582,-4.8289,-4.8172,-4.8172,-4.8172,-4.8172,-4.8172,0.0,0.0,0.0,0.0,0.0,0.0,0.0,0.0,0.0,0.0,0.0,0.0,0.0,0.0,0.0,0.0,0.0,0.0,0.0,0.0,0.0,0.0,0.0,0.0,0.0,-3.1081,-3.1724,-3.2778,-3.31,-3.3715,-3.4592,-3.4505,-3.3802,-3.269,-3.3158,-3.2866,0.0,0.0,0.0,0.0,0.0,0.0,0.0,0.0,0.0,0.0,-3.152,0.0,0.0,0.0,0.0,0.0,0.0,0.0,0.0,0.0,-3.3744,0.0,0.0,0.0,-3.859,-3.8272,-3.8248,-3.784,0.0,-3.6319,-3.55,0.0,0.0,0.0,0.0,-3.389,-3.4505,-3.5412,-3.6027,-3.7022,-3.8895,0.0,0.0,0.0,0.0,0.0,0.0,0.0,0.0,0.0,0.0,0.0,0.0,0.0,0.0,0.0,-5.2533,-5.1889,-5.1069,-5.0835,-5.0513,-5.0104,-5.0104,-5.0104,0.0,0.0,0.0,0.0,0.0,0.0,0.0,-4.8787,-4.8494,-4.8289,-4.8201,-4.8172,-4.8172,-4.8172,-4.8172,-4.8172,0.0,0.0,0.0,0.0,0.0,0.0,0.0,0.0,0.0,0.0,0.0,0.0,0.0,0.0,0.0,0.0,0.0,0.0,0.0,0.0,0.0,0.0,0.0,-3.0817,-3.0817,-3.0993,-3.1637,-3.2778,-3.3246,-3.4036,-3.5149,-3.5266,-3.4651,-3.3393,-3.269,-3.2163,0.0,0.0,0.0,0.0,0.0,0.0,0.0,0.0,0.0,0.0,-3.1666,-3.1783,0.0,-3.3012,-3.3422,-3.348,0.0,0.0,0.0,0.0,-3.3158,0.0,0.0,-3.5149,-3.6787,-3.6612,-3.67,-3.667,-3.5997,-3.5412,-3.4739,-3.3919,0.0,0.0,0.0,0.0,-3.4827,-3.5383,-3.6231,-3.7987,0.0,0.0,0.0,0.0,0.0,0.0,0.0,0.0,0.0,0.0,0.0,0.0,0.0,0.0,0.0,0.0,0.0,-5.1596,-5.1069,-5.0747,-5.0425,-5.0104,-5.0104,-5.0104,0.0,0.0,0.0,0.0,0.0,0.0,-4.9343,-4.9021,-4.8699,-4.8377,-4.8201,-4.8172,-4.8172,-4.8172,-4.8172,-4.8172,0.0,0.0,0.0,0.0,0.0,0.0,0.0,0.0,0.0,0.0,0.0,0.0,0.0,0.0,0.0,0.0,0.0,0.0,0.0,0.0,0.0,0.0,0.0,-3.0846,-3.0905,-3.0934,-3.1578,-3.2837,-3.3597,-3.4563,-3.5734,-3.6436,-3.588,-3.4212,-3.2398,-3.149,0.0,0.0,0.0,0.0,0.0,0.0,0.0,0.0,0.0,0.0,0.0,0.0,0.0,-3.3919,-3.4329,-3.43,-3.468,0.0,0.0,0.0,0.0,0.0,-3.3071,-3.5061,-3.6992,-3.6612,0.0,0.0,-3.6056,-3.5149,-3.4358,-3.4007,0.0,0.0,0.0,-3.4739,0.0,-3.5149,0.0,0.0,0.0,0.0,0.0,0.0,0.0,0.0,0.0,0.0,0.0,0.0,0.0,0.0,0.0,0.0,0.0,0.0,0.0,0.0,-5.1069,-5.0747,-5.0425,-5.0104,-5.0104,-5.0104,-5.0104,0.0,0.0,0.0,0.0,0.0,-4.9577,-4.9196,-4.8904,-4.8611,-4.8289,-4.8172,-4.8172,-4.8172,-4.8172,-4.8172,0.0,0.0,0.0,0.0,0.0,0.0,0.0,0.0,0.0,0.0,0.0,0.0,0.0,0.0,0.0,0.0,0.0,0.0,0.0,0.0,0.0,-3.0817,-3.0817,-3.0964,-3.1227,-3.152,-3.2134,-3.3188,-3.4388,-3.5324,-3.6056,-3.6992,-3.6436,-3.4592,-3.3451,-3.2339,-3.1315,-3.1315,-3.1461,-3.1724,0.0,0.0,0.0,0.0,0.0,0.0,0.0,0.0,0.0,-3.2895,-3.3568,-3.4095,-3.3363,0.0,0.0,0.0,0.0,0.0,-3.4417,-3.5909,-3.6583,0.0,0.0,0.0,0.0,-3.5178,-3.5324,-3.5002,0.0,0.0,0.0,-3.5675,0.0,0.0,0.0,0.0,0.0,0.0,0.0,0.0,0.0,0.0,0.0,0.0,0.0,0.0,0.0,0.0,0.0,0.0,0.0,0.0,0.0,0.0,0.0,-5.0747,-5.0425,-5.0104,-5.0104,-5.0104,-5.0104,-5.0104,0.0,0.0,0.0,0.0,-4.9577,-4.8962,-4.8699,-4.8611,-4.8289,-4.8172,-4.8172,-4.8172,-4.8172,-4.8172,0.0,0.0,0.0,0.0,0.0,0.0,0.0,0.0,0.0,0.0,0.0,0.0,0.0,0.0,0.0,0.0,0.0,0.0,0.0,0.0,0.0,-3.1578,-3.1285,-3.1168,-3.1315,-3.1812,-3.2544,-3.351,-3.4797,-3.5939,-3.6905,-3.6817,-3.6056,-3.4651,-3.3305,-3.2193,-3.1315,-3.1315,-3.1402,-3.152,0.0,0.0,0.0,0.0,0.0,0.0,0.0,0.0,0.0,0.0,-3.3861,-3.4154,-3.3685,0.0,0.0,0.0,0.0,0.0,-3.3656,-3.4755,-3.5377,0.0,0.0,0.0,0.0,0.0,0.0,0.0,0.0,0.0,0.0,0.0,0.0,0.0,0.0,0.0,0.0,0.0,0.0,0.0,0.0,0.0,0.0,0.0,0.0,0.0,0.0,0.0,0.0,0.0,0.0,0.0,0.0,0.0,0.0,-5.104,-5.0601,-5.0104,-5.0104,-5.0104,-5.0104,-5.0104,-5.0104,0.0,0.0,-4.9694,-4.9343,-4.905,-4.8699,-4.8377,-4.8201,-4.8172,-4.8172,-4.8172,-4.8172,-4.8172,0.0,0.0,0.0,0.0,0.0,0.0,0.0,0.0,0.0,0.0,0.0,0.0,0.0,0.0,0.0,0.0,0.0,0.0,0.0,0.0,-3.1168,-3.19,-3.1695,-3.1666,-3.1988,-3.2398,-3.3129,-3.4183,-3.5617,-3.6992,-3.8221,-3.7022,-3.5909,-3.4856,-3.3305,-3.2163,-3.1432,-3.1432,-3.1461,-3.1549,0.0,0.0,0.0,0.0,0.0,0.0,0.0,0.0,0.0,0.0,0.0,0.0,0.0,0.0,0.0,0.0,-3.3129,-3.3071,-3.3451,-3.4132,-3.4981,0.0,0.0,0.0,0.0,0.0,0.0,0.0,0.0,0.0,0.0,0.0,0.0,0.0,0.0,0.0,0.0,0.0,0.0,0.0,0.0,0.0,0.0,0.0,0.0,0.0,0.0,0.0,0.0,0.0,0.0,0.0,0.0,0.0,0.0,-5.1128,-5.0718,-5.0221,-5.0133,-5.0104,-5.0104,-5.0104,-5.0104,-5.0104,-5.0104,-4.9782,-4.9255,-4.9167,-4.8816,-4.8289,-4.8201,-4.8172,-4.8172,-4.8172,-4.8172,-4.8172,0.0,0.0,0.0,0.0,0.0,0.0,0.0,0.0,0.0,0.0,0.0,0.0,0.0,0.0,0.0,0.0,0.0,0.0,0.0,0.0,-3.0846,-3.0934,-3.1754,-3.2778,-3.3978,-3.3744,-3.4241,-3.55,-3.7402,-3.9012,-4.0241,-3.8339,-3.6787,-3.5529,-3.4212,-3.2924,-3.1754,-3.1754,-3.1929,-3.2222,-3.2222,0.0,0.0,0.0,0.0,0.0,0.0,0.0,0.0,0.0,0.0,0.0,0.0,0.0,0.0,0.0,-3.4124,-3.3978,-3.547,-3.6173,-3.6443,-3.6623,-3.6074,0.0,-3.7956,-3.8196,0.0,-3.9828,0.0,0.0,0.0,0.0,0.0,0.0,0.0,0.0,0.0,0.0,0.0,0.0,0.0,0.0,0.0,0.0,0.0,0.0,0.0,0.0,0.0,0.0,0.0,0.0,0.0,0.0,0.0,0.0,-5.0601,-5.0543,-5.025,-5.0104,-5.0104,-5.0104,-5.0104,-5.0104,-5.0104,-4.9899,-4.9577,-4.9255,-4.8933,-4.8582,-4.8289,-4.8172,-4.8172,-4.8172,-4.8172,-4.8172,0.0,0.0,0.0,0.0,0.0,0.0,0.0,0.0,0.0,0.0,0.0,0.0,0.0,0.0,0.0,0.0,0.0,0.0,0.0,-3.0651,-3.1198,-3.1988,-3.2398,-3.3188,-3.4505,-3.4973,-3.5939,-3.7431,-3.9392,-4.0299,-4.0153,-3.8192,-3.6583,-3.5266,-3.3802,-3.2983,-3.2661,-3.228,-3.2398,-3.2837,-3.2456,-3.2398,0.0,0.0,0.0,0.0,0.0,0.0,0.0,0.0,-3.2592,0.0,0.0,0.0,0.0,0.0,-3.3185,-3.3312,-3.3543,-3.429,-3.4885,-3.5702,-3.5733,0.0,0.0,-3.9886,-4.0515,-4.1518,-4.189,0.0,0.0,0.0,0.0,0.0,0.0,0.0,0.0,0.0,0.0,0.0,0.0,0.0,0.0,0.0,0.0,0.0,0.0,0.0,0.0,0.0,0.0,0.0,0.0,0.0,0.0,0.0,-5.0777,-5.0572,-5.025,-5.0104,-5.0104,-5.0104,-5.0104,-5.0104,-5.0104,-4.9811,-4.9284,-4.9167,-4.8816,-4.8318,-4.8201,-4.8172,-4.8113,-4.7967,-4.7879,-4.7879,0.0,0.0,0.0,0.0,0.0,0.0,0.0,0.0,0.0,0.0,0.0,0.0,0.0,0.0,0.0,0.0,0.0,0.0,-3.0346,-3.0651,-3.1227,-3.1961,-3.2544,-3.3334,-3.4318,-3.5968,-3.7314,-3.8543,-4.0592,-4.109,-4.0124,-3.8251,-3.6817,-3.5705,-3.4183,-3.3685,-3.3765,-3.3217,-3.2921,-3.2974,-3.269,-3.2573,0.0,0.0,0.0,0.0,0.0,0.0,0.0,0.0,0.0,0.0,0.0,0.0,0.0,0.0,0.0,-3.3201,-3.2633,-3.2938,-3.3821,0.0,0.0,0.0,-4.0208,-4.1142,-4.1784,-4.3408,0.0,0.0,0.0,0.0,0.0,0.0,0.0,0.0,0.0,0.0,0.0,0.0,0.0,0.0,0.0,0.0,0.0,0.0,0.0,0.0,0.0,0.0,0.0,0.0,0.0,0.0,0.0,0.0,-5.0747,-5.0425,-5.0221,-5.0104,-5.0104,-5.0104,-5.0104,-5.0104,-5.0104,-4.9723,-4.9138,-4.9138,-4.8757,-4.8172,-4.8172,-4.8172,-4.8113,-4.7909,-4.7791,-4.7704,0.0,0.0,0.0,0.0,0.0,0.0,0.0,0.0,0.0,0.0,0.0,0.0,0.0,0.0,0.0,0.0,0.0,0.0,-3.0817,-3.0817,-3.068,-3.0179,-3.1902,-3.3038,-3.3415,-3.6531,-3.8221,-3.8573,-4.0797,-4.1411,-4.0446,-3.8807,-3.7695,-3.7022,-3.5734,-3.5162,-3.4818,-3.4435,-3.3669,-3.2956,-3.2863,-3.2778,-3.2778,0.0,0.0,0.0,0.0,0.0,0.0,0.0,0.0,0.0,0.0,0.0,0.0,0.0,-3.4262,-3.4055,-3.3056,-3.3149,0.0,0.0,0.0,0.0,-4.1632,-4.1934,-4.2545,-4.6364,0.0,0.0,0.0,0.0,0.0,0.0,0.0,0.0,0.0,0.0,0.0,0.0,0.0,0.0,0.0,0.0,0.0,0.0,0.0,0.0,0.0,0.0,0.0,0.0,0.0,0.0,0.0,0.0,-5.0425,-5.0104,-5.0104,-5.0104,-5.0104,-5.0104,-5.0104,-5.0104,-5.0104,-4.9723,-4.9138,-4.9138,-4.8728,-4.8172,-4.8172,-4.8172,-4.8172,-4.8172,-4.7967,-4.7704,0.0,0.0,0.0,0.0,0.0,0.0,0.0,0.0,0.0,0.0,0.0,0.0,0.0,0.0,0.0,0.0,0.0,0.0,-3.0128,-3.0156,-3.0325,-3.0494,-3.1901,-3.2771,-3.3008,-3.5705,-3.8104,-4.0241,-4.068,-4.0299,-3.9099,-3.7695,-3.6817,-3.6378,-3.5997,-3.588,-3.5715,-3.471,-3.4045,-3.3901,-3.3254,-3.2584,-3.2053,0.0,0.0,0.0,0.0,0.0,0.0,0.0,0.0,0.0,0.0,0.0,0.0,-3.2832,-3.2777,-3.3104,-3.1933,0.0,0.0,0.0,0.0,0.0,0.0,-4.2269,0.0,0.0,0.0,0.0,0.0,0.0,0.0,0.0,0.0,0.0,0.0,0.0,0.0,0.0,0.0,0.0,0.0,0.0,0.0,0.0,0.0,0.0,0.0,0.0,0.0,0.0,0.0,0.0,0.0,0.0,0.0,-5.0104,-5.0104,-5.0104,-5.0104,-5.0104,-4.9986,-4.9782,-4.9782,-4.9372,-4.8757,-4.8523,-4.8318,-4.8172,-4.8172,-4.8172,-4.8113,-4.7909,-4.7791,-4.7704,0.0,0.0,0.0,0.0,0.0,0.0,0.0,0.0,0.0,0.0,0.0,0.0,0.0,0.0,0.0,0.0,0.0,0.0,0.0,-3.0184,-3.0411,-3.0666,-3.1754,-3.2829,-3.3707,-3.6056,-3.7782,-3.883,-3.9363,-3.8924,-3.7753,-3.7373,-3.7139,-3.7109,-3.7607,-3.7287,-3.6248,-3.5666,-3.4818,-3.3957,-3.361,-3.3056,-3.2701,0.0,0.0,0.0,0.0,0.0,0.0,0.0,0.0,0.0,0.0,0.0,0.0,-3.2095,-3.234,-3.2859,-3.2283,0.0,0.0,0.0,0.0,0.0,0.0,0.0,0.0,0.0,0.0,0.0,0.0,0.0,0.0,0.0,0.0,0.0,0.0,0.0,0.0,0.0,0.0,0.0,0.0,0.0,0.0,0.0,0.0,0.0,0.0,0.0,0.0,0.0,0.0,0.0,0.0,0.0,0.0,0.0,-4.9986,-4.9899,-4.9899,-4.9899,-4.9811,-4.9606,-4.9343,-4.9021,-4.8611,-4.8289,-4.8172,-4.8172,-4.8172,-4.8172,-4.8113,-4.7967,-4.7821,-4.7704,0.0,0.0,0.0,0.0,0.0,0.0,0.0,0.0,0.0,0.0,-2.9072,0.0,0.0,0.0,0.0,0.0,0.0,0.0,0.0,0.0,-3.0666,-3.0881,-3.1901,-3.309,-3.4732,-3.6621,-3.6967,-3.5132,-3.6996,-3.7402,-3.6583,-3.7548,-3.8251,-3.869,-3.989,-3.8926,-3.666,-3.6903,-3.559,-3.3352,-3.3713,-3.3907,-3.3823,-3.3267,0.0,0.0,0.0,0.0,0.0,0.0,0.0,0.0,0.0,-3.1205,-3.1552,-3.1988,-3.2475,-3.2912,-3.3213,0.0,0.0,0.0,0.0,0.0,0.0,0.0,0.0,0.0,0.0,0.0,0.0,0.0,0.0,0.0,0.0,0.0,0.0,0.0,0.0,0.0,0.0,0.0,0.0,0.0,0.0,0.0,0.0,0.0,0.0,0.0,0.0,0.0,0.0,0.0,0.0,0.0,0.0,0.0,0.0,-4.9577,-4.9577,-4.9606,-4.9606,-4.9518,-4.8904,-4.8611,-4.8582,-4.8289,-4.8172,-4.8172,-4.8113,-4.8113,-4.8172,-4.8113,-4.7967,-4.7762,0.0,0.0,0.0,0.0,0.0,0.0,0.0,0.0,0.0,0.0,0.0,0.0,0.0,0.0,0.0,0.0,0.0,0.0,0.0,-3.0506,-3.0751,-3.1217,-3.2717,-3.3486,-3.3563,-3.4539,-3.4531,-3.35,-3.5337,-3.6173,-3.6231,-3.7226,-3.8251,-3.9334,-3.943,-3.884,-3.7509,-3.5621,-3.4213,-3.3324,-3.3324,-3.2994,-3.2557,-3.2448,-3.1692,0.0,0.0,0.0,0.0,0.0,0.0,0.0,-3.0942,-3.1129,-3.1369,-3.137,-3.1904,-3.2794,0.0,-3.4416,0.0,0.0,0.0,0.0,0.0,0.0,0.0,0.0,0.0,0.0,0.0,0.0,0.0,0.0,0.0,0.0,0.0,0.0,0.0,0.0,0.0,0.0,0.0,0.0,0.0,0.0,0.0,0.0,0.0,0.0,0.0,0.0,0.0,0.0,0.0,0.0,0.0,0.0,-4.9255,-4.9255,-4.9255,-4.9782,-4.9723,-4.9196,-4.8552,-4.8289,-4.826,-4.8201,-4.8172,-4.8113,-4.7909,-4.7967,-4.8113,-4.7909,-4.7909,-4.8026,0.0,0.0,0.0,0.0,0.0,0.0,0.0,0.0,0.0,0.0,0.0,0.0,0.0,0.0,0.0,0.0,0.0,0.0,0.0,0.0,-3.0767,-3.1749,-3.314,-3.3619,-3.2606,-3.3809,-3.3412,-3.1805,-3.3185,-3.4363,-3.529,-3.6618,-3.7899,-3.8683,-3.9456,-3.8554,-3.6378,-3.5438,-3.4399,-3.3178,-3.3773,-3.3735,-3.332,-3.2893,-3.2091,-3.1129,-3.0541,0.0,0.0,0.0,0.0,0.0,0.0,0.0,-3.1102,-3.153,-3.2064,-3.2866,0.0,0.0,0.0,0.0,0.0,0.0,0.0,0.0,0.0,0.0,0.0,0.0,0.0,0.0,0.0,0.0,0.0,0.0,0.0,0.0,0.0,0.0,0.0,0.0,0.0,0.0,0.0,0.0,0.0,0.0,0.0,0.0,0.0,0.0,0.0,0.0,-4.9138,-4.8816,-4.8816,-4.9138,-4.8962,-4.8962,-4.9138,-4.9343,-4.9138,-4.864,-4.8318,-4.8172,-4.8172,-4.8172,-4.8172,-4.8172,-4.7996,-4.8026,-4.8172,-4.7996,-4.8026,-4.8113,0.0,0.0,0.0,0.0,0.0,0.0,0.0,0.0,0.0,0.0,0.0,0.0,0.0,0.0,0.0,0.0,0.0,0.0,0.0,0.0,0.0,-3.2209,-3.3267,-3.3298,-3.223,-3.3373,-3.3112,-3.1042,-3.1592,-3.2774,-3.429,-3.6018,-3.7458,-3.8265,-3.9358,-3.8152,-3.506,-3.5349,-3.4571,-3.2839,-3.3935,-3.4389,-3.4282,-3.3427,-3.2492,-3.1503,-3.0862,-3.0541,-3.0488,0.0,0.0,0.0,0.0,0.0,-3.1022,-3.1744,-3.2225,-3.3026,-3.5191,0.0,-4.0214,-4.4222,0.0,0.0,0.0,0.0,0.0,0.0,0.0,0.0,0.0,0.0,0.0,0.0,0.0,0.0,0.0,0.0,0.0,0.0,0.0,0.0,0.0,0.0,0.0,0.0,0.0,0.0,0.0,0.0,0.0,0.0,0.0,0.0,-4.8962,-4.8435,-4.8435,-4.8962,-4.864,-4.864,-4.8874,-4.8552,-4.8318,-4.8172,-4.8172,-4.8113,-4.8084,-4.8113,-4.8172,-4.8172,-4.8113,-4.8084,-4.8084,-4.8084,-4.8084,-4.8084,0.0,0.0,0.0,0.0,0.0,0.0,0.0,0.0,0.0,0.0,0.0,0.0,0.0,0.0,0.0,0.0,0.0,0.0,0.0,0.0,0.0,-3.2285,-3.2886,-3.2996,-3.3133,-3.2886,-3.2633,-3.2348,-3.1721,-3.2348,-3.4063,-3.5557,-3.7405,-3.9636,-3.8083,-3.6738,-3.5376,-3.38,-3.2687,-3.1904,-3.2572,-3.2839,-3.2786,-3.2144,-3.1637,-3.1183,-3.0327,-3.0327,-3.0782,0.0,0.0,0.0,0.0,0.0,0.0,-3.1316,-3.1904,-3.2839,0.0,0.0,-4.1978,0.0,-4.5799,-4.6707,0.0,0.0,0.0,0.0,0.0,0.0,0.0,0.0,0.0,0.0,0.0,0.0,0.0,0.0,0.0,0.0,0.0,0.0,0.0,0.0,0.0,0.0,0.0,0.0,0.0,0.0,-4.8867,-4.8728,-4.8699,0.0,-4.8289,-4.8201,-4.8201,-4.8289,-4.7996,-4.7879,-4.7879,-4.7557,-4.7674,-4.8172,-4.8172,-4.7996,-4.7791,-4.8055,-4.8172,-4.8113,-4.7879,-4.7762,-4.7762,-4.7762,-4.7762,-4.7762,0.0,0.0,0.0,0.0,0.0,0.0,0.0,0.0,0.0,0.0,0.0,0.0,0.0,0.0,0.0,0.0,0.0,0.0,0.0,0.0,0.0,-3.1772,-3.207,-3.2313,-3.2421,-3.2205,-3.1929,-3.1464,-3.1069,-3.2198,0.0,-3.4993,-3.617,-3.8197,-3.7454,-3.6334,-3.4855,-3.3654,-3.2599,-3.1957,-3.2385,-3.2652,-3.2706,-3.1957,-3.1583,-3.137,-3.0675,-3.0568,0.0,0.0,0.0,0.0,0.0,0.0,0.0,0.0,0.0,0.0,-3.6206,-3.9225,-4.2138,0.0,-4.5745,-4.6253,-4.6707,0.0,0.0,0.0,0.0,0.0,0.0,0.0,0.0,0.0,0.0,0.0,0.0,0.0,0.0,0.0,0.0,0.0,0.0,0.0,0.0,0.0,0.0,0.0,0.0,-4.7922,-4.7523,-4.7854,-4.7854,0.0,-4.8172,-4.8172,-4.8084,-4.7909,-4.7791,-4.7499,-4.7177,-4.7235,-4.7382,-4.7645,-4.7645,-4.7557,-4.747,-4.7587,-4.7645,-4.7645,-4.7704,-4.7587,-4.747,-4.7645,-4.7704,-4.7704,0.0,0.0,0.0,0.0,0.0,0.0,0.0,0.0,0.0,0.0,0.0,0.0,0.0,0.0,0.0,0.0,0.0,0.0,0.0,0.0,0.0,0.0,-3.1396,-3.1557,-3.1961,-3.1718,-3.1259,-3.0644,-3.0664,0.0,-3.5143,-3.4891,-3.5832,0.0,-3.7316,-3.6315,-3.4817,-3.3988,-3.3213,-3.2545,-3.2465,-3.2572,-3.2706,-3.2118,-3.1851,-3.169,-3.1102,-3.0942,0.0,0.0,0.0,0.0,0.0,0.0,0.0,0.0,0.0,0.0,0.0,0.0,-4.1016,-4.3901,-4.5024,-4.5611,0.0,0.0,0.0,0.0,0.0,0.0,0.0,0.0,0.0,0.0,0.0,0.0,0.0,0.0,0.0,0.0,0.0,0.0,0.0,0.0,0.0,0.0,0.0,0.0,-4.7723,-4.6937,-4.6655,-4.7101,-4.7101,-4.7391,-4.8172,-4.8084,-4.7909,-4.7704,-4.7557,-4.7235,-4.6738,-4.6914,-4.6972,-4.7001,-4.7148,-4.7177,-4.7118,-4.7177,-4.7235,-4.7265,-4.7499,-4.7382,-4.7148,-4.747,-4.7587,-4.7587,0.0,0.0,0.0,0.0,0.0,0.0,0.0,0.0,0.0,0.0,0.0,0.0,0.0,0.0,0.0,0.0,0.0,0.0,0.0,0.0,0.0,0.0,0.0,0.0,-3.2832,-3.161,-3.0993,-3.1491,0.0,0.0,-3.5164,-3.5725,-3.7382,-3.9813,-3.837,-3.7248,-3.6286,-3.487,0.0,-3.3694,-3.2572,-3.2144,-3.2171,-3.2412,-3.2332,-3.2011,-3.1423,0.0,0.0,0.0,0.0,0.0,0.0,0.0,0.0,0.0,0.0,0.0,0.0,-3.6259,0.0,-4.0909,-4.3046,0.0,0.0,0.0,0.0,0.0,0.0,0.0,0.0,0.0,0.0,0.0,0.0,0.0,0.0,0.0,0.0,0.0,0.0,0.0,0.0,0.0,0.0,0.0,0.0,0.0,-4.6588,-4.603,-4.6128,-4.7101,-4.7101,-4.7391,-4.8172,-4.7879,-4.7704,-4.7704,-4.7089,-4.6767,-4.6738,-4.6475,-4.6299,-4.6357,-4.6943,-4.706,-4.6767,-4.7118,-4.7235,-4.7235,-4.7235,-4.706,-4.6826,-4.7148,-4.7265,-4.7294,0.0,0.0,0.0,0.0,0.0,0.0,0.0,0.0,0.0,0.0,0.0,0.0,0.0,0.0,0.0,0.0,0.0,0.0,0.0,0.0,0.0,0.0,0.0,0.0,0.0,-3.1423,-3.0969,-3.0966,-3.0886,-3.2038,-3.4656,-3.5431,-3.7114,-3.9412,-3.7916,-3.7088,-3.666,-3.4629,0.0,0.0,-3.2438,-3.2332,-3.2625,-3.2144,-3.2278,0.0,0.0,0.0,0.0,0.0,0.0,0.0,0.0,0.0,0.0,0.0,0.0,0.0,0.0,0.0,0.0,-4.0107,-4.1897,-4.3233,0.0,0.0,0.0,0.0,0.0,0.0,0.0,0.0,0.0,0.0,0.0,0.0,0.0,0.0,0.0,0.0,0.0,0.0,0.0,0.0,0.0,0.0,0.0,0.0,-4.5737,-4.5043,-4.5171,-4.6346,-4.6346,-4.6783,-4.7879,-4.7762,-4.7499,-4.7089,-4.6855,-4.6533,-4.6153,-4.6211,-4.6153,-4.5977,-4.6416,-4.6533,-4.6475,-4.6533,-4.6621,-4.6621,-4.6826,-4.6709,-4.6475,-4.6796,-4.6914,-4.6943,0.0,0.0,0.0,0.0,0.0,0.0,0.0,0.0,0.0,0.0,0.0,0.0,0.0,0.0,0.0,0.0,0.0,0.0,0.0,0.0,0.0,0.0,0.0,0.0,0.0,-3.177,-3.1289,-3.0782,-3.0889,-3.2064,-3.4202,-3.5164,-3.6821,-3.8931,-3.7275,-3.7061,-3.7863,0.0,0.0,-3.4202,0.0,0.0,-3.3267,0.0,0.0,0.0,0.0,0.0,0.0,0.0,0.0,0.0,0.0,0.0,0.0,0.0,0.0,0.0,-3.3828,0.0,0.0,0.0,0.0,-4.1283,-4.3233,0.0,0.0,0.0,0.0,0.0,0.0,0.0,0.0,0.0,0.0,0.0,0.0,0.0,0.0,0.0,0.0,0.0,0.0,0.0,0.0,0.0,0.0,0.0,-4.5071,-4.4379,-4.4481,-4.5944,-4.6579,-4.6929,-4.7557,-4.7557,-4.7265,-4.6738,-4.6621,-4.6299,-4.5772,-4.6094,-4.6094,-4.5772,-4.6153,-4.627,-4.627,-4.627,-4.627,-4.6299,-4.6504,-4.6475,-4.6299,-4.6504,-4.665,-4.6738,0.0,0.0,0.0,0.0,0.0,0.0,0.0,0.0,0.0,0.0,0.0,0.0,0.0,0.0,0.0,0.0,-3.0247,-3.0408,-3.0408,0.0,0.0,0.0,0.0,0.0,0.0,0.0,0.0,-3.0782,-3.1637,-3.2652,-3.3855,-3.503,-3.666,-3.8531,-3.658,-3.7275,-3.984,0.0,-3.7916,-3.6714,0.0,-3.3935,-3.4122,0.0,0.0,0.0,-3.2361,-3.1046,0.0,0.0,0.0,0.0,0.0,0.0,0.0,0.0,0.0,-3.2118,0.0,0.0,0.0,0.0,0.0,0.0,0.0,0.0,0.0,0.0,0.0,0.0,0.0,0.0,0.0,0.0,0.0,0.0,0.0,0.0,0.0,0.0,0.0,0.0,0.0,0.0,0.0,0.0,0.0,-4.4008,-4.4008,-4.4008,-4.4635,-4.5636,-4.7189,-4.785,-4.7235,-4.7235,-4.706,-4.6738,-4.6387,-4.6094,-4.5772,-4.6094,-4.6065,-4.5772,-4.6094,-4.627,-4.627,-4.627,-4.627,-4.627,-4.627,-4.627,-4.627,-4.627,-4.6475,-4.6738,0.0,0.0,0.0,0.0,0.0,0.0,0.0,0.0,0.0,0.0,0.0,0.0,0.0,0.0,0.0,-3.1797,-3.169,-3.161,-3.161,-3.1289,0.0,0.0,0.0,0.0,0.0,0.0,0.0,0.0,0.0,-3.145,-3.2625,-3.3587,-3.4897,-3.65,-3.6981,-3.7195,-3.7061,-3.5297,0.0,0.0,-3.4549,-3.4897,0.0,0.0,0.0,0.0,0.0,-3.3701,0.0,0.0,-3.0349,-2.9977,0.0,0.0,0.0,0.0,0.0,-3.2144,-3.2358,0.0,0.0,0.0,0.0,0.0,0.0,0.0,0.0,0.0,0.0,0.0,0.0,0.0,0.0,0.0,0.0,0.0,0.0,0.0,0.0,0.0,0.0,0.0,0.0,0.0,0.0,0.0,0.0,-4.4008,-4.4008,-4.4292,-4.4802,-4.53,-4.6128,-4.6754,-4.6855,-4.6855,-4.6709,-4.6387,-4.6065,-4.586,-4.5772,-4.586,-4.5743,-4.545,-4.6036,-4.6153,-4.5948,-4.6182,-4.627,-4.627,-4.627,-4.627,-4.627,-4.627,-4.6299,-4.6387,0.0,0.0,0.0,0.0,0.0,0.0,0.0,0.0,0.0,0.0,0.0,0.0,0.0,0.0,0.0,-3.2545,-3.2385,-3.2225,-3.2118,-3.1664,0.0,0.0,0.0,0.0,0.0,0.0,0.0,0.0,0.0,0.0,0.0,0.0,-3.3347,-3.4549,-3.5297,-3.5378,-3.487,0.0,0.0,0.0,-3.5324,0.0,0.0,-3.5278,-3.4881,0.0,0.0,0.0,-3.0083,-2.9125,-2.9222,0.0,0.0,0.0,0.0,0.0,0.0,-3.2465,-3.2385,-3.2652,-3.3267,0.0,0.0,0.0,0.0,-3.7969,0.0,0.0,0.0,0.0,0.0,0.0,0.0,0.0,0.0,0.0,0.0,0.0,0.0,0.0,0.0,0.0,0.0,0.0,0.0,0.0,-4.3821,-4.3741,-4.3634,-4.4227,-4.4527,-4.4452,-4.5332,-4.5956,-4.603,-4.5922,-4.6001,-4.6065,-4.5612,-4.5408,-4.5362,-4.5509,-4.5421,-4.5128,-4.5626,-4.5831,-4.5772,-4.5977,-4.6153,-4.627,-4.627,-4.627,-4.627,-4.627,-4.627,-4.627,0.0,0.0,0.0,0.0,0.0,0.0,0.0,0.0,0.0,0.0,0.0,-3.2118,-3.2492,-3.3213,-3.3454,-3.2946,-3.2759,-3.2545,-3.2225,-3.1877,0.0,0.0,0.0,0.0,0.0,0.0,0.0,0.0,0.0,0.0,0.0,0.0,0.0,0.0,-3.2572,-3.2732,-3.308,0.0,0.0,-3.5191,-3.634,-3.5648,0.0,0.0,-3.3577,0.0,-2.9155,-2.7859,-2.6796,-2.4452,-2.5526,0.0,0.0,0.0,0.0,0.0,-3.2572,-3.2919,-3.2385,-3.2652,-3.34,0.0,0.0,0.0,-3.7595,-3.7328,0.0,0.0,0.0,0.0,0.0,0.0,0.0,0.0,0.0,0.0,0.0,0.0,0.0,0.0,0.0,0.0,0.0,0.0,0.0,-4.3501,-4.3501,-4.334,-4.3046,-4.3819,-4.394,-4.3639,-4.4397,-4.5022,-4.4932,-4.4713,-4.4823,-4.5467,-4.4943,-4.4655,-4.4865,-4.5128,-4.5099,-4.4806,-4.5187,-4.5509,-4.5743,-4.5831,-4.6006,-4.627,-4.627,-4.627,-4.627,-4.627,-4.627,-4.627,0.0,0.0,0.0,0.0,0.0,0.0,0.0,0.0,0.0,0.0,0.0,-3.4175,-3.5191,-3.5244,-3.5137,-3.503,-3.4175,-3.34,-3.2839,-3.2091,0.0,0.0,0.0,0.0,0.0,0.0,0.0,0.0,0.0,0.0,0.0,0.0,0.0,0.0,0.0,0.0,0.0,0.0,0.0,-3.4576,-3.5511,0.0,-3.8466,-3.6161,-3.5821,-3.5835,-3.2775,-3.0625,-2.872,0.0,-2.6907,-2.7115,0.0,0.0,0.0,0.0,0.0,0.0,0.0,0.0,0.0,0.0,0.0,0.0,-3.4202,-3.4469,-3.5351,0.0,0.0,0.0,0.0,0.0,0.0,0.0,0.0,0.0,0.0,0.0,0.0,0.0,0.0,0.0,0.0,0.0,-4.3233,-4.318,-4.318,-4.3046,-4.2779,-4.3009,-4.3129,-4.3338,-4.3618,-4.3733,-4.4121,-4.3928,-4.4009,-4.3889,-4.3879,-4.4095,-4.4483,-4.4768,-4.4836,-4.4836,-4.5421,-4.5567,-4.5421,-4.5948,-4.6211,-4.627,-4.627,-4.627,-4.627,-4.627,-4.627,-4.6299,0.0,0.0,0.0,0.0,0.0,0.0,0.0,0.0,0.0,0.0,-3.4683,-3.5511,-3.5805,-3.5992,-3.5939,-3.5645,-3.4817,-3.4068,-3.348,0.0,0.0,0.0,0.0,0.0,0.0,0.0,0.0,0.0,0.0,0.0,0.0,0.0,0.0,0.0,0.0,0.0,0.0,0.0,-3.2589,-3.2404,-3.6009,0.0,-3.5893,-3.5289,-3.387,-3.1768,-2.999,-2.8761,-2.7697,-2.6199,-2.6376,0.0,0.0,-2.8858,-3.0174,0.0,-3.2072,-3.248,0.0,0.0,0.0,-3.4229,0.0,0.0,0.0,-3.4095,-3.4416,0.0,0.0,0.0,0.0,0.0,0.0,0.0,0.0,0.0,0.0,0.0,0.0,0.0,0.0,0.0,0.0,0.0,-4.2886,-4.2886,-4.2619,-4.2432,-4.2432,-4.2298,-4.2471,-4.2724,-4.2724,-4.284,-4.3262,-4.3151,-4.304,-4.3312,-4.3312,-4.3558,-4.3832,-4.4396,-4.4554,-4.4554,-4.4972,-4.5304,-4.5333,-4.5655,-4.586,-4.6036,-4.6182,-4.627,-4.627,-4.627,-4.627,-4.6299,0.0,0.0,0.0,0.0,0.0,0.0,0.0,0.0,0.0,-3.4426,-3.5449,-3.5754,-3.4785,-3.4964,0.0,-3.4785,-3.3999,-3.3486,0.0,0.0,0.0,0.0,0.0,-3.2305,0.0,0.0,0.0,0.0,0.0,0.0,0.0,0.0,0.0,0.0,-3.145,-3.1288,0.0,0.0,0.0,-3.0373,0.0,-3.5489,-3.1906,-3.3209,-3.0654,-2.6772,-2.6436,-2.6249,-2.6038,-2.4592,0.0,-2.7575,-2.6022,-2.733,0.0,0.0,0.0,0.0,0.0,0.0,0.0,0.0,0.0,-3.4336,0.0,0.0,0.0,-3.5672,0.0,0.0,0.0,0.0,0.0,0.0,0.0,0.0,0.0,0.0,0.0,0.0,0.0,0.0,0.0,0.0,-4.2325,-4.2405,-4.1978,-4.1817,-4.2111,-4.1978,-4.1978,-4.2218,-4.2218,-4.2337,-4.2541,-4.2256,-4.2345,-4.2819,-4.282,-4.282,-4.334,-4.405,-4.4324,-4.454,-4.4768,-4.5099,-4.5362,-4.5362,-4.5538,-4.5831,-4.6153,-4.627,-4.627,-4.627,-4.627,-4.627,-2.1901,-2.4299,0.0,0.0,0.0,0.0,0.0,0.0,0.0,-3.3175,-3.3855,-3.3519,0.0,0.0,0.0,0.0,0.0,0.0,-3.1701,0.0,0.0,0.0,0.0,0.0,-3.1343,0.0,0.0,0.0,0.0,0.0,0.0,0.0,0.0,0.0,-3.1156,0.0,0.0,0.0,-3.1326,0.0,-3.3477,-3.3037,0.0,-2.9856,-2.9323,-2.8708,-2.7156,-2.6444,-2.6314,0.0,-2.6809,-2.8308,0.0,-2.8245,0.0,0.0,0.0,0.0,0.0,0.0,0.0,0.0,-3.6072,0.0,0.0,0.0,-3.4523,-3.4255,0.0,0.0,0.0,0.0,0.0,0.0,0.0,0.0,0.0,0.0,0.0,0.0,0.0,0.0,0.0,0.0,0.0,-4.1497,-4.1416,-4.1523,-4.1817,-4.2031,-4.2191,-4.2218,-4.2218,-4.2084,-4.179,-4.1817,-4.1684,-4.1584,-4.2106,-4.2628,-4.3312,-4.405,-4.4569,-4.5275,-4.5245,-4.5421,-4.5743,-4.5743,-4.5743,-4.5831,-4.6153,-4.627,-4.627,-4.627,-4.627,-4.6357,-2.0328,-2.235,0.0,0.0,0.0,0.0,0.0,0.0,-3.3147,-3.3726,-3.5705,0.0,0.0,0.0,0.0,0.0,0.0,0.0,0.0,0.0,0.0,0.0,0.0,0.0,0.0,0.0,0.0,0.0,-3.0702,0.0,0.0,0.0,0.0,0.0,-3.161,0.0,-2.9519,0.0,0.0,0.0,0.0,0.0,0.0,-2.9068,-2.9108,-2.7604,-2.7119,-2.672,-2.6509,0.0,-2.6002,0.0,0.0,0.0,0.0,0.0,0.0,0.0,0.0,0.0,0.0,0.0,0.0,0.0,0.0,0.0,-3.3694,0.0,0.0,0.0,0.0,0.0,0.0,0.0,0.0,0.0,0.0,0.0,0.0,0.0,0.0,0.0,0.0,0.0,0.0,0.0,0.0,-4.0615,-4.1229,-4.1229,-4.1443,-4.1951,-4.1978,-4.1897,-4.179,-4.179,-4.163,-4.1336,-4.1772,-4.2102,-4.2351,-4.376,-4.4342,-4.4591,-4.5408,-4.5655,-4.5772,-4.5567,-4.5626,-4.5772,-4.5948,-4.5977,-4.6006,-4.6182,-4.627,-4.6299,-1.9313,0.0,0.0,0.0,0.0,0.0,0.0,0.0,0.0,0.0,0.0,0.0,-3.2818,-3.2464,0.0,0.0,0.0,-2.8424,0.0,0.0,-2.9117,0.0,0.0,0.0,0.0,0.0,0.0,0.0,0.0,0.0,0.0,0.0,0.0,0.0,0.0,-3.0615,-2.9631,0.0,0.0,-2.4578,-2.7439,-2.6603,-2.3958,-2.7976,-2.8497,-2.6963,-2.7061,-2.7028,-2.6817,-2.5924,-2.6091,0.0,-2.5156,0.0,0.0,0.0,0.0,0.0,-3.2569,0.0,0.0,0.0,0.0,0.0,0.0,0.0,0.0,0.0,0.0,0.0,0.0,0.0,0.0,0.0,0.0,0.0,0.0,0.0,0.0,0.0,0.0,0.0,0.0,0.0,0.0,0.0,-3.9706,0.0,-4.0615,-4.0615,-4.0962,-4.1737,-4.1871,-4.1817,-4.1684,-4.1737,-4.1603,-4.1229,-4.1523,-4.1657,-4.1933,-4.3206,-4.4096,-4.4318,-4.5116,-4.5583,-4.5889,-4.5567,-4.5567,-4.5772,-4.586,-4.586,-4.5831,-4.6153,-4.627,-4.627,-1.9475,-1.9654,0.0,0.0,0.0,0.0,0.0,0.0,0.0,0.0,0.0,0.0,0.0,0.0,0.0,0.0,0.0,-2.5195,-2.7145,0.0,-2.6172,0.0,0.0,0.0,0.0,0.0,0.0,0.0,0.0,0.0,0.0,0.0,0.0,0.0,0.0,-2.8598,-2.767,-2.8323,-2.6997,-2.4729,-2.6985,-2.7244,-2.6752,0.0,-2.6298,-2.75,-2.7337,0.0,0.0,-2.6476,-2.788,0.0,0.0,0.0,0.0,0.0,0.0,0.0,0.0,0.0,0.0,-3.6,0.0,0.0,0.0,0.0,-3.5057,0.0,0.0,0.0,0.0,0.0,0.0,-3.5191,0.0,0.0,0.0,0.0,0.0,0.0,0.0,0.0,0.0,0.0,0.0,0.0,-3.9092,0.0,-4.0,-4.0588,-4.1176,-4.1764,-4.2084,-4.1924,-4.1363,-4.163,-4.1497,-4.0909,-4.1229,-4.1611,-4.2353,-4.2654,-4.3539,-4.4782,-4.4782,-4.548,-4.624,-4.5889,-4.5772,-4.5831,-4.6153,-4.6065,-4.5831,-4.6153,-4.627,-4.6299,0.0,0.0,0.0,0.0,0.0,0.0,0.0,-2.6437,0.0,0.0,0.0,0.0,0.0,0.0,-2.8636,0.0,0.0,-2.6042,-2.6007,-2.6537,0.0,0.0,0.0,-2.7851,0.0,0.0,0.0,0.0,0.0,0.0,0.0,0.0,0.0,0.0,0.0,-2.8368,0.0,0.0,0.0,0.0,0.0,-2.6224,-2.6817,0.0,0.0,-2.737,-2.7435,-2.7418,0.0,-2.7158,-2.7351,-2.7562,-2.6814,-2.6605,-2.6792,-2.686,-2.7639,0.0,0.0,0.0,-3.2026,-3.4411,0.0,0.0,0.0,0.0,0.0,0.0,0.0,0.0,0.0,0.0,-3.5778,-3.5778,-3.5778,0.0,0.0,0.0,0.0,0.0,0.0,0.0,0.0,0.0,0.0,-3.837,-3.7515,-3.7595,0.0,-3.9172,-3.9786,-4.1176,-4.1122,-4.1176,-4.1336,-4.1069,-4.0802,-4.0615,-4.0909,-4.1149,-4.1611,-4.2595,-4.3316,-4.3817,-4.4568,-4.5154,-4.5462,-4.5408,-4.5714,-4.6065,-4.5743,-4.5831,-4.6094,-4.624,-4.627,-4.627,-2.0206,0.0,0.0,0.0,0.0,0.0,0.0,0.0,0.0,0.0,-2.9692,0.0,-3.0566,0.0,-2.9907,0.0,-2.7857,-2.7191,-2.5778,-2.6587,0.0,-2.4186,-2.6042,0.0,0.0,0.0,0.0,0.0,0.0,-2.6671,0.0,0.0,0.0,0.0,0.0,-2.7156,-2.576,0.0,-2.732,0.0,0.0,-2.6249,0.0,0.0,-2.737,0.0,0.0,-2.7564,-2.7467,-2.7532,-2.7272,-2.698,-2.7207,-2.672,-2.6103,-2.6249,-2.7021,-2.8149,-2.8875,-2.9357,0.0,0.0,-3.2634,0.0,0.0,0.0,0.0,0.0,0.0,0.0,0.0,0.0,-3.6767,-3.658,-3.6179,-3.5404,0.0,0.0,0.0,0.0,0.0,0.0,0.0,0.0,-3.6767,-3.7008,-3.6153,-3.6206,0.0,0.0,-3.8718,-4.008,-4.0374,-4.0615,-4.0882,-4.0508,-4.0321,-4.0321,-4.0615,-4.0935,-4.1336,-4.2345,-4.2867,-4.3229,-4.3984,-4.4767,-4.5211,-4.5191,-4.5525,-4.6211,-4.5655,-4.5772,-4.627,-4.627,-4.627,-4.627,0.0,0.0,0.0,0.0,-2.1019,0.0,0.0,0.0,-2.4332,0.0,-2.6168,-2.7191,-2.8101,-2.8507,-2.8783,-2.8945,-2.9091,0.0,-2.646,-2.646,0.0,0.0,-2.43,-2.4992,-2.674,0.0,0.0,0.0,0.0,0.0,0.0,0.0,0.0,0.0,-2.5862,0.0,-2.5314,-2.5178,-2.542,-2.6298,-2.6817,-2.7126,-2.7321,-2.7483,0.0,-2.7581,-2.7743,-2.7808,-2.7776,-2.7613,-2.7678,-2.7743,-2.7402,-2.7288,-2.7191,-2.6671,-2.6509,-2.6887,-2.8518,-2.9358,-2.99,-3.0924,0.0,0.0,0.0,0.0,-3.8179,0.0,0.0,0.0,0.0,0.0,0.0,-3.7408,-3.6313,-3.4843,0.0,0.0,0.0,0.0,0.0,0.0,0.0,-3.65,-3.5859,-3.5591,-3.5004,-3.495,0.0,0.0,0.0,-3.8691,-3.9813,-4.0294,-4.0,-4.0,-4.0027,-4.0027,-4.0374,-4.0802,-4.139,-4.1684,-4.2202,-4.3201,-4.3229,-4.3957,-4.524,-4.4896,-4.548,-4.624,-4.5889,-4.5977,-4.627,-4.627,-4.627,-4.627,-2.0791,-2.0921,-2.0986,0.0,-2.0791,-2.1148,0.0,0.0,0.0,0.0,-2.7467,-2.8637,-2.9936,-3.0033,-3.0017,-3.0082,-2.9741,0.0,0.0,0.0,0.0,-2.6541,-2.6216,-2.596,-2.57,-2.4863,0.0,-2.4232,0.0,0.0,-2.5992,0.0,0.0,0.0,0.0,0.0,-2.3256,-2.4582,-2.5745,-2.6817,-2.7093,-2.7321,0.0,0.0,-2.7629,-2.7743,-2.7776,-2.7808,-2.7808,-2.7759,-2.7759,-2.7776,-2.7694,-2.7564,-2.7435,-2.7305,-2.7158,-2.7306,-2.7642,-2.7833,-2.8191,-2.9826,-3.0476,-3.1046,0.0,0.0,0.0,0.0,0.0,0.0,0.0,0.0,0.0,-3.666,-3.5244,-3.4068,0.0,0.0,0.0,0.0,0.0,0.0,-3.5939,-3.5297,-3.4736,-3.4656,-3.3908,0.0,0.0,0.0,0.0,-3.8317,-3.9092,-3.9573,-3.9706,-3.9706,-3.9813,-4.0027,-4.0535,-4.1096,-4.1684,-4.1978,-4.2165,-4.2471,-4.2976,-4.3705,-4.4431,-4.4676,-4.548,-4.624,-4.5889,-4.5977,-4.627,-4.627,-4.627,-4.627,-2.1067,0.0,0.0,-2.1473,0.0,0.0,-2.2935,0.0,0.0,-2.6671,-2.8036,0.0,-3.0082,-3.0569,-3.0797,-3.0716,-3.0375,0.0,0.0,0.0,0.0,-2.7532,-2.7256,-2.6785,-2.6119,-2.5225,0.0,-2.3487,0.0,0.0,-2.4617,0.0,0.0,0.0,0.0,-2.2898,-2.2383,-2.4576,-2.6086,-2.7028,-2.7288,0.0,0.0,-2.7629,-2.7711,-2.7808,-2.7808,-2.7808,-2.7808,-2.7808,-2.7808,-2.7808,-2.7808,-2.7743,-2.7646,-2.7646,-2.7532,-2.7402,-2.7402,-2.7272,-2.7306,-2.8549,-2.9168,-2.9938,-3.126,-3.348,-3.529,0.0,0.0,0.0,0.0,0.0,0.0,-3.5832,-3.471,0.0,0.0,0.0,0.0,0.0,0.0,0.0,-3.479,-3.4309,-3.3774,-3.3374,0.0,0.0,0.0,0.0,0.0,0.0,-3.8504,-3.9225,-3.9412,-3.968,-3.9893,-4.0027,-4.0615,-4.1096,-4.1416,-4.1978,-4.2084,-4.1844,-4.2589,-4.3147,-4.3511,-4.4093,-4.4982,-4.5741,-4.6036,-4.6094,-4.627,-4.627,-4.627,-4.624,0.0,0.0,0.0,0.0,0.0,0.0,0.0,-2.4917,0.0,-2.685,0.0,-2.9481,-2.9644,-3.0651,-3.1252,0.0,0.0,-3.0277,-2.9091,-2.914,-2.8815,-2.7954,-2.7776,-2.7532,-2.7126,-2.6233,0.0,0.0,0.0,0.0,0.0,-2.1458,-2.1208,-2.2896,0.0,0.0,0.0,-2.4787,-2.6249,-2.698,-2.7353,-2.7548,-2.7581,-2.7743,-2.7808,-2.7808,-2.7808,-2.7808,-2.7808,-2.7808,-2.7808,-2.7808,-2.7808,-2.7808,-2.7808,-2.7808,-2.7694,-2.7581,-2.7581,-2.7435,-2.7272,-2.7126,-2.8985,-3.0129,-2.7292,-3.0297,-3.3163,-3.1297,-3.3722,0.0,0.0,0.0,0.0,-3.5164,0.0,0.0,0.0,0.0,0.0,0.0,0.0,0.0,0.0,0.0,0.0,0.0,0.0,0.0,0.0,0.0,0.0,0.0,-3.7916,0.0,-3.9332,0.0,-4.008,-4.0241,-4.0722,-4.0989,-4.1042,-4.1844,-4.1924,-4.1497,-4.2004,-4.2337,-4.2818,-4.3595,-4.4512,-4.549,-4.5961,-4.624,-4.627,-4.6182,-4.6182,-4.624,0.0,0.0,0.0,0.0,0.0,0.0,0.0,-2.6769,-2.7564,-2.8198,-2.9822,0.0,-3.0943,-3.1284,-3.1447,-3.1252,-3.0943,0.0,0.0,0.0,0.0,-2.8507,-2.8588,-2.8328,-2.7678,-2.6785,-2.5778,0.0,0.0,0.0,0.0,-2.0643,-2.02,-2.046,-2.0676,0.0,-2.3341,-2.4706,0.0,-2.6606,-2.7126,-2.75,-2.7759,-2.7776,-2.7808,-2.7808,-2.7808,-2.7808,-2.7808,-2.7808,-2.7808,-2.7808,-2.7808,-2.7808,-2.7808,-2.7808,-2.7776,-2.7759,-2.7759,-2.7629,-2.7483,-2.7467,-2.7618,-2.8533,-2.9873,-3.1147,-3.2178,-3.4135,-3.4735,-3.4672,-3.3973,0.0,0.0,0.0,0.0,0.0,0.0,0.0,0.0,0.0,0.0,0.0,0.0,0.0,0.0,0.0,0.0,0.0,0.0,0.0,0.0,0.0,0.0,0.0,0.0,0.0,0.0,-4.1497,-4.1336,-4.139,-4.163,-4.2031,-4.2138,-4.2084,-4.2191,-4.2444,-4.3147,-4.3901,-4.4932,-4.5991,-4.5977,-4.6036,-4.6182,-4.5655,-4.5831,-4.627,0.0,0.0,0.0,0.0,0.0,0.0,0.0,-2.8377,0.0,-2.8913,-2.9887,-3.0634,-3.0732,-3.1398,-3.1723,-3.1447,-3.1187,-3.0797,-3.0261,-2.9887,-2.9481,-2.9059,-2.8848,0.0,-2.8084,-2.7093,-2.5989,-2.4722,0.0,0.0,0.0,-2.0158,-1.9768,-1.954,-2.0271,-2.1636,0.0,0.0,0.0,-2.6379,-2.7012,-2.7483,-2.7808,-2.7808,-2.7808,-2.7808,-2.7808,-2.7808,-2.7808,-2.7808,-2.7808,-2.7808,-2.7808,-2.7808,-2.7808,-2.7808,-2.7808,-2.7808,-2.7808,-2.7678,-2.7548,-2.7548,-2.7402,-2.7519,-2.8811,-2.9331,-2.9538,-3.0713,-3.1962,-3.2575,-3.2467,-3.2906,0.0,0.0,0.0,0.0,0.0,0.0,0.0,0.0,0.0,0.0,0.0,0.0,0.0,0.0,0.0,0.0,0.0,0.0,0.0,0.0,0.0,0.0,0.0,0.0,0.0,-4.0882,-4.1203,-4.1336,-4.1336,-4.179,-4.1897,-4.179,-4.1924,-4.2229,-4.2507,-4.365,-4.4989,-4.624,-4.5889,-4.5977,-4.6182,-4.5538,-4.5626,-4.5977,0.0,-2.3764,0.0,0.0,-2.633,0.0,0.0,-2.9546,-3.0293,-2.9579,-2.9952,-3.0358,-3.0488,-3.1414,-3.1885,-3.1528,-3.1333,-3.0992,-3.0456,-2.9985,-2.9627,-2.9367,-2.8945,-2.8604,-2.8328,-2.7435,-2.6233,0.0,0.0,0.0,0.0,0.0,0.0,0.0,0.0,0.0,0.0,0.0,-2.5063,-2.6265,-2.6947,-2.7467,-2.7808,-2.7808,-2.7808,-2.7808,-2.7808,-2.7808,-2.7808,-2.7808,-2.7808,-2.7808,-2.7808,-2.7808,-2.7808,-2.7808,-2.7808,-2.7808,-2.7808,-2.7694,-2.7613,-2.7613,-2.7483,-2.7353,-2.7288,-2.7272,-2.7207,-2.6996,-2.8294,-2.9938,-3.0842,-3.2484,0.0,0.0,0.0,0.0,0.0,0.0,0.0,0.0,0.0,0.0,0.0,0.0,0.0,0.0,0.0,0.0,-3.2706,-3.3721,0.0,0.0,0.0,0.0,-3.9412,0.0,-4.0615,0.0,-4.0989,-4.1149,-4.1016,-4.1523,-4.1684,-4.1523,-4.179,-4.2122,-4.2399,-4.3622,-4.4932,-4.6153,-4.5831,-4.586,-4.6065,-4.5333,-4.5421,-4.5831,0.0,0.0,0.0,0.0,0.0,0.0,0.0,-2.9903,-3.0699,-3.0602,-3.1073,-3.1398,-3.1414,-3.1674,-3.169,-3.1349,-3.1138,-3.0813,-3.0293,-3.0033,-2.9692,-2.9189,-2.9124,-2.8848,-2.836,-2.7922,-2.685,0.0,0.0,0.0,0.0,0.0,0.0,0.0,0.0,0.0,0.0,-2.3829,-2.5063,-2.6249,-2.6817,-2.7353,-2.7808,-2.7808,-2.7808,-2.7808,-2.7808,-2.7808,-2.7808,-2.7808,-2.7808,-2.7808,-2.7808,-2.7808,-2.7808,-2.7808,-2.7808,-2.7808,-2.7808,-2.7776,-2.7776,-2.7776,-2.7759,-2.7678,-2.7337,-2.7272,-2.7158,-2.685,-2.6748,-2.6937,-2.8029,-3.0863,-3.2884,0.0,0.0,0.0,0.0,0.0,0.0,0.0,0.0,0.0,0.0,0.0,0.0,0.0,0.0,0.0,-3.1824,-3.34,0.0,-3.4817,0.0,-3.8397,-4.0321,-4.0187,0.0,-4.1603,-4.1176,-4.1096,-4.131,-4.163,-4.1924,-4.2138,-4.2191,-4.2922,-4.3929,-4.4208,-4.4818,-4.5772,-4.545,-4.5538,-4.5714,-4.4777,-4.5158,-4.6094,0.0,0.0,0.0,0.0,0.0,0.0,0.0,-3.0602,-3.1154,-3.1365,-3.1593,-3.1706,-3.1706,-3.1771,-3.1625,-3.1154,-3.1057,-3.0781,-3.0261,-2.9952,-2.9627,-2.9302,-2.9091,-2.8783,-2.8328,-2.7987,-2.698,0.0,0.0,0.0,0.0,0.0,0.0,0.0,0.0,0.0,-2.3341,-2.4251,-2.5323,-2.6395,-2.6947,-2.7418,-2.7808,-2.7808,-2.7808,-2.7808,-2.7808,-2.7808,-2.7808,-2.7808,-2.7808,-2.7808,-2.7808,-2.7808,-2.7808,-2.7808,-2.7808,-2.7808,-2.7808,-2.7808,-2.7808,-2.7808,-2.7808,-2.7743,-2.7483,-2.7435,-2.7305,-2.685,-2.6379,-2.6108,-2.6467,-2.8374,-3.0472,0.0,0.0,0.0,0.0,0.0,0.0,0.0,0.0,0.0,0.0,0.0,0.0,0.0,0.0,0.0,-3.2438,-3.2973,-3.3801,-3.4977,0.0,-3.7969,-3.968,-4.0107,-4.0615,-4.1283,-4.1203,-4.131,-4.1603,-4.1737,-4.1844,-4.1978,-4.2643,-4.3453,-4.4208,-4.4512,-4.526,-4.5977,-4.5304,-4.5333,-4.5655,-4.4689,-4.4894,-4.5567,-2.7467,0.0,-2.7759,0.0,-2.9221,-2.9692,-3.0667,-3.1138,-3.1463,-3.1706,-3.1739,-3.1739,-3.1739,-3.1739,-3.1528,-3.0992,-3.0927,-3.0732,-3.0245,-2.992,-2.9644,-2.9416,-2.9124,0.0,-2.8425,-2.8117,-2.7288,-2.5956,-2.4819,0.0,0.0,0.0,0.0,0.0,-2.2123,-2.3,-2.4088,-2.4917,-2.5778,-2.6671,-2.7158,-2.7532,-2.7808,-2.7808,-2.7808,-2.7808,-2.7808,-2.7808,-2.7808,-2.7808,-2.7808,-2.7808,-2.7808,-2.7808,-2.7808,-2.7808,-2.7808,-2.7808,-2.7808,-2.7808,-2.7808,-2.7808,-2.7759,-2.7678,-2.75,-2.737,-2.7158,-2.6671,-2.6233,-2.5843,-2.5534,-2.7152,-2.9037,0.0,0.0,0.0,0.0,0.0,0.0,0.0,0.0,0.0,0.0,0.0,0.0,0.0,0.0,0.0,0.0,-3.308,0.0,0.0,0.0,0.0,0.0,0.0,-4.0695,-4.0909,-4.1203,-4.1497,-4.179,-4.1871,-4.1924,-4.1924,-4.2643,-4.3453,-4.418,-4.4484,-4.5231,-4.6065,-4.5245,-4.5216,-4.5538,-4.4777,-4.4806,-4.5216,-2.8425,-2.8442,-2.8718,-2.9985,-3.0358,-3.0586,-3.0943,-3.1317,-3.1544,-3.1544,-3.1544,-3.1544,-3.1544,-3.1544,-3.1333,-3.0797,-3.0764,-3.0602,-3.0245,-3.005,-2.9774,0.0,0.0,-2.8978,-2.8604,-2.8425,-2.7971,-2.7256,0.0,0.0,-2.3764,0.0,0.0,-2.274,-2.3634,-2.4235,-2.4657,-2.5745,-2.6509,-2.7028,-2.7402,-2.7646,-2.7808,-2.7808,-2.7808,-2.7808,-2.7808,-2.7808,-2.7808,-2.7808,-2.7808,-2.7808,-2.7808,-2.7808,-2.7808,-2.7808,-2.7808,-2.7808,-2.7808,-2.7808,-2.7808,-2.7808,-2.7678,-2.75,-2.7321,-2.6996,-2.6655,-2.6298,-2.6054,-2.5891,-2.5697,-2.7835,-2.9352,-2.8936,0.0,0.0,0.0,0.0,0.0,0.0,0.0,0.0,0.0,0.0,0.0,0.0,0.0,0.0,0.0,0.0,0.0,-3.4763,-3.674,0.0,-3.9145,-4.0321,-4.0909,-4.0909,-4.1203,-4.1497,-4.179,-4.2084,-4.2218,-4.2218,-4.2218,-4.2976,-4.4208,-4.4208,-4.479,-4.5743,-4.5421,-4.5304,-4.5245,-4.4923,-4.5011,-4.5245,-2.9319,-2.9481,-2.9774,-3.031,-3.0651,-3.0927,-3.1154,-3.1398,-3.1593,-3.1706,-3.1739,-3.1739,-3.1739,0.0,-3.1203,0.0,-3.0651,-3.0423,0.0,-2.9871,-2.9644,-2.9416,-2.9254,-2.8978,-2.8604,-2.8425,-2.8036,-2.7467,0.0,0.0,0.0,-2.3569,-2.3617,-2.4218,-2.4608,-2.5128,-2.5745,-2.6314,-2.6801,-2.7207,-2.7435,-2.7646,-2.7808,-2.7808,-2.7808,-2.7808,-2.7808,-2.7808,-2.7808,-2.7808,-2.7808,-2.7808,-2.7808,-2.7808,-2.7808,-2.7808,-2.7808,-2.7808,-2.7808,-2.7808,-2.7808,-2.7808,-2.7759,-2.7629,-2.7337,-2.6882,-2.6492,-2.6249,-2.6054,-2.5891,-2.5697,-2.642,-2.7313,-2.8856,0.0,0.0,0.0,0.0,0.0,0.0,0.0,0.0,0.0,0.0,0.0,0.0,0.0,0.0,0.0,0.0,0.0,0.0,-3.6954,0.0,-3.9145,-4.0321,-4.1016,-4.1203,-4.1497,-4.179,-4.2084,-4.2191,-4.2218,-4.2218,-4.2724,-4.3453,-4.418,-4.4285,-4.4915,-4.5684,-4.4923,-4.4777,-4.4923,-4.4601,-4.4514,-4.4601,-2.9806,-3.0017,-3.0293,-3.0456,-3.0846,-3.1154,-3.1268,-3.1447,-3.1593,-3.169,-3.1609,-3.1544,-3.1609,-3.1317,0.0,-3.0781,-3.0521,0.0,-2.9968,-2.9774,-2.9595,-2.9416,-2.9254,-2.901,-2.8718,0.0,0.0,-2.7841,-2.6882,-2.5973,-2.5128,-2.4852,-2.4949,-2.5388,-2.5697,-2.6054,-2.6444,-2.6866,-2.7158,-2.7402,-2.7564,-2.7711,-2.7808,-2.7808,-2.7808,-2.7808,-2.7808,-2.7808,-2.7808,-2.7808,-2.7808,-2.7808,-2.7808,-2.7808,-2.7808,-2.7808,-2.7808,-2.7808,-2.7808,-2.7808,-2.7808,-2.7808,-2.7759,-2.7597,-2.7158,-2.6801,-2.6509,-2.6249,-2.6054,-2.5891,-2.5778,-2.5664,-2.6075,-2.7835,0.0,0.0,0.0,0.0,0.0,0.0,0.0,0.0,0.0,-3.5244,0.0,0.0,0.0,0.0,0.0,0.0,0.0,-3.5591,-3.7168,0.0,-3.9306,-4.0481,-4.1149,-4.1336,-4.1737,-4.2031,-4.2218,-4.2218,-4.2218,-4.2218,-4.2724,-4.3426,-4.404,-4.4172,-4.4771,-4.5538,-4.4806,-4.4631,-4.4777,-4.4572,-4.4426,-4.4309,-2.9968,-3.0115,0.0,0.0,-3.0927,0.0,-3.1284,-3.1414,-3.1528,-3.1544,-3.1252,-3.1089,-3.1268,-3.0976,-3.0764,-3.0732,0.0,0.0,0.0,-2.9774,-2.9611,-2.9416,-2.9254,0.0,-2.888,-2.8523,-2.8312,-2.8295,-2.7272,-2.6704,-2.6525,-2.6362,-2.6265,-2.6314,-2.6801,-2.6931,-2.6801,-2.7337,-2.7548,-2.7564,-2.7743,-2.7808,-2.7808,-2.7808,-2.7808,-2.7808,-2.7808,-2.7808,-2.7808,-2.7808,-2.7808,-2.7808,-2.7808,-2.7808,-2.7808,-2.7808,-2.7808,-2.7808,-2.7808,-2.7808,-2.7808,-2.7808,-2.7678,-2.7418,-2.6915,-2.6785,-2.6655,-2.6314,-2.6103,-2.5973,-2.5956,-2.568,-2.5485,-2.5664,-2.7515,-2.9307,-3.0586,0.0,0.0,0.0,0.0,0.0,0.0,-3.5939,-3.6446,0.0,0.0,0.0,0.0,0.0,0.0,-3.5698,-3.7408,-3.8718,-3.9599,-4.0748,-4.1363,-4.1416,-4.1951,-4.2218,-4.2218,-4.2218,-4.2218,-4.2218,-4.2191,-4.2786,-4.3788,-4.376,-4.4306,-4.5216,-4.4894,-4.4777,-4.4777,-4.4806,-4.4601,-4.4367,0.0,0.0,-3.0439,-3.0488,-3.0927,-3.1284,-3.1284,-3.1333,-3.1398,-3.1528,-3.1349,-3.1252,-3.1284,-3.0976,-3.0699,-3.0569,-3.0358,-3.0147,-2.9968,-2.9903,-2.9741,-2.9432,-2.9367,-2.9205,-2.888,-2.8523,-2.8198,-2.7922,-2.7402,-2.7191,-2.7288,-2.698,-2.6882,-2.7012,-2.7142,-2.7191,-2.7158,-2.7435,-2.7548,-2.7564,-2.7743,-2.7808,-2.7808,-2.7808,-2.7808,-2.7808,-2.7808,-2.7808,-2.7808,-2.7808,-2.7808,-2.7808,-2.7808,-2.7808,-2.7808,-2.7808,-2.7808,-2.7808,-2.7808,-2.7808,-2.7808,-2.7808,-2.7678,-2.75,-2.737,-2.7142,-2.6882,-2.6655,-2.646,-2.6298,-2.6168,-2.5956,-2.5778,-2.5697,-2.5594,-2.6824,-2.9911,0.0,0.0,0.0,-3.5271,-3.5378,-3.5618,-3.6286,-3.6527,0.0,0.0,0.0,0.0,0.0,-3.6927,-3.6633,-3.813,-3.9172,-3.9599,-4.0748,-4.155,-4.2004,-4.2138,-4.2218,-4.2218,-4.2218,-4.2218,-4.2218,-4.248,-4.3095,-4.376,-4.3776,-4.4281,-4.4894,-4.4572,-4.4426,-4.4484,-4.4719,-4.4601,-4.4367,-3.0245,-3.0358,-3.0488,-3.0488,-3.0927,-3.1268,-3.1187,-3.1317,-3.1382,-3.1317,-3.1154,-3.1008,-3.0927,-3.0667,-3.0439,-3.0245,-3.0163,-3.005,-2.9952,-2.9952,-2.9806,-2.9432,-2.9416,-2.9254,-2.888,-2.8523,-2.8117,-2.7694,-2.7564,-2.7532,-2.7548,-2.7418,-2.737,-2.7402,-2.7483,-2.7467,-2.7402,-2.7597,-2.7646,-2.7678,-2.7759,-2.7808,-2.7808,-2.7808,-2.7808,-2.7808,-2.7808,-2.7808,-2.7808,-2.7808,-2.7808,-2.7808,-2.7808,-2.7808,-2.7808,-2.7808,-2.7808,-2.7808,-2.7808,-2.7808,-2.7808,-2.7808,-2.7678,-2.7532,-2.7435,-2.7207,-2.6931,-2.6671,-2.646,-2.6298,-2.6119,-2.5924,-2.5697,-2.5355,-2.4706,-2.5573,-2.8913,-2.9053,0.0,-3.4452,-3.5458,-3.5912,-3.6206,-3.7008,-3.7275,-3.6687,0.0,0.0,-3.6687,-3.7622,-3.7969,-3.7355,-3.8638,-3.9493,-3.9786,-4.0829,-4.163,-4.2218,-4.2218,-4.2218,-4.2218,-4.2218,-4.2218,-4.2191,-4.2677,-4.3207,-4.3536,-4.3793,-4.3993,-4.4572,-4.4397,-4.4309,-4.4367,-4.4514,-4.4484,-4.4367,-3.0326,-3.0423,-3.0521,-3.0521,-3.0927,-3.1203,-3.104,-3.1252,-3.1317,-3.1008,-3.0829,-3.0651,-3.0456,-3.031,-3.0147,-2.992,-2.9903,-2.992,-2.9952,-2.992,-2.9757,-2.9432,-2.94,-2.9221,-2.888,-2.8523,-2.8084,-2.7548,-2.7711,-2.7711,-2.7548,-2.7711,-2.7711,-2.7581,-2.7743,-2.7711,-2.7581,-2.7743,-2.7808,-2.7808,-2.7808,-2.7808,-2.7808,-2.7808,-2.7808,-2.7808,-2.7808,-2.7808,-2.7808,-2.7808,-2.7808,-2.7808,-2.7808,-2.7808,-2.7808,-2.7808,-2.7808,-2.7808,-2.7808,-2.7776,-2.7759,-2.7759,-2.7629,-2.7467,-2.7272,-2.7093,-2.6866,-2.6525,-2.633,-2.6168,-2.5989,-2.5778,-2.5485,-2.4998,-2.4235,-2.4742,-2.8173,0.0,0.0,-3.4531,-3.5939,-3.6767,-3.7114,-3.7809,-3.8183,-3.7969,-3.8397,0.0,0.0,-3.8424,-3.8531,-3.8103,-3.9065,-3.9786,-4.0187,-4.0909,-4.155,-4.2138,-4.2138,-4.2191,-4.2218,-4.2218,-4.2191,-4.2138,-4.2595,-4.3013,-4.3228,-4.3679,-4.3849,-4.4309,-4.4309,-4.4367,-4.4397,-4.4397,-4.4397,-4.4397,-3.0651,-3.0699,-3.0716,-3.0716,-3.0911,-3.1057,-3.1008,-3.0927,-3.0862,-3.0797,-3.0634,-3.0456,-3.0293,-3.0245,-3.0098,-2.9741,-2.9709,-2.9774,-2.9952,-2.9806,-2.9627,-2.9416,-2.927,-2.9091,-2.888,-2.8523,-2.8084,-2.7548,-2.7711,-2.7711,-2.7548,-2.7711,-2.7776,-2.7759,-2.7776,-2.7776,-2.7759,-2.7776,-2.7808,-2.7808,-2.7808,-2.7808,-2.7808,-2.7808,-2.7808,-2.7808,-2.7808,-2.7808,-2.7808,-2.7808,-2.7808,-2.7808,-2.7808,-2.7808,-2.7808,-2.7808,-2.7808,-2.7808,-2.7808,-2.7694,-2.7581,-2.7581,-2.7435,-2.7272,-2.7093,-2.6915,-2.672,-2.6509,-2.633,-2.62,-2.6168,-2.5761,-2.5355,-2.5144,-2.3991,-2.4528,0.0,0.0,-3.0356,-3.4846,-3.6553,-3.7462,-3.7996,-3.8183,-3.837,-3.8584,-3.8424,-3.8397,-3.8584,-3.8691,-3.8905,-3.9306,-3.9493,-3.9974,-4.0775,-4.0909,-4.1283,-4.1844,-4.1844,-4.1978,-4.2218,-4.2218,-4.2084,-4.1817,-4.2296,-4.2463,-4.292,-4.3309,-4.3917,-4.4309,-4.4309,-4.4484,-4.4719,-4.4719,-4.4719,-4.4719,-3.0602,-3.0602,-3.0602,-3.0602,-3.0667,-3.0764,-3.0862,-3.0797,-3.0699,-3.0504,-3.0391,-3.0261,-3.0098,-3.0082,-3.0017,-2.9839,-2.9822,-2.9855,-2.9952,-2.9692,-2.9465,-2.927,-2.9189,-2.8978,-2.8588,-2.8328,-2.7987,-2.7548,-2.7629,-2.7629,-2.7548,-2.7711,-2.7808,-2.7808,-2.7808,-2.7808,-2.7808,-2.7808,-2.7808,-2.7808,-2.7808,-2.7808,-2.7808,-2.7808,-2.7808,-2.7808,-2.7808,-2.7808,-2.7808,-2.7808,-2.7808,-2.7808,-2.7808,-2.7808,-2.7808,-2.7808,-2.7808,-2.7808,-2.7808,-2.7743,-2.7646,-2.7564,-2.7337,-2.7077,-2.6915,-2.672,-2.6509,-2.6233,-2.6184,-2.6151,-2.5956,-2.5567,-2.5161,-2.4884,-2.3634,0.0,0.0,-2.8143,-3.0321,-3.3858,-3.6525,-3.8076,-3.8691,-3.8718,-3.8798,-3.8931,-3.8825,-3.8718,-3.8718,-3.8718,-3.9065,-3.9813,-4.0,-4.0321,-4.0909,-4.1042,-4.1336,-4.179,-4.1924,-4.2084,-4.2218,-4.2218,-4.2084,-4.1764,-4.249,-4.2899,-4.2836,-4.3493,-4.4069,-4.4309,-4.4309,-4.4397,-4.4572,-4.4572,-4.4572,-4.4572,-3.0569,-3.0586,-3.0586,-3.0504,-3.0521,-3.0569,-3.0634,-3.0634,-3.0521,-3.0196,-3.0163,-3.0098,-2.9968,-2.9903,-2.9855,-2.9822,-2.9822,-2.9806,-2.9709,-2.9481,-2.9302,-2.9205,-2.9124,-2.8815,-2.8295,-2.8182,-2.7922,-2.7483,-2.7564,-2.7581,-2.7548,-2.7711,-2.7808,-2.7808,-2.7808,-2.7808,-2.7808,-2.7808,-2.7808,-2.7808,-2.7808,-2.7808,-2.7808,-2.7808,-2.7808,-2.7808,-2.7808,-2.7808,-2.7808,-2.7808,-2.7808,-2.7808,-2.7808,-2.7808,-2.7808,-2.7808,-2.7776,-2.7743,-2.7743,-2.7678,-2.7597,-2.7467,-2.7191,-2.6915,-2.672,-2.6574,-2.6379,-2.6054,-2.6086,-2.6054,-2.5778,-2.5339,-2.4917,-2.4592,0.0,0.0,0.0,-2.7235,-2.9357,-3.2219,-3.5509,-3.7605,-3.8153,-3.8755,-3.9279,-3.9279,-3.9199,-3.9038,-3.8825,-3.8825,-3.9199,-4.0,-4.0401,-4.0668,-4.0802,-4.1096,-4.139,-4.1684,-4.1978,-4.2138,-4.2218,-4.2218,-4.2031,-4.1684,-4.2683,-4.2871,-4.2724,-4.3676,-4.4099,-4.4309,-4.4309,-4.4367,-4.4426,-4.4367,-4.4367,-4.4426,-3.0732,-3.0862,-3.0862,-3.0537,-3.0634,-3.0634,-3.031,-3.0261,-3.0196,-2.9985,-2.9968,-2.9968,-2.9952,-2.9806,-2.9627,-2.9465,-2.9465,-2.9319,-2.8994,-2.9091,-2.9221,-2.94,-2.9075,-2.8653,-2.8101,-2.8247,-2.7971,-2.7288,-2.7629,-2.7694,-2.7548,-2.7711,-2.7808,-2.7808,-2.7808,-2.7808,-2.7808,-2.7808,-2.7808,-2.7808,-2.7808,-2.7808,-2.7808,-2.7808,-2.7808,-2.7808,-2.7808,-2.7808,-2.7808,-2.7808,-2.7808,-2.7808,-2.7808,-2.7808,-2.7808,-2.7808,-2.7694,-2.7564,-2.7564,-2.7337,-2.7077,-2.7061,-2.6915,-2.672,-2.6525,-2.646,-2.6427,-2.6233,-2.6054,-2.5956,-2.5908,-2.5209,-2.4576,-2.4381,0.0,0.0,-2.5434,-2.6025,-2.7241,-2.9769,-3.299,-3.5216,-3.5745,-3.794,-3.9573,-3.9573,-3.9306,-3.9145,-3.9118,-3.9118,-3.9412,-4.0,-4.0588,-4.0775,-4.0508,-4.0802,-4.1096,-4.139,-4.1684,-4.1978,-4.2218,-4.2218,-4.1924,-4.139,-4.2079,-4.2487,-4.2416,-4.3138,-4.383,-4.4309,-4.4309,-4.4514,-4.4719,-4.4426,-4.4514,-4.4719,-3.0602,-3.0634,-3.0602,-3.0375,-3.0293,-3.0245,-3.0228,-3.0115,-3.0033,-2.9952,-2.9952,-2.9903,-2.9806,-2.9709,-2.9611,-2.9432,-2.9416,-2.9351,-2.9221,-2.9156,-2.9124,-2.9091,-2.8848,-2.8523,-2.8084,-2.7922,-2.7711,-2.7435,-2.7467,-2.7548,-2.7711,-2.7776,-2.7808,-2.7808,-2.7808,-2.7808,-2.7808,-2.7808,-2.7808,-2.7808,-2.7694,-2.7711,-2.7776,-2.7548,-2.7548,-2.7646,-2.7646,-2.7646,-2.7646,-2.7759,-2.7808,-2.7808,-2.7808,-2.7808,-2.7808,-2.7808,-2.7678,-2.7548,-2.7548,-2.7435,-2.7353,-2.7353,-2.7126,-2.6866,-2.6671,-2.6541,-2.6427,-2.6249,-2.6151,-2.6054,-2.5956,-2.5372,-2.4868,-2.4706,0.0,-2.3335,-2.4452,-2.5572,-2.7115,-2.8287,-3.1051,-3.303,-3.3142,-3.4334,-3.484,-3.4749,-3.6161,-3.7091,-3.6765,-3.8913,-4.0,-4.0027,-4.0615,-4.0775,-4.0481,-4.0775,-4.1042,-4.1336,-4.163,-4.1924,-4.2218,-4.2031,-4.1737,-4.1336,-4.2162,-4.2565,-4.2388,-4.359,-4.4099,-4.4309,-4.4309,-4.4397,-4.4484,-4.4367,-4.4397,-4.4484,-3.0504,-3.0488,-3.0423,-3.0245,-3.0115,-3.005,-3.0115,-3.0033,-2.9952,-2.9952,-2.9952,-2.9903,-2.9774,-2.966,-2.9546,-2.9416,-2.9351,-2.9302,-2.9254,-2.914,-2.8994,-2.8799,-2.8669,-2.8425,-2.7987,-2.7759,-2.7613,-2.7548,-2.7418,-2.75,-2.7808,-2.7808,-2.7808,-2.7808,-2.7808,-2.7808,-2.7808,-2.7808,-2.7776,-2.7711,-2.7646,-2.7678,-2.7694,-2.7435,-2.7435,-2.7548,-2.7548,-2.7548,-2.7564,-2.7743,-2.7808,-2.7808,-2.7808,-2.7808,-2.7808,-2.7808,-2.7678,-2.7564,-2.7613,-2.7581,-2.7532,-2.7483,-2.7223,-2.698,-2.685,-2.6639,-2.6427,-2.6314,-2.62,-2.6086,-2.5956,-2.5502,-2.5079,-2.4884,-2.4153,-2.3682,-2.3926,-2.5035,-2.6114,-2.6584,-2.8872,-3.0594,-3.0615,-3.1491,-3.1978,-3.172,-3.4357,-3.6332,-3.6778,-3.904,-4.0294,-4.0187,-4.0535,-4.0695,-4.0481,-4.0775,-4.1042,-4.1336,-4.155,-4.179,-4.2084,-4.179,-4.147,-4.1423,-4.2459,-4.2696,-4.287,-4.3859,-4.4309,-4.4309,-4.4309,-4.4309,-4.4309,-4.4309,-4.4309,-4.4309,-3.0488,-3.0488,-3.0423,-3.0245,-3.0228,-3.0163,-2.9968,-2.9952,-2.9952,-2.9952,-2.9952,-2.9952,-2.9952,-2.9627,-2.9416,-2.9416,-2.9254,-2.9075,-2.8913,-2.888,-2.8799,-2.8604,-2.8604,-2.836,-2.7824,-2.7808,-2.7711,-2.7548,-2.7548,-2.7629,-2.7808,-2.7808,-2.7808,-2.7808,-2.7808,-2.7808,-2.7808,-2.7808,-2.7694,-2.7564,-2.7743,-2.7694,-2.7548,-2.7548,-2.7548,-2.7548,-2.7548,-2.7548,-2.7564,-2.7743,-2.7808,-2.7808,-2.7808,-2.7808,-2.7808,-2.7808,-2.7678,-2.7581,-2.7759,-2.7678,-2.75,-2.7321,-2.7142,-2.7012,-2.7012,-2.6736,-2.646,-2.646,-2.6184,-2.5924,-2.5924,-2.5502,-2.5079,-2.4917,-2.4576,-2.4332,-2.4332,-2.4186,-2.4121,-2.4316,-2.638,-2.7953,-2.7953,-3.0372,-3.1914,-3.215,-3.4403,-3.7027,-3.976,-4.0027,-4.0187,-4.0481,-4.0481,-4.0481,-4.0481,-4.0775,-4.1042,-4.1336,-4.1336,-4.1497,-4.179,-4.1497,-4.1423,-4.1888,-4.262,-4.2939,-4.3379,-4.4069,-4.4309,-4.4309,-4.4309,-4.4309,-4.4309,-4.4309,-4.4309,-4.4309,-2.9549,-3.0063,-3.0245,-3.005,-3.0033,-3.0017,-2.9952,-2.9952,-2.9952,-2.9952,-2.9952,-2.9903,-2.9774,-2.966,-2.9546,-2.9416,-2.9254,-2.9075,-2.8913,-2.888,-2.8799,-2.8604,-2.8377,-2.8101,-2.7808,-2.7435,-2.7353,-2.7548,-2.7418,-2.75,-2.7808,-2.7808,-2.7808,-2.7808,-2.7808,-2.7808,-2.7808,-2.7678,-2.7646,-2.7694,-2.737,-2.737,-2.75,-2.7126,-2.7142,-2.7353,-2.7353,-2.7353,-2.737,-2.7564,-2.7548,-2.7467,-2.7581,-2.7629,-2.7646,-2.7759,-2.7759,-2.7743,-2.7776,-2.7678,-2.7532,-2.7483,-2.7337,-2.7158,-2.7045,-2.6817,-2.6606,-2.6492,-2.6298,-2.6086,-2.5956,-2.5697,-2.542,-2.5096,-2.4982,-2.4868,-2.4722,-2.4543,-2.4543,-2.4868,-2.5265,-2.5477,-2.5477,-2.608,-2.6394,-2.6179,-3.047,-3.4427,-3.7358,-3.9353,-4.0401,-4.0481,-4.0481,-4.0481,-4.0481,-4.0561,-4.0775,-4.1042,-4.1042,-4.1203,-4.1443,-4.1176,-4.1234,-4.1888,-4.237,-4.2954,-4.3379,-4.4069,-4.4309,-4.4309,-4.4309,-4.4309,-4.4309,-4.4309,-4.4309,-4.4309,-2.9111,-2.9297,-2.9789,-3.0066,-2.9985,-2.9952,-2.9952,-2.9952,-2.9952,-2.9952,-2.9952,-2.9903,-2.9806,-2.9709,-2.9611,-2.9432,-2.9189,-2.8994,-2.888,-2.888,-2.8783,-2.8507,-2.823,-2.7987,-2.7808,-2.7418,-2.7337,-2.7548,-2.7435,-2.7532,-2.7808,-2.7808,-2.7808,-2.7808,-2.7808,-2.7808,-2.7808,-2.7694,-2.7678,-2.7678,-2.7353,-2.7353,-2.75,-2.7028,-2.7077,-2.737,-2.7288,-2.7272,-2.7288,-2.7483,-2.7467,-2.7402,-2.75,-2.7581,-2.7678,-2.7776,-2.7808,-2.7808,-2.7808,-2.7678,-2.7532,-2.7467,-2.7321,-2.7142,-2.7045,-2.6752,-2.6509,-2.6379,-2.6168,-2.5973,-2.5843,-2.5745,-2.5615,-2.5404,-2.529,-2.5225,-2.5193,-2.4982,-2.4917,-2.5209,-2.4706,-2.4332,-2.4332,-2.404,-2.4301,-2.519,-2.9582,-3.3349,-3.6233,-3.897,-4.0481,-4.0481,-4.0481,-4.0481,-4.0481,-4.0481,-4.0615,-4.0909,-4.0802,-4.0882,-4.1149,-4.1127,-4.1453,-4.2155,-4.2472,-4.3138,-4.383,-4.4099,-4.4309,-4.4309,-4.4309,-4.4309,-4.4309,-4.4309,-4.4309,-4.4309,-2.8629,-2.883,-2.9061,-2.9854,-3.005,-2.992,-2.9952,-2.992,-2.992,-2.9952,-2.9952,-2.9952,-2.992,-2.9774,-2.9611,-2.9432,-2.9091,-2.8913,-2.888,-2.888,-2.8734,-2.8377,-2.8182,-2.8019,-2.7808,-2.7613,-2.7532,-2.7548,-2.7548,-2.7629,-2.7808,-2.7808,-2.7808,-2.7808,-2.7808,-2.7808,-2.7808,-2.7759,-2.7678,-2.7548,-2.75,-2.75,-2.7483,-2.7142,-2.7223,-2.7532,-2.7337,-2.7272,-2.7288,-2.7418,-2.7467,-2.7467,-2.7483,-2.7581,-2.7694,-2.7743,-2.7743,-2.7743,-2.7759,-2.7629,-2.7467,-2.7288,-2.7126,-2.6996,-2.698,-2.659,-2.6233,-2.6184,-2.5924,-2.5697,-2.568,-2.568,-2.568,-2.568,-2.5534,-2.5469,-2.5632,-2.5355,-2.5209,-2.5355,-2.4754,-2.4332,-2.4332,-2.3861,-2.4654,-2.7427,-3.0577,-3.3528,-3.5988,-3.897,-4.0481,-4.0481,-4.0481,-4.0481,-4.0481,-4.0481,-4.0615,-4.0882,-4.0615,-4.0615,-4.0882,-4.1074,-4.1664,-4.2388,-4.311,-4.3619,-4.4309,-4.4309,-4.4309,-4.4309,-4.4309,-4.4309,-4.4309,-4.4309,-4.4309,-4.4309,-2.7075,-2.7902,-2.8721,-2.9061,-2.9532,-2.9774,-2.992,-2.9822,-2.9774,-2.992,-2.9952,-2.9887,-2.9757,-2.9692,-2.9611,-2.9432,-2.9205,-2.9026,-2.888,-2.888,-2.8783,-2.8572,-2.8377,-2.8117,-2.7808,-2.7483,-2.7402,-2.7548,-2.7548,-2.7629,-2.7808,-2.7808,-2.7808,-2.7808,-2.7808,-2.7808,-2.7776,-2.75,-2.7435,-2.75,-2.7077,-2.7077,-2.7321,-2.7093,-2.7223,-2.7532,-2.7337,-2.7272,-2.7223,-2.6996,-2.6817,-2.6736,-2.7045,-2.6947,-2.685,-2.7272,-2.7288,-2.7207,-2.7353,-2.7272,-2.7126,-2.7077,-2.6931,-2.6752,-2.6606,-2.6492,-2.633,-2.6054,-2.5924,-2.5826,-2.5697,-2.568,-2.568,-2.568,-2.5534,-2.542,-2.5469,-2.5274,-2.5161,-2.5193,-2.4689,-2.4332,-2.4332,-2.3975,-2.409,-2.4779,-2.9617,-3.2525,-3.3258,-3.797,-4.0481,-4.0481,-4.0481,-4.0481,-4.0481,-4.0481,-4.0508,-4.0588,-4.0508,-4.0508,-4.0588,-4.0751,-4.1208,-4.2388,-4.2629,-4.335,-4.4309,-4.4309,-4.4309,-4.4309,-4.4309,-4.4309,-4.4309,-4.4309,-4.4309,-4.4309,-2.6353,-2.6929,-2.7782,-2.8706,-2.8951,-2.95,-2.9822,-2.9741,-2.9676,-2.9692,-2.9692,-2.9644,-2.9562,-2.9546,-2.9481,-2.9302,-2.9124,-2.8978,-2.888,-2.8799,-2.8669,-2.8474,-2.8312,-2.8036,-2.7694,-2.7564,-2.7532,-2.7548,-2.7629,-2.7711,-2.7808,-2.7808,-2.7808,-2.7808,-2.7711,-2.7678,-2.7646,-2.7386,-2.7337,-2.737,-2.7012,-2.7045,-2.7256,-2.698,-2.7093,-2.7402,-2.7207,-2.7142,-2.7093,-2.6736,-2.6606,-2.6606,-2.672,-2.6736,-2.6769,-2.6947,-2.7077,-2.7142,-2.7142,-2.7077,-2.7012,-2.7012,-2.6801,-2.659,-2.6492,-2.6395,-2.6265,-2.5989,-2.5875,-2.5778,-2.5697,-2.568,-2.5664,-2.555,-2.5469,-2.5372,-2.529,-2.5209,-2.5096,-2.5014,-2.4608,-2.4235,-2.3975,-2.378,-2.3747,-2.3926,-2.7746,-3.0905,-3.2366,-3.6406,-3.924,-4.0481,-4.0481,-4.0481,-4.0481,-4.0481,-4.0401,-4.0267,-4.0401,-4.0481,-4.0481,-4.0724,-4.1423,-4.2388,-4.2629,-4.335,-4.4309,-4.4309,-4.425,-4.4075,-4.4075,-4.3987,-4.387,-4.387,-4.387,-4.387,-2.5944,-2.6239,-2.6548,-2.8059,-2.8321,-2.8566,-2.9035,-2.9291,-2.9243,-2.9114,-2.9114,-2.9098,-2.9066,-2.905,-2.8953,-2.8809,-2.868,-2.86,-2.86,-2.8439,-2.8262,-2.8053,-2.7892,-2.7667,-2.7314,-2.7442,-2.7711,-2.7548,-2.7711,-2.7808,-2.7808,-2.7776,-2.7759,-2.7759,-2.7564,-2.75,-2.7483,-2.7321,-2.7223,-2.7207,-2.7045,-2.7077,-2.7191,-2.6915,-2.6996,-2.7256,-2.7077,-2.6996,-2.6915,-2.6574,-2.6541,-2.6606,-2.646,-2.6606,-2.6801,-2.6671,-2.6882,-2.711,-2.6947,-2.6947,-2.6947,-2.6931,-2.6704,-2.6444,-2.6379,-2.6265,-2.6103,-2.5924,-2.5778,-2.568,-2.568,-2.568,-2.5632,-2.5469,-2.5404,-2.5307,-2.5161,-2.5128,-2.5014,-2.4803,-2.4462,-2.4056,-2.3569,-2.3552,-2.3634,-2.378,-2.6394,-2.8989,-3.1374,-3.453,-3.7382,-3.9647,-4.0159,-4.0401,-4.0401,-4.0401,-4.0294,-4.0027,-4.0294,-4.0401,-4.0401,-4.1181,-4.1664,-4.2388,-4.3138,-4.383,-4.4309,-4.428,-4.4075,-4.3841,-4.3753,-4.3606,-4.3372,-4.3372,-4.3372,-4.3402,-2.503,-2.5621,-2.6211,-2.6375,-2.6856,-2.7345,-2.7314,-2.7194,-2.7164,-2.7269,-2.7269,-2.7526,-2.8005,-2.8163,-2.774,-2.6832,-2.6802,-2.6787,-2.6787,-2.6772,-2.6621,-2.6304,-2.6274,-2.6398,-2.692,-2.6951,-2.7157,-2.7548,-2.7711,-2.7808,-2.7808,-2.7646,-2.7581,-2.7564,-2.7402,-2.7321,-2.7288,-2.7126,-2.7061,-2.7028,-2.685,-2.6882,-2.7045,-2.6996,-2.7093,-2.7256,-2.7077,-2.6915,-2.6736,-2.6525,-2.6379,-2.6265,-2.6249,-2.6168,-2.6103,-2.6249,-2.6427,-2.6574,-2.6557,-2.6655,-2.6736,-2.6574,-2.6509,-2.6379,-2.6086,-2.5989,-2.5908,-2.5745,-2.5697,-2.568,-2.568,-2.568,-2.568,-2.5632,-2.5372,-2.5161,-2.5144,-2.5014,-2.4787,-2.4446,-2.4105,-2.378,-2.3552,-2.3682,-2.378,-2.3812,-2.6394,-2.8198,-2.8481,-3.3126,-3.6164,-3.665,-3.8877,-4.0107,-4.0107,-4.0107,-4.008,-4.0027,-4.008,-4.0107,-4.0107,-4.1072,-4.1664,-4.2388,-4.3138,-4.383,-4.428,-4.3987,-4.387,-4.3782,-4.3519,-4.3402,-4.3372,-4.3372,-4.3372,-4.3372,-2.5016,-2.5257,-2.5482,-2.6025,-2.6188,-2.6361,-2.6862,-2.6788,-2.6743,-2.6713,-2.6713,-2.6968,-2.7206,-2.713,-2.6787,-2.649,-2.649,-2.649,-2.649,-2.6326,-2.6162,-2.6013,-2.5834,-2.5958,-2.6093,-2.6093,-2.6349,-2.7126,-2.749,-2.7808,-2.7808,-2.7711,-2.7629,-2.7548,-2.7353,-2.7223,-2.7126,-2.6931,-2.6866,-2.685,-2.6785,-2.6785,-2.6866,-2.6866,-2.6915,-2.6947,-2.6769,-2.6655,-2.6541,-2.6249,-2.6119,-2.6054,-2.6054,-2.6054,-2.6103,-2.6184,-2.6395,-2.659,-2.6492,-2.659,-2.6704,-2.6509,-2.6395,-2.6249,-2.5989,-2.5859,-2.5761,-2.5697,-2.568,-2.5664,-2.555,-2.5615,-2.5567,-2.5274,-2.5193,-2.5079,-2.4868,-2.4771,-2.4592,-2.4235,-2.3877,-2.3617,-2.3536,-2.3601,-2.365,-2.365,-2.4789,-2.6322,-2.7783,-3.0068,-3.2839,-3.5875,-3.7102,-3.8301,-3.9786,-3.9786,-3.9706,-3.9546,-3.9706,-3.9893,-4.0027,-4.0562,-4.1231,-4.1884,-4.2319,-4.3007,-4.3753,-4.3636,-4.346,-4.3285,-4.3138,-4.2992,-4.2846,-4.3021,-4.2963,-4.2846]}]]